<?xml version="1.0" encoding="UTF-8" standalone="no" ?>
<gpx xmlns="http://www.topografix.com/GPX/1/1" xmlns:xsi="http://www.w3.org/2001/XMLSchema-instance" xsi:schemaLocation="http://www.topografix.com/GPX/1/1 http://www.topografix.com/GPX/1/1/gpx.xsd" version="1.1" creator="VisuGPX - https://www.visugpx.com">
  <metadata>
    <name>Descente du Radôme</name>
    <desc><![CDATA[Descente dominicale Radôme de Caussols->Pont du Loup.
]]></desc>
  </metadata>
  <trk>
    <name><![CDATA[Descente du Radome]]></name>
    <desc><![CDATA[Descente du Radome avec Stéphane. Demi navette Pont du Loup-Gourdon puis montée par la route. Temps voilé mais pas trop chaud. Excellent !]]></desc>
    <trkseg>
      <trkpt lat="43.72405" lon="6.98186">
        <ele>742.79998779297</ele>
        <time>2011-07-03T07:13:08.000Z</time>
      </trkpt>
      <trkpt lat="43.724" lon="6.98175">
        <ele>743.59997558594</ele>
        <time>2011-07-03T07:13:13.000Z</time>
      </trkpt>
      <trkpt lat="43.72399" lon="6.98169">
        <ele>744.40002441406</ele>
        <time>2011-07-03T07:13:17.000Z</time>
      </trkpt>
      <trkpt lat="43.72399" lon="6.98176">
        <ele>743</ele>
        <time>2011-07-03T07:13:21.000Z</time>
      </trkpt>
      <trkpt lat="43.72403" lon="6.98172">
        <ele>745.20001220703</ele>
        <time>2011-07-03T07:13:25.000Z</time>
      </trkpt>
      <trkpt lat="43.72403" lon="6.98158">
        <ele>747.20001220703</ele>
        <time>2011-07-03T07:13:30.000Z</time>
      </trkpt>
      <trkpt lat="43.72399" lon="6.98151">
        <ele>746.79998779297</ele>
        <time>2011-07-03T07:13:32.000Z</time>
      </trkpt>
      <trkpt lat="43.72377" lon="6.98127">
        <ele>744.20001220703</ele>
        <time>2011-07-03T07:13:39.000Z</time>
      </trkpt>
      <trkpt lat="43.7236" lon="6.98103">
        <ele>742.79998779297</ele>
        <time>2011-07-03T07:13:45.000Z</time>
      </trkpt>
      <trkpt lat="43.72323" lon="6.98056">
        <ele>742.20001220703</ele>
        <time>2011-07-03T07:13:57.000Z</time>
      </trkpt>
      <trkpt lat="43.72288" lon="6.98012">
        <ele>742.20001220703</ele>
        <time>2011-07-03T07:14:07.000Z</time>
      </trkpt>
      <trkpt lat="43.72281" lon="6.98003">
        <ele>741.79998779297</ele>
        <time>2011-07-03T07:14:09.000Z</time>
      </trkpt>
      <trkpt lat="43.72259" lon="6.97956">
        <ele>740.20001220703</ele>
        <time>2011-07-03T07:14:17.000Z</time>
      </trkpt>
      <trkpt lat="43.72243" lon="6.9791">
        <ele>740.59997558594</ele>
        <time>2011-07-03T07:14:24.000Z</time>
      </trkpt>
      <trkpt lat="43.72237" lon="6.97859">
        <ele>743</ele>
        <time>2011-07-03T07:14:31.000Z</time>
      </trkpt>
      <trkpt lat="43.7223" lon="6.97826">
        <ele>744.20001220703</ele>
        <time>2011-07-03T07:14:36.000Z</time>
      </trkpt>
      <trkpt lat="43.72222" lon="6.97809">
        <ele>744.20001220703</ele>
        <time>2011-07-03T07:14:39.000Z</time>
      </trkpt>
      <trkpt lat="43.72192" lon="6.9777">
        <ele>742.40002441406</ele>
        <time>2011-07-03T07:14:47.000Z</time>
      </trkpt>
      <trkpt lat="43.72148" lon="6.97717">
        <ele>740.40002441406</ele>
        <time>2011-07-03T07:14:58.000Z</time>
      </trkpt>
      <trkpt lat="43.7214" lon="6.97709">
        <ele>740.20001220703</ele>
        <time>2011-07-03T07:15:00.000Z</time>
      </trkpt>
      <trkpt lat="43.7214" lon="6.97692">
        <ele>739.79998779297</ele>
        <time>2011-07-03T07:15:04.000Z</time>
      </trkpt>
      <trkpt lat="43.7216" lon="6.97664">
        <ele>740.59997558594</ele>
        <time>2011-07-03T07:15:13.000Z</time>
      </trkpt>
      <trkpt lat="43.72169" lon="6.97645">
        <ele>742.40002441406</ele>
        <time>2011-07-03T07:15:19.000Z</time>
      </trkpt>
      <trkpt lat="43.72176" lon="6.97628">
        <ele>744.79998779297</ele>
        <time>2011-07-03T07:15:25.000Z</time>
      </trkpt>
      <trkpt lat="43.72182" lon="6.97605">
        <ele>747.59997558594</ele>
        <time>2011-07-03T07:15:33.000Z</time>
      </trkpt>
      <trkpt lat="43.72182" lon="6.97584">
        <ele>749.20001220703</ele>
        <time>2011-07-03T07:15:40.000Z</time>
      </trkpt>
      <trkpt lat="43.72176" lon="6.97548">
        <ele>751.20001220703</ele>
        <time>2011-07-03T07:15:50.000Z</time>
      </trkpt>
      <trkpt lat="43.72162" lon="6.97512">
        <ele>751.20001220703</ele>
        <time>2011-07-03T07:16:02.000Z</time>
      </trkpt>
      <trkpt lat="43.72148" lon="6.97481">
        <ele>747.79998779297</ele>
        <time>2011-07-03T07:16:13.000Z</time>
      </trkpt>
      <trkpt lat="43.72142" lon="6.97455">
        <ele>745.59997558594</ele>
        <time>2011-07-03T07:16:21.000Z</time>
      </trkpt>
      <trkpt lat="43.72146" lon="6.97436">
        <ele>746.79998779297</ele>
        <time>2011-07-03T07:16:27.000Z</time>
      </trkpt>
      <trkpt lat="43.72159" lon="6.97422">
        <ele>750.79998779297</ele>
        <time>2011-07-03T07:16:34.000Z</time>
      </trkpt>
      <trkpt lat="43.7218" lon="6.97411">
        <ele>754.59997558594</ele>
        <time>2011-07-03T07:16:43.000Z</time>
      </trkpt>
      <trkpt lat="43.72203" lon="6.974">
        <ele>757.40002441406</ele>
        <time>2011-07-03T07:16:52.000Z</time>
      </trkpt>
      <trkpt lat="43.72232" lon="6.97387">
        <ele>761.20001220703</ele>
        <time>2011-07-03T07:17:03.000Z</time>
      </trkpt>
      <trkpt lat="43.72253" lon="6.97377">
        <ele>764.59997558594</ele>
        <time>2011-07-03T07:17:11.000Z</time>
      </trkpt>
      <trkpt lat="43.72271" lon="6.9736">
        <ele>769</ele>
        <time>2011-07-03T07:17:19.000Z</time>
      </trkpt>
      <trkpt lat="43.72281" lon="6.97331">
        <ele>771</ele>
        <time>2011-07-03T07:17:28.000Z</time>
      </trkpt>
      <trkpt lat="43.72287" lon="6.97292">
        <ele>774</ele>
        <time>2011-07-03T07:17:39.000Z</time>
      </trkpt>
      <trkpt lat="43.72284" lon="6.97266">
        <ele>773.59997558594</ele>
        <time>2011-07-03T07:17:46.000Z</time>
      </trkpt>
      <trkpt lat="43.7228" lon="6.97233">
        <ele>772.79998779297</ele>
        <time>2011-07-03T07:17:55.000Z</time>
      </trkpt>
      <trkpt lat="43.72283" lon="6.97204">
        <ele>774.59997558594</ele>
        <time>2011-07-03T07:18:03.000Z</time>
      </trkpt>
      <trkpt lat="43.72293" lon="6.97166">
        <ele>780.79998779297</ele>
        <time>2011-07-03T07:18:14.000Z</time>
      </trkpt>
      <trkpt lat="43.72299" lon="6.97124">
        <ele>784.79998779297</ele>
        <time>2011-07-03T07:18:25.000Z</time>
      </trkpt>
      <trkpt lat="43.72299" lon="6.97086">
        <ele>786</ele>
        <time>2011-07-03T07:18:35.000Z</time>
      </trkpt>
      <trkpt lat="43.72295" lon="6.97045">
        <ele>784</ele>
        <time>2011-07-03T07:18:46.000Z</time>
      </trkpt>
      <trkpt lat="43.72292" lon="6.97004">
        <ele>782</ele>
        <time>2011-07-03T07:18:57.000Z</time>
      </trkpt>
      <trkpt lat="43.72289" lon="6.96967">
        <ele>781</ele>
        <time>2011-07-03T07:19:07.000Z</time>
      </trkpt>
      <trkpt lat="43.72288" lon="6.96926">
        <ele>781</ele>
        <time>2011-07-03T07:19:18.000Z</time>
      </trkpt>
      <trkpt lat="43.72287" lon="6.96888">
        <ele>781.59997558594</ele>
        <time>2011-07-03T07:19:28.000Z</time>
      </trkpt>
      <trkpt lat="43.72281" lon="6.96843">
        <ele>780.59997558594</ele>
        <time>2011-07-03T07:19:40.000Z</time>
      </trkpt>
      <trkpt lat="43.72276" lon="6.96798">
        <ele>776.79998779297</ele>
        <time>2011-07-03T07:19:52.000Z</time>
      </trkpt>
      <trkpt lat="43.7228" lon="6.96772">
        <ele>776.20001220703</ele>
        <time>2011-07-03T07:19:59.000Z</time>
      </trkpt>
      <trkpt lat="43.72293" lon="6.96753">
        <ele>778</ele>
        <time>2011-07-03T07:20:06.000Z</time>
      </trkpt>
      <trkpt lat="43.72312" lon="6.96746">
        <ele>781.59997558594</ele>
        <time>2011-07-03T07:20:13.000Z</time>
      </trkpt>
      <trkpt lat="43.72334" lon="6.96749">
        <ele>787</ele>
        <time>2011-07-03T07:20:21.000Z</time>
      </trkpt>
      <trkpt lat="43.72353" lon="6.96768">
        <ele>790</ele>
        <time>2011-07-03T07:20:29.000Z</time>
      </trkpt>
      <trkpt lat="43.72363" lon="6.96793">
        <ele>792.79998779297</ele>
        <time>2011-07-03T07:20:36.000Z</time>
      </trkpt>
      <trkpt lat="43.72373" lon="6.96834">
        <ele>795.59997558594</ele>
        <time>2011-07-03T07:20:47.000Z</time>
      </trkpt>
      <trkpt lat="43.72383" lon="6.9687">
        <ele>796.79998779297</ele>
        <time>2011-07-03T07:20:57.000Z</time>
      </trkpt>
      <trkpt lat="43.72395" lon="6.96906">
        <ele>798.59997558594</ele>
        <time>2011-07-03T07:21:07.000Z</time>
      </trkpt>
      <trkpt lat="43.72402" lon="6.96924">
        <ele>800.40002441406</ele>
        <time>2011-07-03T07:21:12.000Z</time>
      </trkpt>
      <trkpt lat="43.72416" lon="6.96959">
        <ele>806.40002441406</ele>
        <time>2011-07-03T07:21:22.000Z</time>
      </trkpt>
      <trkpt lat="43.72431" lon="6.96983">
        <ele>810.20001220703</ele>
        <time>2011-07-03T07:21:30.000Z</time>
      </trkpt>
      <trkpt lat="43.72454" lon="6.97">
        <ele>811.20001220703</ele>
        <time>2011-07-03T07:21:39.000Z</time>
      </trkpt>
      <trkpt lat="43.72475" lon="6.97012">
        <ele>811</ele>
        <time>2011-07-03T07:21:47.000Z</time>
      </trkpt>
      <trkpt lat="43.72488" lon="6.97032">
        <ele>812</ele>
        <time>2011-07-03T07:21:54.000Z</time>
      </trkpt>
      <trkpt lat="43.72491" lon="6.97057">
        <ele>814.20001220703</ele>
        <time>2011-07-03T07:22:01.000Z</time>
      </trkpt>
      <trkpt lat="43.72485" lon="6.97086">
        <ele>817.59997558594</ele>
        <time>2011-07-03T07:22:09.000Z</time>
      </trkpt>
      <trkpt lat="43.7247" lon="6.97118">
        <ele>821.40002441406</ele>
        <time>2011-07-03T07:22:19.000Z</time>
      </trkpt>
      <trkpt lat="43.72462" lon="6.97147">
        <ele>823.40002441406</ele>
        <time>2011-07-03T07:22:27.000Z</time>
      </trkpt>
      <trkpt lat="43.72469" lon="6.97169">
        <ele>824.40002441406</ele>
        <time>2011-07-03T07:22:33.000Z</time>
      </trkpt>
      <trkpt lat="43.72482" lon="6.97178">
        <ele>825.40002441406</ele>
        <time>2011-07-03T07:22:38.000Z</time>
      </trkpt>
      <trkpt lat="43.72496" lon="6.97174">
        <ele>825</ele>
        <time>2011-07-03T07:22:43.000Z</time>
      </trkpt>
      <trkpt lat="43.72512" lon="6.97154">
        <ele>825</ele>
        <time>2011-07-03T07:22:50.000Z</time>
      </trkpt>
      <trkpt lat="43.72534" lon="6.97124">
        <ele>826</ele>
        <time>2011-07-03T07:23:01.000Z</time>
      </trkpt>
      <trkpt lat="43.72548" lon="6.971">
        <ele>826.40002441406</ele>
        <time>2011-07-03T07:23:09.000Z</time>
      </trkpt>
      <trkpt lat="43.72571" lon="6.97068">
        <ele>827.40002441406</ele>
        <time>2011-07-03T07:23:21.000Z</time>
      </trkpt>
      <trkpt lat="43.72585" lon="6.97047">
        <ele>828.59997558594</ele>
        <time>2011-07-03T07:23:29.000Z</time>
      </trkpt>
      <trkpt lat="43.72604" lon="6.97016">
        <ele>830.79998779297</ele>
        <time>2011-07-03T07:23:40.000Z</time>
      </trkpt>
      <trkpt lat="43.72621" lon="6.96985">
        <ele>833.40002441406</ele>
        <time>2011-07-03T07:23:50.000Z</time>
      </trkpt>
      <trkpt lat="43.72635" lon="6.96957">
        <ele>836.20001220703</ele>
        <time>2011-07-03T07:23:59.000Z</time>
      </trkpt>
      <trkpt lat="43.7265" lon="6.96921">
        <ele>839.40002441406</ele>
        <time>2011-07-03T07:24:10.000Z</time>
      </trkpt>
      <trkpt lat="43.72662" lon="6.96895">
        <ele>840.59997558594</ele>
        <time>2011-07-03T07:24:18.000Z</time>
      </trkpt>
      <trkpt lat="43.72676" lon="6.96863">
        <ele>841.59997558594</ele>
        <time>2011-07-03T07:24:28.000Z</time>
      </trkpt>
      <trkpt lat="43.72694" lon="6.96826">
        <ele>844</ele>
        <time>2011-07-03T07:24:40.000Z</time>
      </trkpt>
      <trkpt lat="43.72705" lon="6.96794">
        <ele>846.59997558594</ele>
        <time>2011-07-03T07:24:49.000Z</time>
      </trkpt>
      <trkpt lat="43.72715" lon="6.96758">
        <ele>849.40002441406</ele>
        <time>2011-07-03T07:24:59.000Z</time>
      </trkpt>
      <trkpt lat="43.72719" lon="6.96729">
        <ele>851.20001220703</ele>
        <time>2011-07-03T07:25:07.000Z</time>
      </trkpt>
      <trkpt lat="43.72724" lon="6.96696">
        <ele>853.79998779297</ele>
        <time>2011-07-03T07:25:16.000Z</time>
      </trkpt>
      <trkpt lat="43.72728" lon="6.96675">
        <ele>856</ele>
        <time>2011-07-03T07:25:22.000Z</time>
      </trkpt>
      <trkpt lat="43.72731" lon="6.96645">
        <ele>857.59997558594</ele>
        <time>2011-07-03T07:25:30.000Z</time>
      </trkpt>
      <trkpt lat="43.72734" lon="6.96607">
        <ele>859.40002441406</ele>
        <time>2011-07-03T07:25:40.000Z</time>
      </trkpt>
      <trkpt lat="43.72736" lon="6.9656">
        <ele>862.20001220703</ele>
        <time>2011-07-03T07:25:52.000Z</time>
      </trkpt>
      <trkpt lat="43.72734" lon="6.96505">
        <ele>865</ele>
        <time>2011-07-03T07:26:06.000Z</time>
      </trkpt>
      <trkpt lat="43.72734" lon="6.96478">
        <ele>867.20001220703</ele>
        <time>2011-07-03T07:26:13.000Z</time>
      </trkpt>
      <trkpt lat="43.72734" lon="6.96443">
        <ele>870</ele>
        <time>2011-07-03T07:26:22.000Z</time>
      </trkpt>
      <trkpt lat="43.72734" lon="6.96413">
        <ele>872.20001220703</ele>
        <time>2011-07-03T07:26:30.000Z</time>
      </trkpt>
      <trkpt lat="43.72733" lon="6.96378">
        <ele>873.79998779297</ele>
        <time>2011-07-03T07:26:39.000Z</time>
      </trkpt>
      <trkpt lat="43.72732" lon="6.96331">
        <ele>875.59997558594</ele>
        <time>2011-07-03T07:26:51.000Z</time>
      </trkpt>
      <trkpt lat="43.72731" lon="6.96284">
        <ele>873.79998779297</ele>
        <time>2011-07-03T07:27:04.000Z</time>
      </trkpt>
      <trkpt lat="43.72731" lon="6.96252">
        <ele>873</ele>
        <time>2011-07-03T07:27:13.000Z</time>
      </trkpt>
      <trkpt lat="43.72738" lon="6.96229">
        <ele>872.59997558594</ele>
        <time>2011-07-03T07:27:20.000Z</time>
      </trkpt>
      <trkpt lat="43.72749" lon="6.96197">
        <ele>872.79998779297</ele>
        <time>2011-07-03T07:27:30.000Z</time>
      </trkpt>
      <trkpt lat="43.72761" lon="6.96172">
        <ele>874.20001220703</ele>
        <time>2011-07-03T07:27:38.000Z</time>
      </trkpt>
      <trkpt lat="43.72776" lon="6.96148">
        <ele>875.40002441406</ele>
        <time>2011-07-03T07:27:47.000Z</time>
      </trkpt>
      <trkpt lat="43.72798" lon="6.96121">
        <ele>877</ele>
        <time>2011-07-03T07:27:58.000Z</time>
      </trkpt>
      <trkpt lat="43.72825" lon="6.96098">
        <ele>880.79998779297</ele>
        <time>2011-07-03T07:28:10.000Z</time>
      </trkpt>
      <trkpt lat="43.7285" lon="6.96082">
        <ele>883.59997558594</ele>
        <time>2011-07-03T07:28:20.000Z</time>
      </trkpt>
      <trkpt lat="43.72869" lon="6.9607">
        <ele>885.40002441406</ele>
        <time>2011-07-03T07:28:28.000Z</time>
      </trkpt>
      <trkpt lat="43.72907" lon="6.96047">
        <ele>888.79998779297</ele>
        <time>2011-07-03T07:28:43.000Z</time>
      </trkpt>
      <trkpt lat="43.72932" lon="6.96033">
        <ele>890.20001220703</ele>
        <time>2011-07-03T07:28:53.000Z</time>
      </trkpt>
      <trkpt lat="43.72959" lon="6.96017">
        <ele>890.40002441406</ele>
        <time>2011-07-03T07:29:04.000Z</time>
      </trkpt>
      <trkpt lat="43.72989" lon="6.95999">
        <ele>890.20001220703</ele>
        <time>2011-07-03T07:29:16.000Z</time>
      </trkpt>
      <trkpt lat="43.73018" lon="6.95985">
        <ele>893.79998779297</ele>
        <time>2011-07-03T07:29:27.000Z</time>
      </trkpt>
      <trkpt lat="43.7305" lon="6.95978">
        <ele>901.20001220703</ele>
        <time>2011-07-03T07:29:39.000Z</time>
      </trkpt>
      <trkpt lat="43.73076" lon="6.95969">
        <ele>905.79998779297</ele>
        <time>2011-07-03T07:29:49.000Z</time>
      </trkpt>
      <trkpt lat="43.73101" lon="6.95954">
        <ele>907.59997558594</ele>
        <time>2011-07-03T07:29:59.000Z</time>
      </trkpt>
      <trkpt lat="43.73122" lon="6.95939">
        <ele>908.40002441406</ele>
        <time>2011-07-03T07:30:08.000Z</time>
      </trkpt>
      <trkpt lat="43.73141" lon="6.95925">
        <ele>908.59997558594</ele>
        <time>2011-07-03T07:30:16.000Z</time>
      </trkpt>
      <trkpt lat="43.73168" lon="6.95909">
        <ele>911</ele>
        <time>2011-07-03T07:30:27.000Z</time>
      </trkpt>
      <trkpt lat="43.73194" lon="6.95888">
        <ele>914.79998779297</ele>
        <time>2011-07-03T07:30:38.000Z</time>
      </trkpt>
      <trkpt lat="43.73216" lon="6.95865">
        <ele>915.40002441406</ele>
        <time>2011-07-03T07:30:48.000Z</time>
      </trkpt>
      <trkpt lat="43.73241" lon="6.95836">
        <ele>914.79998779297</ele>
        <time>2011-07-03T07:31:00.000Z</time>
      </trkpt>
      <trkpt lat="43.73264" lon="6.95813">
        <ele>914.40002441406</ele>
        <time>2011-07-03T07:31:11.000Z</time>
      </trkpt>
      <trkpt lat="43.73285" lon="6.95805">
        <ele>916.20001220703</ele>
        <time>2011-07-03T07:31:19.000Z</time>
      </trkpt>
      <trkpt lat="43.7331" lon="6.95806">
        <ele>921.20001220703</ele>
        <time>2011-07-03T07:31:28.000Z</time>
      </trkpt>
      <trkpt lat="43.73344" lon="6.95813">
        <ele>928.59997558594</ele>
        <time>2011-07-03T07:31:41.000Z</time>
      </trkpt>
      <trkpt lat="43.73375" lon="6.95817">
        <ele>933.40002441406</ele>
        <time>2011-07-03T07:31:53.000Z</time>
      </trkpt>
      <trkpt lat="43.73388" lon="6.95812">
        <ele>934.20001220703</ele>
        <time>2011-07-03T07:31:58.000Z</time>
      </trkpt>
      <trkpt lat="43.73399" lon="6.95792">
        <ele>934.40002441406</ele>
        <time>2011-07-03T07:32:05.000Z</time>
      </trkpt>
      <trkpt lat="43.73401" lon="6.95768">
        <ele>932.79998779297</ele>
        <time>2011-07-03T07:32:12.000Z</time>
      </trkpt>
      <trkpt lat="43.7339" lon="6.9574">
        <ele>928.59997558594</ele>
        <time>2011-07-03T07:32:20.000Z</time>
      </trkpt>
      <trkpt lat="43.73382" lon="6.9571">
        <ele>926</ele>
        <time>2011-07-03T07:32:28.000Z</time>
      </trkpt>
      <trkpt lat="43.73386" lon="6.95684">
        <ele>927.40002441406</ele>
        <time>2011-07-03T07:32:34.000Z</time>
      </trkpt>
      <trkpt lat="43.734" lon="6.95647">
        <ele>930.59997558594</ele>
        <time>2011-07-03T07:32:43.000Z</time>
      </trkpt>
      <trkpt lat="43.73419" lon="6.95618">
        <ele>933</ele>
        <time>2011-07-03T07:32:52.000Z</time>
      </trkpt>
      <trkpt lat="43.73443" lon="6.95591">
        <ele>939.40002441406</ele>
        <time>2011-07-03T07:33:02.000Z</time>
      </trkpt>
      <trkpt lat="43.73459" lon="6.95565">
        <ele>945</ele>
        <time>2011-07-03T07:33:10.000Z</time>
      </trkpt>
      <trkpt lat="43.73461" lon="6.9553">
        <ele>945.59997558594</ele>
        <time>2011-07-03T07:33:18.000Z</time>
      </trkpt>
      <trkpt lat="43.73462" lon="6.9549">
        <ele>946</ele>
        <time>2011-07-03T07:33:27.000Z</time>
      </trkpt>
      <trkpt lat="43.73462" lon="6.95437">
        <ele>949</ele>
        <time>2011-07-03T07:33:39.000Z</time>
      </trkpt>
      <trkpt lat="43.73463" lon="6.95389">
        <ele>950.20001220703</ele>
        <time>2011-07-03T07:33:50.000Z</time>
      </trkpt>
      <trkpt lat="43.7347" lon="6.95342">
        <ele>952.40002441406</ele>
        <time>2011-07-03T07:34:01.000Z</time>
      </trkpt>
      <trkpt lat="43.73484" lon="6.95307">
        <ele>954.20001220703</ele>
        <time>2011-07-03T07:34:10.000Z</time>
      </trkpt>
      <trkpt lat="43.73504" lon="6.95277">
        <ele>955.59997558594</ele>
        <time>2011-07-03T07:34:19.000Z</time>
      </trkpt>
      <trkpt lat="43.73531" lon="6.95237">
        <ele>961</ele>
        <time>2011-07-03T07:34:31.000Z</time>
      </trkpt>
      <trkpt lat="43.73556" lon="6.95202">
        <ele>965.59997558594</ele>
        <time>2011-07-03T07:34:42.000Z</time>
      </trkpt>
      <trkpt lat="43.73579" lon="6.9518">
        <ele>967.40002441406</ele>
        <time>2011-07-03T07:34:51.000Z</time>
      </trkpt>
      <trkpt lat="43.73608" lon="6.95157">
        <ele>973</ele>
        <time>2011-07-03T07:35:03.000Z</time>
      </trkpt>
      <trkpt lat="43.73616" lon="6.95147">
        <ele>975.79998779297</ele>
        <time>2011-07-03T07:35:09.000Z</time>
      </trkpt>
      <trkpt lat="43.73616" lon="6.95146">
        <ele>975.79998779297</ele>
        <time>2011-07-03T07:35:18.000Z</time>
      </trkpt>
      <trkpt lat="43.73616" lon="6.95144">
        <ele>976</ele>
        <time>2011-07-03T07:35:30.000Z</time>
      </trkpt>
      <trkpt lat="43.73614" lon="6.95144">
        <ele>975.79998779297</ele>
        <time>2011-07-03T07:35:47.000Z</time>
      </trkpt>
      <trkpt lat="43.73616" lon="6.95147">
        <ele>975.79998779297</ele>
        <time>2011-07-03T07:35:58.000Z</time>
      </trkpt>
      <trkpt lat="43.73617" lon="6.95139">
        <ele>976.59997558594</ele>
        <time>2011-07-03T07:36:03.000Z</time>
      </trkpt>
      <trkpt lat="43.73612" lon="6.9512">
        <ele>978</ele>
        <time>2011-07-03T07:36:09.000Z</time>
      </trkpt>
      <trkpt lat="43.73601" lon="6.95112">
        <ele>977.79998779297</ele>
        <time>2011-07-03T07:36:14.000Z</time>
      </trkpt>
      <trkpt lat="43.73589" lon="6.9511">
        <ele>976.79998779297</ele>
        <time>2011-07-03T07:36:19.000Z</time>
      </trkpt>
      <trkpt lat="43.73569" lon="6.95111">
        <ele>975.59997558594</ele>
        <time>2011-07-03T07:36:26.000Z</time>
      </trkpt>
      <trkpt lat="43.73536" lon="6.9511">
        <ele>974.59997558594</ele>
        <time>2011-07-03T07:36:38.000Z</time>
      </trkpt>
      <trkpt lat="43.73509" lon="6.9511">
        <ele>974</ele>
        <time>2011-07-03T07:36:49.000Z</time>
      </trkpt>
      <trkpt lat="43.73491" lon="6.9511">
        <ele>974.20001220703</ele>
        <time>2011-07-03T07:36:56.000Z</time>
      </trkpt>
      <trkpt lat="43.73464" lon="6.95109">
        <ele>975.79998779297</ele>
        <time>2011-07-03T07:37:07.000Z</time>
      </trkpt>
      <trkpt lat="43.73442" lon="6.95106">
        <ele>978</ele>
        <time>2011-07-03T07:37:16.000Z</time>
      </trkpt>
      <trkpt lat="43.73423" lon="6.95093">
        <ele>984</ele>
        <time>2011-07-03T07:37:24.000Z</time>
      </trkpt>
      <trkpt lat="43.73405" lon="6.95085">
        <ele>989.40002441406</ele>
        <time>2011-07-03T07:37:31.000Z</time>
      </trkpt>
      <trkpt lat="43.73391" lon="6.95091">
        <ele>990.59997558594</ele>
        <time>2011-07-03T07:37:37.000Z</time>
      </trkpt>
      <trkpt lat="43.73379" lon="6.95106">
        <ele>988.40002441406</ele>
        <time>2011-07-03T07:37:43.000Z</time>
      </trkpt>
      <trkpt lat="43.73363" lon="6.95133">
        <ele>984.40002441406</ele>
        <time>2011-07-03T07:37:52.000Z</time>
      </trkpt>
      <trkpt lat="43.7334" lon="6.95164">
        <ele>982.59997558594</ele>
        <time>2011-07-03T07:38:04.000Z</time>
      </trkpt>
      <trkpt lat="43.73316" lon="6.95182">
        <ele>982.40002441406</ele>
        <time>2011-07-03T07:38:14.000Z</time>
      </trkpt>
      <trkpt lat="43.73295" lon="6.95189">
        <ele>984</ele>
        <time>2011-07-03T07:38:22.000Z</time>
      </trkpt>
      <trkpt lat="43.7327" lon="6.95187">
        <ele>988.79998779297</ele>
        <time>2011-07-03T07:38:31.000Z</time>
      </trkpt>
      <trkpt lat="43.7324" lon="6.95182">
        <ele>994.79998779297</ele>
        <time>2011-07-03T07:38:42.000Z</time>
      </trkpt>
      <trkpt lat="43.73214" lon="6.95177">
        <ele>999.59997558594</ele>
        <time>2011-07-03T07:38:52.000Z</time>
      </trkpt>
      <trkpt lat="43.73189" lon="6.95176">
        <ele>1003.4000244141</ele>
        <time>2011-07-03T07:39:02.000Z</time>
      </trkpt>
      <trkpt lat="43.73175" lon="6.95187">
        <ele>1004.5999755859</ele>
        <time>2011-07-03T07:39:08.000Z</time>
      </trkpt>
      <trkpt lat="43.73168" lon="6.95207">
        <ele>1004.5999755859</ele>
        <time>2011-07-03T07:39:14.000Z</time>
      </trkpt>
      <trkpt lat="43.73166" lon="6.9524">
        <ele>1003.5999755859</ele>
        <time>2011-07-03T07:39:23.000Z</time>
      </trkpt>
      <trkpt lat="43.73164" lon="6.95274">
        <ele>1002.4000244141</ele>
        <time>2011-07-03T07:39:32.000Z</time>
      </trkpt>
      <trkpt lat="43.73153" lon="6.953">
        <ele>1003.200012207</ele>
        <time>2011-07-03T07:39:40.000Z</time>
      </trkpt>
      <trkpt lat="43.73136" lon="6.95329">
        <ele>1004.4000244141</ele>
        <time>2011-07-03T07:39:50.000Z</time>
      </trkpt>
      <trkpt lat="43.7312" lon="6.95343">
        <ele>1004.799987793</ele>
        <time>2011-07-03T07:39:57.000Z</time>
      </trkpt>
      <trkpt lat="43.73111" lon="6.95335">
        <ele>1007.799987793</ele>
        <time>2011-07-03T07:40:01.000Z</time>
      </trkpt>
      <trkpt lat="43.73111" lon="6.95332">
        <ele>1008.4000244141</ele>
        <time>2011-07-03T07:40:02.000Z</time>
      </trkpt>
      <trkpt lat="43.73115" lon="6.95314">
        <ele>1009.4000244141</ele>
        <time>2011-07-03T07:40:07.000Z</time>
      </trkpt>
      <trkpt lat="43.73131" lon="6.95273">
        <ele>1009.799987793</ele>
        <time>2011-07-03T07:40:19.000Z</time>
      </trkpt>
      <trkpt lat="43.73134" lon="6.95247">
        <ele>1010.799987793</ele>
        <time>2011-07-03T07:40:27.000Z</time>
      </trkpt>
      <trkpt lat="43.73134" lon="6.95241">
        <ele>1011.200012207</ele>
        <time>2011-07-03T07:40:29.000Z</time>
      </trkpt>
      <trkpt lat="43.73129" lon="6.95239">
        <ele>1012.4000244141</ele>
        <time>2011-07-03T07:40:34.000Z</time>
      </trkpt>
      <trkpt lat="43.73129" lon="6.95238">
        <ele>1012.5999755859</ele>
        <time>2011-07-03T07:40:49.000Z</time>
      </trkpt>
      <trkpt lat="43.73128" lon="6.9524">
        <ele>1012.5999755859</ele>
        <time>2011-07-03T07:40:56.000Z</time>
      </trkpt>
      <trkpt lat="43.73121" lon="6.95244">
        <ele>1014.200012207</ele>
        <time>2011-07-03T07:41:00.000Z</time>
      </trkpt>
      <trkpt lat="43.73108" lon="6.95256">
        <ele>1016.4000244141</ele>
        <time>2011-07-03T07:41:07.000Z</time>
      </trkpt>
      <trkpt lat="43.73093" lon="6.95278">
        <ele>1017.4000244141</ele>
        <time>2011-07-03T07:41:16.000Z</time>
      </trkpt>
      <trkpt lat="43.73081" lon="6.95291">
        <ele>1018</ele>
        <time>2011-07-03T07:41:22.000Z</time>
      </trkpt>
      <trkpt lat="43.73068" lon="6.95287">
        <ele>1019</ele>
        <time>2011-07-03T07:41:27.000Z</time>
      </trkpt>
      <trkpt lat="43.73051" lon="6.95283">
        <ele>1020</ele>
        <time>2011-07-03T07:41:34.000Z</time>
      </trkpt>
      <trkpt lat="43.73034" lon="6.95273">
        <ele>1021.4000244141</ele>
        <time>2011-07-03T07:41:41.000Z</time>
      </trkpt>
      <trkpt lat="43.73017" lon="6.95266">
        <ele>1022.5999755859</ele>
        <time>2011-07-03T07:41:48.000Z</time>
      </trkpt>
      <trkpt lat="43.73002" lon="6.95267">
        <ele>1023</ele>
        <time>2011-07-03T07:41:55.000Z</time>
      </trkpt>
      <trkpt lat="43.72984" lon="6.95265">
        <ele>1024</ele>
        <time>2011-07-03T07:42:03.000Z</time>
      </trkpt>
      <trkpt lat="43.72971" lon="6.9526">
        <ele>1025.1999511719</ele>
        <time>2011-07-03T07:42:10.000Z</time>
      </trkpt>
      <trkpt lat="43.72957" lon="6.95257">
        <ele>1026.1999511719</ele>
        <time>2011-07-03T07:42:17.000Z</time>
      </trkpt>
      <trkpt lat="43.72955" lon="6.95255">
        <ele>1026.4000244141</ele>
        <time>2011-07-03T07:42:18.000Z</time>
      </trkpt>
      <trkpt lat="43.72956" lon="6.95243">
        <ele>1028.1999511719</ele>
        <time>2011-07-03T07:42:23.000Z</time>
      </trkpt>
      <trkpt lat="43.72965" lon="6.95228">
        <ele>1030</ele>
        <time>2011-07-03T07:42:30.000Z</time>
      </trkpt>
      <trkpt lat="43.72972" lon="6.95209">
        <ele>1032.4000244141</ele>
        <time>2011-07-03T07:42:38.000Z</time>
      </trkpt>
      <trkpt lat="43.72982" lon="6.95192">
        <ele>1034.1999511719</ele>
        <time>2011-07-03T07:42:46.000Z</time>
      </trkpt>
      <trkpt lat="43.72996" lon="6.95177">
        <ele>1035.5999755859</ele>
        <time>2011-07-03T07:42:55.000Z</time>
      </trkpt>
      <trkpt lat="43.72997" lon="6.95161">
        <ele>1037.5999755859</ele>
        <time>2011-07-03T07:43:01.000Z</time>
      </trkpt>
      <trkpt lat="43.7299" lon="6.95149">
        <ele>1039.4000244141</ele>
        <time>2011-07-03T07:43:07.000Z</time>
      </trkpt>
      <trkpt lat="43.72978" lon="6.95145">
        <ele>1040.5999755859</ele>
        <time>2011-07-03T07:43:14.000Z</time>
      </trkpt>
      <trkpt lat="43.72965" lon="6.95147">
        <ele>1041</ele>
        <time>2011-07-03T07:43:20.000Z</time>
      </trkpt>
      <trkpt lat="43.72951" lon="6.95143">
        <ele>1042.4000244141</ele>
        <time>2011-07-03T07:43:27.000Z</time>
      </trkpt>
      <trkpt lat="43.72938" lon="6.95137">
        <ele>1043.8000488281</ele>
        <time>2011-07-03T07:43:34.000Z</time>
      </trkpt>
      <trkpt lat="43.72924" lon="6.95136">
        <ele>1044.8000488281</ele>
        <time>2011-07-03T07:43:41.000Z</time>
      </trkpt>
      <trkpt lat="43.729" lon="6.95135">
        <ele>1046</ele>
        <time>2011-07-03T07:43:52.000Z</time>
      </trkpt>
      <trkpt lat="43.72887" lon="6.95128">
        <ele>1047.4000244141</ele>
        <time>2011-07-03T07:43:59.000Z</time>
      </trkpt>
      <trkpt lat="43.72882" lon="6.95121">
        <ele>1048.5999755859</ele>
        <time>2011-07-03T07:44:03.000Z</time>
      </trkpt>
      <trkpt lat="43.72885" lon="6.95108">
        <ele>1050</ele>
        <time>2011-07-03T07:44:09.000Z</time>
      </trkpt>
      <trkpt lat="43.72894" lon="6.95096">
        <ele>1050.8000488281</ele>
        <time>2011-07-03T07:44:16.000Z</time>
      </trkpt>
      <trkpt lat="43.72902" lon="6.95086">
        <ele>1051.5999755859</ele>
        <time>2011-07-03T07:44:22.000Z</time>
      </trkpt>
      <trkpt lat="43.72913" lon="6.95072">
        <ele>1053.1999511719</ele>
        <time>2011-07-03T07:44:31.000Z</time>
      </trkpt>
      <trkpt lat="43.72926" lon="6.95059">
        <ele>1054.5999755859</ele>
        <time>2011-07-03T07:44:40.000Z</time>
      </trkpt>
      <trkpt lat="43.72935" lon="6.95048">
        <ele>1055.8000488281</ele>
        <time>2011-07-03T07:44:47.000Z</time>
      </trkpt>
      <trkpt lat="43.72946" lon="6.95037">
        <ele>1056.4000244141</ele>
        <time>2011-07-03T07:44:54.000Z</time>
      </trkpt>
      <trkpt lat="43.72959" lon="6.95023">
        <ele>1057.1999511719</ele>
        <time>2011-07-03T07:45:02.000Z</time>
      </trkpt>
      <trkpt lat="43.72968" lon="6.95012">
        <ele>1058</ele>
        <time>2011-07-03T07:45:08.000Z</time>
      </trkpt>
      <trkpt lat="43.72976" lon="6.94996">
        <ele>1059.1999511719</ele>
        <time>2011-07-03T07:45:15.000Z</time>
      </trkpt>
      <trkpt lat="43.72983" lon="6.9498">
        <ele>1060.4000244141</ele>
        <time>2011-07-03T07:45:22.000Z</time>
      </trkpt>
      <trkpt lat="43.72992" lon="6.94961">
        <ele>1061.4000244141</ele>
        <time>2011-07-03T07:45:31.000Z</time>
      </trkpt>
      <trkpt lat="43.72994" lon="6.94956">
        <ele>1061.8000488281</ele>
        <time>2011-07-03T07:45:37.000Z</time>
      </trkpt>
      <trkpt lat="43.7299" lon="6.94953">
        <ele>1062.5999755859</ele>
        <time>2011-07-03T07:45:49.000Z</time>
      </trkpt>
      <trkpt lat="43.72992" lon="6.94953">
        <ele>1062.4000244141</ele>
        <time>2011-07-03T07:45:58.000Z</time>
      </trkpt>
      <trkpt lat="43.72992" lon="6.94952">
        <ele>1062.5999755859</ele>
        <time>2011-07-03T07:45:59.000Z</time>
      </trkpt>
      <trkpt lat="43.72993" lon="6.94939">
        <ele>1064</ele>
        <time>2011-07-03T07:46:05.000Z</time>
      </trkpt>
      <trkpt lat="43.7299" lon="6.94933">
        <ele>1065</ele>
        <time>2011-07-03T07:46:08.000Z</time>
      </trkpt>
      <trkpt lat="43.72986" lon="6.9493">
        <ele>1065.8000488281</ele>
        <time>2011-07-03T07:46:10.000Z</time>
      </trkpt>
      <trkpt lat="43.72968" lon="6.94926">
        <ele>1068.1999511719</ele>
        <time>2011-07-03T07:46:19.000Z</time>
      </trkpt>
      <trkpt lat="43.72952" lon="6.94926">
        <ele>1070</ele>
        <time>2011-07-03T07:46:27.000Z</time>
      </trkpt>
      <trkpt lat="43.72932" lon="6.94927">
        <ele>1072.1999511719</ele>
        <time>2011-07-03T07:46:37.000Z</time>
      </trkpt>
      <trkpt lat="43.72915" lon="6.94927">
        <ele>1073.8000488281</ele>
        <time>2011-07-03T07:46:45.000Z</time>
      </trkpt>
      <trkpt lat="43.729" lon="6.94923">
        <ele>1074.4000244141</ele>
        <time>2011-07-03T07:46:52.000Z</time>
      </trkpt>
      <trkpt lat="43.72884" lon="6.94921">
        <ele>1075</ele>
        <time>2011-07-03T07:47:00.000Z</time>
      </trkpt>
      <trkpt lat="43.72869" lon="6.94913">
        <ele>1075.8000488281</ele>
        <time>2011-07-03T07:47:08.000Z</time>
      </trkpt>
      <trkpt lat="43.72857" lon="6.94903">
        <ele>1076.8000488281</ele>
        <time>2011-07-03T07:47:15.000Z</time>
      </trkpt>
      <trkpt lat="43.72853" lon="6.94901">
        <ele>1077</ele>
        <time>2011-07-03T07:47:17.000Z</time>
      </trkpt>
      <trkpt lat="43.7285" lon="6.94889">
        <ele>1078</ele>
        <time>2011-07-03T07:47:22.000Z</time>
      </trkpt>
      <trkpt lat="43.72852" lon="6.94876">
        <ele>1079</ele>
        <time>2011-07-03T07:47:27.000Z</time>
      </trkpt>
      <trkpt lat="43.72858" lon="6.94856">
        <ele>1080.5999755859</ele>
        <time>2011-07-03T07:47:35.000Z</time>
      </trkpt>
      <trkpt lat="43.72857" lon="6.94854">
        <ele>1080.8000488281</ele>
        <time>2011-07-03T07:47:36.000Z</time>
      </trkpt>
      <trkpt lat="43.72848" lon="6.94841">
        <ele>1082.1999511719</ele>
        <time>2011-07-03T07:47:43.000Z</time>
      </trkpt>
      <trkpt lat="43.72837" lon="6.94825">
        <ele>1083.5999755859</ele>
        <time>2011-07-03T07:47:51.000Z</time>
      </trkpt>
      <trkpt lat="43.72833" lon="6.94806">
        <ele>1085.5999755859</ele>
        <time>2011-07-03T07:47:58.000Z</time>
      </trkpt>
      <trkpt lat="43.72838" lon="6.94791">
        <ele>1086.8000488281</ele>
        <time>2011-07-03T07:48:04.000Z</time>
      </trkpt>
      <trkpt lat="43.72836" lon="6.94774">
        <ele>1088.5999755859</ele>
        <time>2011-07-03T07:48:11.000Z</time>
      </trkpt>
      <trkpt lat="43.72831" lon="6.94755">
        <ele>1090.4000244141</ele>
        <time>2011-07-03T07:48:18.000Z</time>
      </trkpt>
      <trkpt lat="43.72823" lon="6.94737">
        <ele>1092</ele>
        <time>2011-07-03T07:48:26.000Z</time>
      </trkpt>
      <trkpt lat="43.72813" lon="6.94724">
        <ele>1093.1999511719</ele>
        <time>2011-07-03T07:48:33.000Z</time>
      </trkpt>
      <trkpt lat="43.72802" lon="6.94713">
        <ele>1094.4000244141</ele>
        <time>2011-07-03T07:48:40.000Z</time>
      </trkpt>
      <trkpt lat="43.72796" lon="6.94695">
        <ele>1095.8000488281</ele>
        <time>2011-07-03T07:48:47.000Z</time>
      </trkpt>
      <trkpt lat="43.72794" lon="6.94675">
        <ele>1097.1999511719</ele>
        <time>2011-07-03T07:48:54.000Z</time>
      </trkpt>
      <trkpt lat="43.72788" lon="6.94651">
        <ele>1099.4000244141</ele>
        <time>2011-07-03T07:49:03.000Z</time>
      </trkpt>
      <trkpt lat="43.72782" lon="6.94637">
        <ele>1100.8000488281</ele>
        <time>2011-07-03T07:49:09.000Z</time>
      </trkpt>
      <trkpt lat="43.72772" lon="6.94625">
        <ele>1102</ele>
        <time>2011-07-03T07:49:16.000Z</time>
      </trkpt>
      <trkpt lat="43.72762" lon="6.94624">
        <ele>1102.4000244141</ele>
        <time>2011-07-03T07:49:22.000Z</time>
      </trkpt>
      <trkpt lat="43.7276" lon="6.9462">
        <ele>1102.5999755859</ele>
        <time>2011-07-03T07:49:27.000Z</time>
      </trkpt>
      <trkpt lat="43.72759" lon="6.94618">
        <ele>1102.8000488281</ele>
        <time>2011-07-03T07:49:37.000Z</time>
      </trkpt>
      <trkpt lat="43.72761" lon="6.94619">
        <ele>1102.8000488281</ele>
        <time>2011-07-03T07:49:44.000Z</time>
      </trkpt>
      <trkpt lat="43.7276" lon="6.94617">
        <ele>1103</ele>
        <time>2011-07-03T07:50:14.000Z</time>
      </trkpt>
      <trkpt lat="43.72759" lon="6.94616">
        <ele>1103</ele>
        <time>2011-07-03T07:50:35.000Z</time>
      </trkpt>
      <trkpt lat="43.7276" lon="6.94616">
        <ele>1103</ele>
        <time>2011-07-03T07:50:40.000Z</time>
      </trkpt>
      <trkpt lat="43.72761" lon="6.94617">
        <ele>1102.8000488281</ele>
        <time>2011-07-03T07:50:50.000Z</time>
      </trkpt>
      <trkpt lat="43.72763" lon="6.94617">
        <ele>1102.8000488281</ele>
        <time>2011-07-03T07:51:01.000Z</time>
      </trkpt>
      <trkpt lat="43.72763" lon="6.94618">
        <ele>1102.8000488281</ele>
        <time>2011-07-03T07:51:10.000Z</time>
      </trkpt>
      <trkpt lat="43.72763" lon="6.94619">
        <ele>1102.5999755859</ele>
        <time>2011-07-03T07:51:16.000Z</time>
      </trkpt>
      <trkpt lat="43.72761" lon="6.94619">
        <ele>1102.8000488281</ele>
        <time>2011-07-03T07:51:42.000Z</time>
      </trkpt>
      <trkpt lat="43.72761" lon="6.94619">
        <ele>1102.8000488281</ele>
        <time>2011-07-03T07:51:54.000Z</time>
      </trkpt>
      <trkpt lat="43.72763" lon="6.94619">
        <ele>1102.8000488281</ele>
        <time>2011-07-03T07:52:13.000Z</time>
      </trkpt>
      <trkpt lat="43.72763" lon="6.94618">
        <ele>1102.8000488281</ele>
        <time>2011-07-03T07:52:22.000Z</time>
      </trkpt>
      <trkpt lat="43.72765" lon="6.94616">
        <ele>1103</ele>
        <time>2011-07-03T07:52:25.000Z</time>
      </trkpt>
      <trkpt lat="43.72775" lon="6.94606">
        <ele>1103.5999755859</ele>
        <time>2011-07-03T07:52:32.000Z</time>
      </trkpt>
      <trkpt lat="43.72783" lon="6.94598">
        <ele>1104.1999511719</ele>
        <time>2011-07-03T07:52:36.000Z</time>
      </trkpt>
      <trkpt lat="43.72804" lon="6.9458">
        <ele>1105.4000244141</ele>
        <time>2011-07-03T07:52:46.000Z</time>
      </trkpt>
      <trkpt lat="43.72819" lon="6.94573">
        <ele>1105.5999755859</ele>
        <time>2011-07-03T07:52:52.000Z</time>
      </trkpt>
      <trkpt lat="43.72826" lon="6.94564">
        <ele>1105.8000488281</ele>
        <time>2011-07-03T07:52:56.000Z</time>
      </trkpt>
      <trkpt lat="43.72837" lon="6.94556">
        <ele>1105.8000488281</ele>
        <time>2011-07-03T07:53:02.000Z</time>
      </trkpt>
      <trkpt lat="43.72845" lon="6.9455">
        <ele>1105.8000488281</ele>
        <time>2011-07-03T07:53:07.000Z</time>
      </trkpt>
      <trkpt lat="43.72846" lon="6.94546">
        <ele>1106</ele>
        <time>2011-07-03T07:53:12.000Z</time>
      </trkpt>
      <trkpt lat="43.72844" lon="6.94545">
        <ele>1106</ele>
        <time>2011-07-03T07:53:17.000Z</time>
      </trkpt>
      <trkpt lat="43.72843" lon="6.94545">
        <ele>1106</ele>
        <time>2011-07-03T07:53:35.000Z</time>
      </trkpt>
      <trkpt lat="43.72845" lon="6.94546">
        <ele>1106</ele>
        <time>2011-07-03T07:53:49.000Z</time>
      </trkpt>
      <trkpt lat="43.72857" lon="6.94537">
        <ele>1106</ele>
        <time>2011-07-03T07:53:55.000Z</time>
      </trkpt>
      <trkpt lat="43.72868" lon="6.94526">
        <ele>1106.1999511719</ele>
        <time>2011-07-03T07:54:00.000Z</time>
      </trkpt>
      <trkpt lat="43.72882" lon="6.94518">
        <ele>1106</ele>
        <time>2011-07-03T07:54:05.000Z</time>
      </trkpt>
      <trkpt lat="43.72903" lon="6.945">
        <ele>1106.1999511719</ele>
        <time>2011-07-03T07:54:13.000Z</time>
      </trkpt>
      <trkpt lat="43.72923" lon="6.94485">
        <ele>1106.5999755859</ele>
        <time>2011-07-03T07:54:20.000Z</time>
      </trkpt>
      <trkpt lat="43.72934" lon="6.94475">
        <ele>1107</ele>
        <time>2011-07-03T07:54:26.000Z</time>
      </trkpt>
      <trkpt lat="43.7294" lon="6.94473">
        <ele>1107</ele>
        <time>2011-07-03T07:54:31.000Z</time>
      </trkpt>
      <trkpt lat="43.72947" lon="6.94468">
        <ele>1107.1999511719</ele>
        <time>2011-07-03T07:54:36.000Z</time>
      </trkpt>
      <trkpt lat="43.72959" lon="6.94464">
        <ele>1107.5999755859</ele>
        <time>2011-07-03T07:54:41.000Z</time>
      </trkpt>
      <trkpt lat="43.72966" lon="6.94456">
        <ele>1108</ele>
        <time>2011-07-03T07:54:45.000Z</time>
      </trkpt>
      <trkpt lat="43.72976" lon="6.94455">
        <ele>1108.1999511719</ele>
        <time>2011-07-03T07:54:50.000Z</time>
      </trkpt>
      <trkpt lat="43.72981" lon="6.94457">
        <ele>1108</ele>
        <time>2011-07-03T07:54:52.000Z</time>
      </trkpt>
      <trkpt lat="43.72991" lon="6.94447">
        <ele>1109</ele>
        <time>2011-07-03T07:54:57.000Z</time>
      </trkpt>
      <trkpt lat="43.73005" lon="6.94443">
        <ele>1109.4000244141</ele>
        <time>2011-07-03T07:55:01.000Z</time>
      </trkpt>
      <trkpt lat="43.73009" lon="6.94442">
        <ele>1109.4000244141</ele>
        <time>2011-07-03T07:55:02.000Z</time>
      </trkpt>
      <trkpt lat="43.73026" lon="6.94439">
        <ele>1109.5999755859</ele>
        <time>2011-07-03T07:55:07.000Z</time>
      </trkpt>
      <trkpt lat="43.73038" lon="6.94431">
        <ele>1110.4000244141</ele>
        <time>2011-07-03T07:55:12.000Z</time>
      </trkpt>
      <trkpt lat="43.73048" lon="6.94426">
        <ele>1111</ele>
        <time>2011-07-03T07:55:17.000Z</time>
      </trkpt>
      <trkpt lat="43.73058" lon="6.94423">
        <ele>1111.1999511719</ele>
        <time>2011-07-03T07:55:22.000Z</time>
      </trkpt>
      <trkpt lat="43.73069" lon="6.94419">
        <ele>1111.5999755859</ele>
        <time>2011-07-03T07:55:28.000Z</time>
      </trkpt>
      <trkpt lat="43.73081" lon="6.94415">
        <ele>1112</ele>
        <time>2011-07-03T07:55:33.000Z</time>
      </trkpt>
      <trkpt lat="43.73085" lon="6.94413">
        <ele>1112.1999511719</ele>
        <time>2011-07-03T07:55:35.000Z</time>
      </trkpt>
      <trkpt lat="43.73089" lon="6.94412">
        <ele>1112</ele>
        <time>2011-07-03T07:55:41.000Z</time>
      </trkpt>
      <trkpt lat="43.7309" lon="6.94413">
        <ele>1111.8000488281</ele>
        <time>2011-07-03T07:56:02.000Z</time>
      </trkpt>
      <trkpt lat="43.73094" lon="6.9441">
        <ele>1112</ele>
        <time>2011-07-03T07:56:10.000Z</time>
      </trkpt>
      <trkpt lat="43.73106" lon="6.94396">
        <ele>1112.4000244141</ele>
        <time>2011-07-03T07:56:16.000Z</time>
      </trkpt>
      <trkpt lat="43.73122" lon="6.94379">
        <ele>1112.8000488281</ele>
        <time>2011-07-03T07:56:21.000Z</time>
      </trkpt>
      <trkpt lat="43.73134" lon="6.94366">
        <ele>1112.8000488281</ele>
        <time>2011-07-03T07:56:24.000Z</time>
      </trkpt>
      <trkpt lat="43.7315" lon="6.94349">
        <ele>1112.5999755859</ele>
        <time>2011-07-03T07:56:29.000Z</time>
      </trkpt>
      <trkpt lat="43.73162" lon="6.94337">
        <ele>1112.1999511719</ele>
        <time>2011-07-03T07:56:34.000Z</time>
      </trkpt>
      <trkpt lat="43.73166" lon="6.94331">
        <ele>1112</ele>
        <time>2011-07-03T07:56:37.000Z</time>
      </trkpt>
      <trkpt lat="43.73177" lon="6.94324">
        <ele>1111.4000244141</ele>
        <time>2011-07-03T07:56:41.000Z</time>
      </trkpt>
      <trkpt lat="43.73197" lon="6.94305">
        <ele>1110.4000244141</ele>
        <time>2011-07-03T07:56:48.000Z</time>
      </trkpt>
      <trkpt lat="43.7322" lon="6.9429">
        <ele>1109.4000244141</ele>
        <time>2011-07-03T07:56:55.000Z</time>
      </trkpt>
      <trkpt lat="43.73244" lon="6.9428">
        <ele>1108.4000244141</ele>
        <time>2011-07-03T07:57:02.000Z</time>
      </trkpt>
      <trkpt lat="43.7326" lon="6.94274">
        <ele>1109.1999511719</ele>
        <time>2011-07-03T07:57:08.000Z</time>
      </trkpt>
      <trkpt lat="43.7327" lon="6.94269">
        <ele>1110.1999511719</ele>
        <time>2011-07-03T07:57:13.000Z</time>
      </trkpt>
      <trkpt lat="43.7328" lon="6.94264">
        <ele>1111</ele>
        <time>2011-07-03T07:57:17.000Z</time>
      </trkpt>
      <trkpt lat="43.73288" lon="6.94249">
        <ele>1112.1999511719</ele>
        <time>2011-07-03T07:57:23.000Z</time>
      </trkpt>
      <trkpt lat="43.73287" lon="6.94247">
        <ele>1112.1999511719</ele>
        <time>2011-07-03T07:57:30.000Z</time>
      </trkpt>
      <trkpt lat="43.73286" lon="6.94248">
        <ele>1112</ele>
        <time>2011-07-03T07:57:44.000Z</time>
      </trkpt>
      <trkpt lat="43.73285" lon="6.94248">
        <ele>1112</ele>
        <time>2011-07-03T07:58:00.000Z</time>
      </trkpt>
      <trkpt lat="43.73285" lon="6.94248">
        <ele>1112</ele>
        <time>2011-07-03T07:58:10.000Z</time>
      </trkpt>
      <trkpt lat="43.73284" lon="6.94247">
        <ele>1112</ele>
        <time>2011-07-03T07:58:13.000Z</time>
      </trkpt>
      <trkpt lat="43.73284" lon="6.94247">
        <ele>1112</ele>
        <time>2011-07-03T07:59:00.000Z</time>
      </trkpt>
      <trkpt lat="43.73283" lon="6.94244">
        <ele>1112</ele>
        <time>2011-07-03T07:59:07.000Z</time>
      </trkpt>
      <trkpt lat="43.73273" lon="6.9423">
        <ele>1111.8000488281</ele>
        <time>2011-07-03T07:59:11.000Z</time>
      </trkpt>
      <trkpt lat="43.73256" lon="6.94204">
        <ele>1111.8000488281</ele>
        <time>2011-07-03T07:59:16.000Z</time>
      </trkpt>
      <trkpt lat="43.73241" lon="6.94187">
        <ele>1112.1999511719</ele>
        <time>2011-07-03T07:59:20.000Z</time>
      </trkpt>
      <trkpt lat="43.73235" lon="6.94172">
        <ele>1112.8000488281</ele>
        <time>2011-07-03T07:59:24.000Z</time>
      </trkpt>
      <trkpt lat="43.73226" lon="6.94168">
        <ele>1112.8000488281</ele>
        <time>2011-07-03T07:59:29.000Z</time>
      </trkpt>
      <trkpt lat="43.73198" lon="6.94158">
        <ele>1113.4000244141</ele>
        <time>2011-07-03T07:59:38.000Z</time>
      </trkpt>
      <trkpt lat="43.73182" lon="6.94147">
        <ele>1114.1999511719</ele>
        <time>2011-07-03T07:59:44.000Z</time>
      </trkpt>
      <trkpt lat="43.73154" lon="6.94134">
        <ele>1116.1999511719</ele>
        <time>2011-07-03T07:59:54.000Z</time>
      </trkpt>
      <trkpt lat="43.73126" lon="6.94125">
        <ele>1118.5999755859</ele>
        <time>2011-07-03T08:00:04.000Z</time>
      </trkpt>
      <trkpt lat="43.73112" lon="6.9412">
        <ele>1119.8000488281</ele>
        <time>2011-07-03T08:00:10.000Z</time>
      </trkpt>
      <trkpt lat="43.73098" lon="6.94116">
        <ele>1121</ele>
        <time>2011-07-03T08:00:16.000Z</time>
      </trkpt>
      <trkpt lat="43.73075" lon="6.94108">
        <ele>1122.8000488281</ele>
        <time>2011-07-03T08:00:26.000Z</time>
      </trkpt>
      <trkpt lat="43.73057" lon="6.94103">
        <ele>1124.1999511719</ele>
        <time>2011-07-03T08:00:35.000Z</time>
      </trkpt>
      <trkpt lat="43.73044" lon="6.94098">
        <ele>1125.1999511719</ele>
        <time>2011-07-03T08:00:43.000Z</time>
      </trkpt>
      <trkpt lat="43.73045" lon="6.94098">
        <ele>1125.1999511719</ele>
        <time>2011-07-03T08:00:54.000Z</time>
      </trkpt>
      <trkpt lat="43.73043" lon="6.94097">
        <ele>1125.4000244141</ele>
        <time>2011-07-03T08:00:58.000Z</time>
      </trkpt>
      <trkpt lat="43.73034" lon="6.9409">
        <ele>1126.4000244141</ele>
        <time>2011-07-03T08:01:02.000Z</time>
      </trkpt>
      <trkpt lat="43.73001" lon="6.9407">
        <ele>1129.4000244141</ele>
        <time>2011-07-03T08:01:13.000Z</time>
      </trkpt>
      <trkpt lat="43.72979" lon="6.94049">
        <ele>1129.4000244141</ele>
        <time>2011-07-03T08:01:22.000Z</time>
      </trkpt>
      <trkpt lat="43.72963" lon="6.94024">
        <ele>1130.4000244141</ele>
        <time>2011-07-03T08:01:32.000Z</time>
      </trkpt>
      <trkpt lat="43.72948" lon="6.94002">
        <ele>1131.8000488281</ele>
        <time>2011-07-03T08:01:42.000Z</time>
      </trkpt>
      <trkpt lat="43.72932" lon="6.93988">
        <ele>1132.1999511719</ele>
        <time>2011-07-03T08:01:50.000Z</time>
      </trkpt>
      <trkpt lat="43.72913" lon="6.93987">
        <ele>1132.1999511719</ele>
        <time>2011-07-03T08:01:57.000Z</time>
      </trkpt>
      <trkpt lat="43.72891" lon="6.93986">
        <ele>1132.4000244141</ele>
        <time>2011-07-03T08:02:05.000Z</time>
      </trkpt>
      <trkpt lat="43.72876" lon="6.93986">
        <ele>1132.8000488281</ele>
        <time>2011-07-03T08:02:10.000Z</time>
      </trkpt>
      <trkpt lat="43.72854" lon="6.93985">
        <ele>1133.1999511719</ele>
        <time>2011-07-03T08:02:17.000Z</time>
      </trkpt>
      <trkpt lat="43.72827" lon="6.93983">
        <ele>1134.1999511719</ele>
        <time>2011-07-03T08:02:26.000Z</time>
      </trkpt>
      <trkpt lat="43.72813" lon="6.93981">
        <ele>1135.4000244141</ele>
        <time>2011-07-03T08:02:32.000Z</time>
      </trkpt>
      <trkpt lat="43.72803" lon="6.93982">
        <ele>1136.4000244141</ele>
        <time>2011-07-03T08:02:37.000Z</time>
      </trkpt>
      <trkpt lat="43.72787" lon="6.93983">
        <ele>1137.8000488281</ele>
        <time>2011-07-03T08:02:44.000Z</time>
      </trkpt>
      <trkpt lat="43.72774" lon="6.93982">
        <ele>1139</ele>
        <time>2011-07-03T08:02:50.000Z</time>
      </trkpt>
      <trkpt lat="43.72749" lon="6.93977">
        <ele>1141.1999511719</ele>
        <time>2011-07-03T08:03:01.000Z</time>
      </trkpt>
      <trkpt lat="43.72726" lon="6.93971">
        <ele>1144.1999511719</ele>
        <time>2011-07-03T08:03:11.000Z</time>
      </trkpt>
      <trkpt lat="43.72706" lon="6.93965">
        <ele>1146.5999755859</ele>
        <time>2011-07-03T08:03:20.000Z</time>
      </trkpt>
      <trkpt lat="43.72685" lon="6.9396">
        <ele>1148.8000488281</ele>
        <time>2011-07-03T08:03:29.000Z</time>
      </trkpt>
      <trkpt lat="43.72663" lon="6.93955">
        <ele>1151.4000244141</ele>
        <time>2011-07-03T08:03:39.000Z</time>
      </trkpt>
      <trkpt lat="43.72638" lon="6.9395">
        <ele>1154.8000488281</ele>
        <time>2011-07-03T08:03:50.000Z</time>
      </trkpt>
      <trkpt lat="43.72616" lon="6.93946">
        <ele>1157.8000488281</ele>
        <time>2011-07-03T08:04:00.000Z</time>
      </trkpt>
      <trkpt lat="43.72593" lon="6.93942">
        <ele>1161</ele>
        <time>2011-07-03T08:04:11.000Z</time>
      </trkpt>
      <trkpt lat="43.7257" lon="6.93937">
        <ele>1164</ele>
        <time>2011-07-03T08:04:22.000Z</time>
      </trkpt>
      <trkpt lat="43.72544" lon="6.93932">
        <ele>1167.1999511719</ele>
        <time>2011-07-03T08:04:35.000Z</time>
      </trkpt>
      <trkpt lat="43.72525" lon="6.93929">
        <ele>1169.8000488281</ele>
        <time>2011-07-03T08:04:45.000Z</time>
      </trkpt>
      <trkpt lat="43.72508" lon="6.93923">
        <ele>1172</ele>
        <time>2011-07-03T08:04:54.000Z</time>
      </trkpt>
      <trkpt lat="43.72492" lon="6.93913">
        <ele>1174</ele>
        <time>2011-07-03T08:05:03.000Z</time>
      </trkpt>
      <trkpt lat="43.72481" lon="6.93901">
        <ele>1174.8000488281</ele>
        <time>2011-07-03T08:05:10.000Z</time>
      </trkpt>
      <trkpt lat="43.7246" lon="6.9388">
        <ele>1177</ele>
        <time>2011-07-03T08:05:21.000Z</time>
      </trkpt>
      <trkpt lat="43.72444" lon="6.93863">
        <ele>1178.5999755859</ele>
        <time>2011-07-03T08:05:29.000Z</time>
      </trkpt>
      <trkpt lat="43.72428" lon="6.9384">
        <ele>1180.1999511719</ele>
        <time>2011-07-03T08:05:38.000Z</time>
      </trkpt>
      <trkpt lat="43.72408" lon="6.93822">
        <ele>1182.5999755859</ele>
        <time>2011-07-03T08:05:48.000Z</time>
      </trkpt>
      <trkpt lat="43.7239" lon="6.93808">
        <ele>1185</ele>
        <time>2011-07-03T08:05:57.000Z</time>
      </trkpt>
      <trkpt lat="43.72371" lon="6.93797">
        <ele>1187.1999511719</ele>
        <time>2011-07-03T08:06:06.000Z</time>
      </trkpt>
      <trkpt lat="43.72353" lon="6.93787">
        <ele>1189.5999755859</ele>
        <time>2011-07-03T08:06:15.000Z</time>
      </trkpt>
      <trkpt lat="43.72338" lon="6.93781">
        <ele>1191.8000488281</ele>
        <time>2011-07-03T08:06:23.000Z</time>
      </trkpt>
      <trkpt lat="43.72319" lon="6.93782">
        <ele>1194.1999511719</ele>
        <time>2011-07-03T08:06:32.000Z</time>
      </trkpt>
      <trkpt lat="43.72301" lon="6.93788">
        <ele>1196.5999755859</ele>
        <time>2011-07-03T08:06:41.000Z</time>
      </trkpt>
      <trkpt lat="43.72287" lon="6.93797">
        <ele>1198.8000488281</ele>
        <time>2011-07-03T08:06:50.000Z</time>
      </trkpt>
      <trkpt lat="43.72277" lon="6.93807">
        <ele>1200.5999755859</ele>
        <time>2011-07-03T08:06:56.000Z</time>
      </trkpt>
      <trkpt lat="43.72269" lon="6.93818">
        <ele>1202.4000244141</ele>
        <time>2011-07-03T08:07:03.000Z</time>
      </trkpt>
      <trkpt lat="43.72256" lon="6.93831">
        <ele>1205</ele>
        <time>2011-07-03T08:07:12.000Z</time>
      </trkpt>
      <trkpt lat="43.72241" lon="6.93837">
        <ele>1206.4000244141</ele>
        <time>2011-07-03T08:07:20.000Z</time>
      </trkpt>
      <trkpt lat="43.72223" lon="6.93846">
        <ele>1207.4000244141</ele>
        <time>2011-07-03T08:07:30.000Z</time>
      </trkpt>
      <trkpt lat="43.72205" lon="6.93848">
        <ele>1208.5999755859</ele>
        <time>2011-07-03T08:07:39.000Z</time>
      </trkpt>
      <trkpt lat="43.72185" lon="6.93844">
        <ele>1210.4000244141</ele>
        <time>2011-07-03T08:07:49.000Z</time>
      </trkpt>
      <trkpt lat="43.72165" lon="6.93834">
        <ele>1213</ele>
        <time>2011-07-03T08:08:00.000Z</time>
      </trkpt>
      <trkpt lat="43.72151" lon="6.9382">
        <ele>1214.4000244141</ele>
        <time>2011-07-03T08:08:09.000Z</time>
      </trkpt>
      <trkpt lat="43.72144" lon="6.93809">
        <ele>1215.5999755859</ele>
        <time>2011-07-03T08:08:16.000Z</time>
      </trkpt>
      <trkpt lat="43.72136" lon="6.93802">
        <ele>1216.5999755859</ele>
        <time>2011-07-03T08:08:22.000Z</time>
      </trkpt>
      <trkpt lat="43.72126" lon="6.9379">
        <ele>1218.1999511719</ele>
        <time>2011-07-03T08:08:31.000Z</time>
      </trkpt>
      <trkpt lat="43.72116" lon="6.93778">
        <ele>1219.8000488281</ele>
        <time>2011-07-03T08:08:40.000Z</time>
      </trkpt>
      <trkpt lat="43.72111" lon="6.93769">
        <ele>1221</ele>
        <time>2011-07-03T08:08:46.000Z</time>
      </trkpt>
      <trkpt lat="43.72095" lon="6.93755">
        <ele>1224</ele>
        <time>2011-07-03T08:08:58.000Z</time>
      </trkpt>
      <trkpt lat="43.72085" lon="6.93744">
        <ele>1226.4000244141</ele>
        <time>2011-07-03T08:09:07.000Z</time>
      </trkpt>
      <trkpt lat="43.72075" lon="6.93734">
        <ele>1229</ele>
        <time>2011-07-03T08:09:16.000Z</time>
      </trkpt>
      <trkpt lat="43.72067" lon="6.93725">
        <ele>1231.1999511719</ele>
        <time>2011-07-03T08:09:23.000Z</time>
      </trkpt>
      <trkpt lat="43.72057" lon="6.93716">
        <ele>1233.4000244141</ele>
        <time>2011-07-03T08:09:31.000Z</time>
      </trkpt>
      <trkpt lat="43.72046" lon="6.93706">
        <ele>1236</ele>
        <time>2011-07-03T08:09:40.000Z</time>
      </trkpt>
      <trkpt lat="43.72036" lon="6.93697">
        <ele>1238.1999511719</ele>
        <time>2011-07-03T08:09:48.000Z</time>
      </trkpt>
      <trkpt lat="43.72027" lon="6.93688">
        <ele>1240.4000244141</ele>
        <time>2011-07-03T08:09:56.000Z</time>
      </trkpt>
      <trkpt lat="43.72019" lon="6.93681">
        <ele>1242.1999511719</ele>
        <time>2011-07-03T08:10:03.000Z</time>
      </trkpt>
      <trkpt lat="43.72012" lon="6.93673">
        <ele>1243.8000488281</ele>
        <time>2011-07-03T08:10:10.000Z</time>
      </trkpt>
      <trkpt lat="43.72005" lon="6.93664">
        <ele>1245.4000244141</ele>
        <time>2011-07-03T08:10:17.000Z</time>
      </trkpt>
      <trkpt lat="43.71994" lon="6.93652">
        <ele>1247.1999511719</ele>
        <time>2011-07-03T08:10:27.000Z</time>
      </trkpt>
      <trkpt lat="43.71988" lon="6.93648">
        <ele>1247.8000488281</ele>
        <time>2011-07-03T08:10:31.000Z</time>
      </trkpt>
      <trkpt lat="43.71981" lon="6.93641">
        <ele>1248.5999755859</ele>
        <time>2011-07-03T08:10:37.000Z</time>
      </trkpt>
      <trkpt lat="43.71968" lon="6.93629">
        <ele>1250.1999511719</ele>
        <time>2011-07-03T08:10:47.000Z</time>
      </trkpt>
      <trkpt lat="43.71956" lon="6.93616">
        <ele>1252</ele>
        <time>2011-07-03T08:10:57.000Z</time>
      </trkpt>
      <trkpt lat="43.71945" lon="6.93602">
        <ele>1253.5999755859</ele>
        <time>2011-07-03T08:11:07.000Z</time>
      </trkpt>
      <trkpt lat="43.71935" lon="6.93587">
        <ele>1255.1999511719</ele>
        <time>2011-07-03T08:11:17.000Z</time>
      </trkpt>
      <trkpt lat="43.71927" lon="6.93575">
        <ele>1257.1999511719</ele>
        <time>2011-07-03T08:11:26.000Z</time>
      </trkpt>
      <trkpt lat="43.71918" lon="6.93564">
        <ele>1259.1999511719</ele>
        <time>2011-07-03T08:11:35.000Z</time>
      </trkpt>
      <trkpt lat="43.71908" lon="6.93551">
        <ele>1260.1999511719</ele>
        <time>2011-07-03T08:11:45.000Z</time>
      </trkpt>
      <trkpt lat="43.719" lon="6.93538">
        <ele>1261.1999511719</ele>
        <time>2011-07-03T08:11:54.000Z</time>
      </trkpt>
      <trkpt lat="43.71895" lon="6.93531">
        <ele>1261.8000488281</ele>
        <time>2011-07-03T08:12:00.000Z</time>
      </trkpt>
      <trkpt lat="43.71892" lon="6.93525">
        <ele>1262.4000244141</ele>
        <time>2011-07-03T08:12:06.000Z</time>
      </trkpt>
      <trkpt lat="43.71892" lon="6.93525">
        <ele>1262.4000244141</ele>
        <time>2011-07-03T08:12:15.000Z</time>
      </trkpt>
      <trkpt lat="43.71894" lon="6.93522">
        <ele>1262.8000488281</ele>
        <time>2011-07-03T08:13:22.000Z</time>
      </trkpt>
      <trkpt lat="43.71893" lon="6.93522">
        <ele>1262.8000488281</ele>
        <time>2011-07-03T08:14:04.000Z</time>
      </trkpt>
      <trkpt lat="43.71893" lon="6.93523">
        <ele>1262.5999755859</ele>
        <time>2011-07-03T08:14:32.000Z</time>
      </trkpt>
      <trkpt lat="43.71893" lon="6.93524">
        <ele>1262.5999755859</ele>
        <time>2011-07-03T08:14:44.000Z</time>
      </trkpt>
      <trkpt lat="43.71892" lon="6.93524">
        <ele>1262.4000244141</ele>
        <time>2011-07-03T08:14:59.000Z</time>
      </trkpt>
      <trkpt lat="43.71892" lon="6.93525">
        <ele>1262.4000244141</ele>
        <time>2011-07-03T08:15:11.000Z</time>
      </trkpt>
      <trkpt lat="43.7189" lon="6.93524">
        <ele>1262.4000244141</ele>
        <time>2011-07-03T08:15:18.000Z</time>
      </trkpt>
      <trkpt lat="43.71881" lon="6.9351">
        <ele>1263.4000244141</ele>
        <time>2011-07-03T08:15:24.000Z</time>
      </trkpt>
      <trkpt lat="43.71873" lon="6.93499">
        <ele>1264.4000244141</ele>
        <time>2011-07-03T08:15:30.000Z</time>
      </trkpt>
      <trkpt lat="43.71861" lon="6.93479">
        <ele>1264.8000488281</ele>
        <time>2011-07-03T08:15:39.000Z</time>
      </trkpt>
      <trkpt lat="43.7185" lon="6.93459">
        <ele>1265.4000244141</ele>
        <time>2011-07-03T08:15:47.000Z</time>
      </trkpt>
      <trkpt lat="43.71843" lon="6.93448">
        <ele>1266</ele>
        <time>2011-07-03T08:15:52.000Z</time>
      </trkpt>
      <trkpt lat="43.71827" lon="6.93419">
        <ele>1268</ele>
        <time>2011-07-03T08:16:01.000Z</time>
      </trkpt>
      <trkpt lat="43.71811" lon="6.93386">
        <ele>1269</ele>
        <time>2011-07-03T08:16:08.000Z</time>
      </trkpt>
      <trkpt lat="43.71799" lon="6.93363">
        <ele>1270.4000244141</ele>
        <time>2011-07-03T08:16:14.000Z</time>
      </trkpt>
      <trkpt lat="43.71787" lon="6.93351">
        <ele>1271.8000488281</ele>
        <time>2011-07-03T08:16:19.000Z</time>
      </trkpt>
      <trkpt lat="43.71765" lon="6.93339">
        <ele>1274.8000488281</ele>
        <time>2011-07-03T08:16:28.000Z</time>
      </trkpt>
      <trkpt lat="43.71744" lon="6.93348">
        <ele>1276.8000488281</ele>
        <time>2011-07-03T08:16:36.000Z</time>
      </trkpt>
      <trkpt lat="43.71723" lon="6.93359">
        <ele>1279.4000244141</ele>
        <time>2011-07-03T08:16:45.000Z</time>
      </trkpt>
      <trkpt lat="43.71706" lon="6.93364">
        <ele>1281.5999755859</ele>
        <time>2011-07-03T08:16:52.000Z</time>
      </trkpt>
      <trkpt lat="43.71695" lon="6.93365">
        <ele>1283.4000244141</ele>
        <time>2011-07-03T08:16:58.000Z</time>
      </trkpt>
      <trkpt lat="43.71678" lon="6.93362">
        <ele>1286.4000244141</ele>
        <time>2011-07-03T08:17:08.000Z</time>
      </trkpt>
      <trkpt lat="43.71666" lon="6.93355">
        <ele>1288.8000488281</ele>
        <time>2011-07-03T08:17:16.000Z</time>
      </trkpt>
      <trkpt lat="43.71651" lon="6.93346">
        <ele>1289.4000244141</ele>
        <time>2011-07-03T08:17:26.000Z</time>
      </trkpt>
      <trkpt lat="43.71637" lon="6.93334">
        <ele>1290.4000244141</ele>
        <time>2011-07-03T08:17:36.000Z</time>
      </trkpt>
      <trkpt lat="43.71625" lon="6.93318">
        <ele>1292.5999755859</ele>
        <time>2011-07-03T08:17:46.000Z</time>
      </trkpt>
      <trkpt lat="43.71616" lon="6.93303">
        <ele>1295</ele>
        <time>2011-07-03T08:17:55.000Z</time>
      </trkpt>
      <trkpt lat="43.71608" lon="6.93283">
        <ele>1298.8000488281</ele>
        <time>2011-07-03T08:18:05.000Z</time>
      </trkpt>
      <trkpt lat="43.71603" lon="6.9326">
        <ele>1303</ele>
        <time>2011-07-03T08:18:16.000Z</time>
      </trkpt>
      <trkpt lat="43.71601" lon="6.93237">
        <ele>1306.8000488281</ele>
        <time>2011-07-03T08:18:27.000Z</time>
      </trkpt>
      <trkpt lat="43.71603" lon="6.93215">
        <ele>1309.8000488281</ele>
        <time>2011-07-03T08:18:38.000Z</time>
      </trkpt>
      <trkpt lat="43.71603" lon="6.93198">
        <ele>1312.1999511719</ele>
        <time>2011-07-03T08:18:46.000Z</time>
      </trkpt>
      <trkpt lat="43.71605" lon="6.93185">
        <ele>1313.8000488281</ele>
        <time>2011-07-03T08:18:52.000Z</time>
      </trkpt>
      <trkpt lat="43.71606" lon="6.93165">
        <ele>1316.5999755859</ele>
        <time>2011-07-03T08:19:01.000Z</time>
      </trkpt>
      <trkpt lat="43.71604" lon="6.93143">
        <ele>1318.8000488281</ele>
        <time>2011-07-03T08:19:11.000Z</time>
      </trkpt>
      <trkpt lat="43.71603" lon="6.93124">
        <ele>1321</ele>
        <time>2011-07-03T08:19:20.000Z</time>
      </trkpt>
      <trkpt lat="43.71599" lon="6.93108">
        <ele>1323.4000244141</ele>
        <time>2011-07-03T08:19:28.000Z</time>
      </trkpt>
      <trkpt lat="43.71593" lon="6.93093">
        <ele>1326</ele>
        <time>2011-07-03T08:19:36.000Z</time>
      </trkpt>
      <trkpt lat="43.7159" lon="6.93079">
        <ele>1327.5999755859</ele>
        <time>2011-07-03T08:19:43.000Z</time>
      </trkpt>
      <trkpt lat="43.71586" lon="6.93061">
        <ele>1329.1999511719</ele>
        <time>2011-07-03T08:19:51.000Z</time>
      </trkpt>
      <trkpt lat="43.71584" lon="6.93057">
        <ele>1329.5999755859</ele>
        <time>2011-07-03T08:19:53.000Z</time>
      </trkpt>
      <trkpt lat="43.71573" lon="6.93049">
        <ele>1329</ele>
        <time>2011-07-03T08:20:01.000Z</time>
      </trkpt>
      <trkpt lat="43.71565" lon="6.93054">
        <ele>1328</ele>
        <time>2011-07-03T08:20:07.000Z</time>
      </trkpt>
      <trkpt lat="43.71564" lon="6.93056">
        <ele>1328</ele>
        <time>2011-07-03T08:20:08.000Z</time>
      </trkpt>
      <trkpt lat="43.71562" lon="6.93069">
        <ele>1327.5999755859</ele>
        <time>2011-07-03T08:20:15.000Z</time>
      </trkpt>
      <trkpt lat="43.71556" lon="6.93086">
        <ele>1327</ele>
        <time>2011-07-03T08:20:22.000Z</time>
      </trkpt>
      <trkpt lat="43.71549" lon="6.93091">
        <ele>1326</ele>
        <time>2011-07-03T08:20:26.000Z</time>
      </trkpt>
      <trkpt lat="43.71545" lon="6.93094">
        <ele>1325.4000244141</ele>
        <time>2011-07-03T08:20:29.000Z</time>
      </trkpt>
      <trkpt lat="43.71628" lon="6.93116">
        <ele>1317.1999511719</ele>
        <time>2011-07-03T08:33:32.000Z</time>
      </trkpt>
      <trkpt lat="43.71633" lon="6.93121">
        <ele>1315.8000488281</ele>
        <time>2011-07-03T08:33:36.000Z</time>
      </trkpt>
      <trkpt lat="43.71635" lon="6.93123">
        <ele>1315.1999511719</ele>
        <time>2011-07-03T08:33:37.000Z</time>
      </trkpt>
      <trkpt lat="43.71648" lon="6.93139">
        <ele>1311.8000488281</ele>
        <time>2011-07-03T08:33:42.000Z</time>
      </trkpt>
      <trkpt lat="43.71663" lon="6.93162">
        <ele>1307.8000488281</ele>
        <time>2011-07-03T08:33:47.000Z</time>
      </trkpt>
      <trkpt lat="43.7168" lon="6.93182">
        <ele>1301.8000488281</ele>
        <time>2011-07-03T08:33:52.000Z</time>
      </trkpt>
      <trkpt lat="43.71683" lon="6.93185">
        <ele>1300.5999755859</ele>
        <time>2011-07-03T08:33:53.000Z</time>
      </trkpt>
      <trkpt lat="43.71695" lon="6.93205">
        <ele>1296</ele>
        <time>2011-07-03T08:33:57.000Z</time>
      </trkpt>
      <trkpt lat="43.71708" lon="6.9322">
        <ele>1292</ele>
        <time>2011-07-03T08:34:02.000Z</time>
      </trkpt>
      <trkpt lat="43.71716" lon="6.93223">
        <ele>1290</ele>
        <time>2011-07-03T08:34:07.000Z</time>
      </trkpt>
      <trkpt lat="43.71714" lon="6.93221">
        <ele>1290.5999755859</ele>
        <time>2011-07-03T08:34:12.000Z</time>
      </trkpt>
      <trkpt lat="43.7171" lon="6.93218">
        <ele>1291.8000488281</ele>
        <time>2011-07-03T08:34:16.000Z</time>
      </trkpt>
      <trkpt lat="43.71708" lon="6.93218">
        <ele>1292</ele>
        <time>2011-07-03T08:34:23.000Z</time>
      </trkpt>
      <trkpt lat="43.71708" lon="6.93221">
        <ele>1291.8000488281</ele>
        <time>2011-07-03T08:34:25.000Z</time>
      </trkpt>
      <trkpt lat="43.71713" lon="6.93233">
        <ele>1290</ele>
        <time>2011-07-03T08:34:31.000Z</time>
      </trkpt>
      <trkpt lat="43.71728" lon="6.93242">
        <ele>1286.4000244141</ele>
        <time>2011-07-03T08:34:38.000Z</time>
      </trkpt>
      <trkpt lat="43.71735" lon="6.93246">
        <ele>1285</ele>
        <time>2011-07-03T08:34:42.000Z</time>
      </trkpt>
      <trkpt lat="43.71739" lon="6.9325">
        <ele>1284</ele>
        <time>2011-07-03T08:34:47.000Z</time>
      </trkpt>
      <trkpt lat="43.71749" lon="6.93269">
        <ele>1281</ele>
        <time>2011-07-03T08:34:51.000Z</time>
      </trkpt>
      <trkpt lat="43.71758" lon="6.93284">
        <ele>1278.4000244141</ele>
        <time>2011-07-03T08:34:54.000Z</time>
      </trkpt>
      <trkpt lat="43.71773" lon="6.93304">
        <ele>1275</ele>
        <time>2011-07-03T08:34:58.000Z</time>
      </trkpt>
      <trkpt lat="43.71776" lon="6.93309">
        <ele>1274.4000244141</ele>
        <time>2011-07-03T08:34:59.000Z</time>
      </trkpt>
      <trkpt lat="43.71786" lon="6.93329">
        <ele>1272.5999755859</ele>
        <time>2011-07-03T08:35:02.000Z</time>
      </trkpt>
      <trkpt lat="43.71792" lon="6.93346">
        <ele>1271.4000244141</ele>
        <time>2011-07-03T08:35:06.000Z</time>
      </trkpt>
      <trkpt lat="43.71793" lon="6.93351">
        <ele>1271.1999511719</ele>
        <time>2011-07-03T08:35:11.000Z</time>
      </trkpt>
      <trkpt lat="43.71792" lon="6.93355">
        <ele>1271.1999511719</ele>
        <time>2011-07-03T08:35:17.000Z</time>
      </trkpt>
      <trkpt lat="43.71796" lon="6.9336">
        <ele>1270.8000488281</ele>
        <time>2011-07-03T08:35:21.000Z</time>
      </trkpt>
      <trkpt lat="43.71797" lon="6.9338">
        <ele>1270</ele>
        <time>2011-07-03T08:35:27.000Z</time>
      </trkpt>
      <trkpt lat="43.71794" lon="6.93393">
        <ele>1270</ele>
        <time>2011-07-03T08:35:30.000Z</time>
      </trkpt>
      <trkpt lat="43.71797" lon="6.9341">
        <ele>1269.4000244141</ele>
        <time>2011-07-03T08:35:34.000Z</time>
      </trkpt>
      <trkpt lat="43.71792" lon="6.93419">
        <ele>1269.1999511719</ele>
        <time>2011-07-03T08:35:38.000Z</time>
      </trkpt>
      <trkpt lat="43.71787" lon="6.93429">
        <ele>1268.8000488281</ele>
        <time>2011-07-03T08:35:41.000Z</time>
      </trkpt>
      <trkpt lat="43.71786" lon="6.93432">
        <ele>1268.5999755859</ele>
        <time>2011-07-03T08:35:47.000Z</time>
      </trkpt>
      <trkpt lat="43.71786" lon="6.93427">
        <ele>1269</ele>
        <time>2011-07-03T08:35:54.000Z</time>
      </trkpt>
      <trkpt lat="43.71785" lon="6.9343">
        <ele>1268.8000488281</ele>
        <time>2011-07-03T08:36:00.000Z</time>
      </trkpt>
      <trkpt lat="43.71785" lon="6.9343">
        <ele>1268.8000488281</ele>
        <time>2011-07-03T08:36:07.000Z</time>
      </trkpt>
      <trkpt lat="43.71785" lon="6.93431">
        <ele>1268.5999755859</ele>
        <time>2011-07-03T08:36:09.000Z</time>
      </trkpt>
      <trkpt lat="43.7178" lon="6.93451">
        <ele>1267.5999755859</ele>
        <time>2011-07-03T08:36:16.000Z</time>
      </trkpt>
      <trkpt lat="43.71776" lon="6.93471">
        <ele>1266.5999755859</ele>
        <time>2011-07-03T08:36:20.000Z</time>
      </trkpt>
      <trkpt lat="43.7178" lon="6.93497">
        <ele>1264.5999755859</ele>
        <time>2011-07-03T08:36:25.000Z</time>
      </trkpt>
      <trkpt lat="43.71776" lon="6.93514">
        <ele>1263</ele>
        <time>2011-07-03T08:36:28.000Z</time>
      </trkpt>
      <trkpt lat="43.7176" lon="6.93531">
        <ele>1261.5999755859</ele>
        <time>2011-07-03T08:36:32.000Z</time>
      </trkpt>
      <trkpt lat="43.7175" lon="6.93539">
        <ele>1261.1999511719</ele>
        <time>2011-07-03T08:36:35.000Z</time>
      </trkpt>
      <trkpt lat="43.71749" lon="6.93541">
        <ele>1261</ele>
        <time>2011-07-03T08:36:41.000Z</time>
      </trkpt>
      <trkpt lat="43.71749" lon="6.93543">
        <ele>1260.8000488281</ele>
        <time>2011-07-03T08:36:52.000Z</time>
      </trkpt>
      <trkpt lat="43.71749" lon="6.93542">
        <ele>1261</ele>
        <time>2011-07-03T08:37:20.000Z</time>
      </trkpt>
      <trkpt lat="43.71747" lon="6.93552">
        <ele>1259.8000488281</ele>
        <time>2011-07-03T08:37:32.000Z</time>
      </trkpt>
      <trkpt lat="43.71746" lon="6.9357">
        <ele>1257.5999755859</ele>
        <time>2011-07-03T08:37:36.000Z</time>
      </trkpt>
      <trkpt lat="43.71748" lon="6.93571">
        <ele>1257.4000244141</ele>
        <time>2011-07-03T08:37:40.000Z</time>
      </trkpt>
      <trkpt lat="43.71754" lon="6.9358">
        <ele>1256</ele>
        <time>2011-07-03T08:37:45.000Z</time>
      </trkpt>
      <trkpt lat="43.7176" lon="6.93585">
        <ele>1255</ele>
        <time>2011-07-03T08:37:50.000Z</time>
      </trkpt>
      <trkpt lat="43.71762" lon="6.93588">
        <ele>1254.4000244141</ele>
        <time>2011-07-03T08:37:54.000Z</time>
      </trkpt>
      <trkpt lat="43.71771" lon="6.93603">
        <ele>1251.4000244141</ele>
        <time>2011-07-03T08:37:59.000Z</time>
      </trkpt>
      <trkpt lat="43.71788" lon="6.93604">
        <ele>1250.8000488281</ele>
        <time>2011-07-03T08:38:04.000Z</time>
      </trkpt>
      <trkpt lat="43.71796" lon="6.93608">
        <ele>1250</ele>
        <time>2011-07-03T08:38:07.000Z</time>
      </trkpt>
      <trkpt lat="43.71806" lon="6.93626">
        <ele>1248</ele>
        <time>2011-07-03T08:38:12.000Z</time>
      </trkpt>
      <trkpt lat="43.7182" lon="6.93637">
        <ele>1247.1999511719</ele>
        <time>2011-07-03T08:38:16.000Z</time>
      </trkpt>
      <trkpt lat="43.7183" lon="6.93641">
        <ele>1247.1999511719</ele>
        <time>2011-07-03T08:38:19.000Z</time>
      </trkpt>
      <trkpt lat="43.71832" lon="6.93644">
        <ele>1247.1999511719</ele>
        <time>2011-07-03T08:38:20.000Z</time>
      </trkpt>
      <trkpt lat="43.71834" lon="6.93647">
        <ele>1247.1999511719</ele>
        <time>2011-07-03T08:38:25.000Z</time>
      </trkpt>
      <trkpt lat="43.71835" lon="6.9365">
        <ele>1247</ele>
        <time>2011-07-03T08:38:32.000Z</time>
      </trkpt>
      <trkpt lat="43.71838" lon="6.93668">
        <ele>1246</ele>
        <time>2011-07-03T08:38:37.000Z</time>
      </trkpt>
      <trkpt lat="43.71847" lon="6.93676">
        <ele>1244.8000488281</ele>
        <time>2011-07-03T08:38:41.000Z</time>
      </trkpt>
      <trkpt lat="43.71851" lon="6.93683">
        <ele>1243.4000244141</ele>
        <time>2011-07-03T08:38:43.000Z</time>
      </trkpt>
      <trkpt lat="43.71859" lon="6.93698">
        <ele>1241.1999511719</ele>
        <time>2011-07-03T08:38:49.000Z</time>
      </trkpt>
      <trkpt lat="43.7187" lon="6.9371">
        <ele>1239.8000488281</ele>
        <time>2011-07-03T08:38:54.000Z</time>
      </trkpt>
      <trkpt lat="43.71885" lon="6.93736">
        <ele>1236.8000488281</ele>
        <time>2011-07-03T08:38:59.000Z</time>
      </trkpt>
      <trkpt lat="43.71888" lon="6.93743">
        <ele>1235.8000488281</ele>
        <time>2011-07-03T08:39:00.000Z</time>
      </trkpt>
      <trkpt lat="43.71903" lon="6.93768">
        <ele>1231</ele>
        <time>2011-07-03T08:39:04.000Z</time>
      </trkpt>
      <trkpt lat="43.71912" lon="6.93775">
        <ele>1230.5999755859</ele>
        <time>2011-07-03T08:39:06.000Z</time>
      </trkpt>
      <trkpt lat="43.7194" lon="6.93794">
        <ele>1226.8000488281</ele>
        <time>2011-07-03T08:39:12.000Z</time>
      </trkpt>
      <trkpt lat="43.71948" lon="6.93803">
        <ele>1224.8000488281</ele>
        <time>2011-07-03T08:39:14.000Z</time>
      </trkpt>
      <trkpt lat="43.71965" lon="6.93818">
        <ele>1222.1999511719</ele>
        <time>2011-07-03T08:39:18.000Z</time>
      </trkpt>
      <trkpt lat="43.71975" lon="6.93822">
        <ele>1222</ele>
        <time>2011-07-03T08:39:20.000Z</time>
      </trkpt>
      <trkpt lat="43.71983" lon="6.93838">
        <ele>1218.8000488281</ele>
        <time>2011-07-03T08:39:24.000Z</time>
      </trkpt>
      <trkpt lat="43.71994" lon="6.93849">
        <ele>1216.4000244141</ele>
        <time>2011-07-03T08:39:28.000Z</time>
      </trkpt>
      <trkpt lat="43.72012" lon="6.93863">
        <ele>1213.4000244141</ele>
        <time>2011-07-03T08:39:32.000Z</time>
      </trkpt>
      <trkpt lat="43.72029" lon="6.93885">
        <ele>1208.4000244141</ele>
        <time>2011-07-03T08:39:36.000Z</time>
      </trkpt>
      <trkpt lat="43.72054" lon="6.93909">
        <ele>1205.5999755859</ele>
        <time>2011-07-03T08:39:41.000Z</time>
      </trkpt>
      <trkpt lat="43.72061" lon="6.93913">
        <ele>1205.5999755859</ele>
        <time>2011-07-03T08:39:42.000Z</time>
      </trkpt>
      <trkpt lat="43.72084" lon="6.93931">
        <ele>1204</ele>
        <time>2011-07-03T08:39:46.000Z</time>
      </trkpt>
      <trkpt lat="43.72113" lon="6.93956">
        <ele>1197.5999755859</ele>
        <time>2011-07-03T08:39:52.000Z</time>
      </trkpt>
      <trkpt lat="43.72132" lon="6.93974">
        <ele>1194.5999755859</ele>
        <time>2011-07-03T08:39:55.000Z</time>
      </trkpt>
      <trkpt lat="43.72153" lon="6.93999">
        <ele>1191.5999755859</ele>
        <time>2011-07-03T08:39:59.000Z</time>
      </trkpt>
      <trkpt lat="43.72161" lon="6.94027">
        <ele>1189</ele>
        <time>2011-07-03T08:40:03.000Z</time>
      </trkpt>
      <trkpt lat="43.72161" lon="6.94035">
        <ele>1188</ele>
        <time>2011-07-03T08:40:04.000Z</time>
      </trkpt>
      <trkpt lat="43.72163" lon="6.94082">
        <ele>1183</ele>
        <time>2011-07-03T08:40:09.000Z</time>
      </trkpt>
      <trkpt lat="43.7217" lon="6.94107">
        <ele>1179.8000488281</ele>
        <time>2011-07-03T08:40:12.000Z</time>
      </trkpt>
      <trkpt lat="43.72185" lon="6.94143">
        <ele>1174.8000488281</ele>
        <time>2011-07-03T08:40:17.000Z</time>
      </trkpt>
      <trkpt lat="43.72196" lon="6.94153">
        <ele>1174.4000244141</ele>
        <time>2011-07-03T08:40:20.000Z</time>
      </trkpt>
      <trkpt lat="43.72203" lon="6.94166">
        <ele>1173.4000244141</ele>
        <time>2011-07-03T08:40:23.000Z</time>
      </trkpt>
      <trkpt lat="43.72222" lon="6.94202">
        <ele>1170</ele>
        <time>2011-07-03T08:40:29.000Z</time>
      </trkpt>
      <trkpt lat="43.72233" lon="6.94213">
        <ele>1170.5999755859</ele>
        <time>2011-07-03T08:40:32.000Z</time>
      </trkpt>
      <trkpt lat="43.72237" lon="6.9422">
        <ele>1170.5999755859</ele>
        <time>2011-07-03T08:40:34.000Z</time>
      </trkpt>
      <trkpt lat="43.72248" lon="6.94247">
        <ele>1170.5999755859</ele>
        <time>2011-07-03T08:40:39.000Z</time>
      </trkpt>
      <trkpt lat="43.72255" lon="6.94271">
        <ele>1168.4000244141</ele>
        <time>2011-07-03T08:40:43.000Z</time>
      </trkpt>
      <trkpt lat="43.72275" lon="6.94292">
        <ele>1168.5999755859</ele>
        <time>2011-07-03T08:40:49.000Z</time>
      </trkpt>
      <trkpt lat="43.7228" lon="6.94298">
        <ele>1168.8000488281</ele>
        <time>2011-07-03T08:40:51.000Z</time>
      </trkpt>
      <trkpt lat="43.72289" lon="6.94305">
        <ele>1169.4000244141</ele>
        <time>2011-07-03T08:40:55.000Z</time>
      </trkpt>
      <trkpt lat="43.7229" lon="6.94305">
        <ele>1169.4000244141</ele>
        <time>2011-07-03T08:41:01.000Z</time>
      </trkpt>
      <trkpt lat="43.7229" lon="6.94304">
        <ele>1169.5999755859</ele>
        <time>2011-07-03T08:41:07.000Z</time>
      </trkpt>
      <trkpt lat="43.72289" lon="6.94305">
        <ele>1169.4000244141</ele>
        <time>2011-07-03T08:41:16.000Z</time>
      </trkpt>
      <trkpt lat="43.7229" lon="6.94307">
        <ele>1169.1999511719</ele>
        <time>2011-07-03T08:41:28.000Z</time>
      </trkpt>
      <trkpt lat="43.72294" lon="6.94323">
        <ele>1168.4000244141</ele>
        <time>2011-07-03T08:41:33.000Z</time>
      </trkpt>
      <trkpt lat="43.723" lon="6.94346">
        <ele>1166.4000244141</ele>
        <time>2011-07-03T08:41:37.000Z</time>
      </trkpt>
      <trkpt lat="43.72309" lon="6.94363">
        <ele>1165.5999755859</ele>
        <time>2011-07-03T08:41:41.000Z</time>
      </trkpt>
      <trkpt lat="43.72313" lon="6.94371">
        <ele>1165.1999511719</ele>
        <time>2011-07-03T08:41:43.000Z</time>
      </trkpt>
      <trkpt lat="43.72316" lon="6.9441">
        <ele>1160</ele>
        <time>2011-07-03T08:41:49.000Z</time>
      </trkpt>
      <trkpt lat="43.72319" lon="6.94423">
        <ele>1157.5999755859</ele>
        <time>2011-07-03T08:41:51.000Z</time>
      </trkpt>
      <trkpt lat="43.72324" lon="6.94453">
        <ele>1150.1999511719</ele>
        <time>2011-07-03T08:41:57.000Z</time>
      </trkpt>
      <trkpt lat="43.72326" lon="6.94463">
        <ele>1147.5999755859</ele>
        <time>2011-07-03T08:42:01.000Z</time>
      </trkpt>
      <trkpt lat="43.72333" lon="6.94461">
        <ele>1150</ele>
        <time>2011-07-03T08:42:05.000Z</time>
      </trkpt>
      <trkpt lat="43.72336" lon="6.94463">
        <ele>1149.8000488281</ele>
        <time>2011-07-03T08:42:07.000Z</time>
      </trkpt>
      <trkpt lat="43.72337" lon="6.94466">
        <ele>1148.8000488281</ele>
        <time>2011-07-03T08:42:13.000Z</time>
      </trkpt>
      <trkpt lat="43.72337" lon="6.94465">
        <ele>1149</ele>
        <time>2011-07-03T08:42:24.000Z</time>
      </trkpt>
      <trkpt lat="43.72338" lon="6.94465">
        <ele>1149.1999511719</ele>
        <time>2011-07-03T08:42:36.000Z</time>
      </trkpt>
      <trkpt lat="43.72338" lon="6.94465">
        <ele>1149.4000244141</ele>
        <time>2011-07-03T08:42:42.000Z</time>
      </trkpt>
      <trkpt lat="43.72351" lon="6.94469">
        <ele>1149</ele>
        <time>2011-07-03T08:42:47.000Z</time>
      </trkpt>
      <trkpt lat="43.72378" lon="6.94491">
        <ele>1144.4000244141</ele>
        <time>2011-07-03T08:42:53.000Z</time>
      </trkpt>
      <trkpt lat="43.72381" lon="6.94494">
        <ele>1144</ele>
        <time>2011-07-03T08:42:54.000Z</time>
      </trkpt>
      <trkpt lat="43.72391" lon="6.94507">
        <ele>1140.8000488281</ele>
        <time>2011-07-03T08:42:58.000Z</time>
      </trkpt>
      <trkpt lat="43.72399" lon="6.94518">
        <ele>1138.1999511719</ele>
        <time>2011-07-03T08:43:01.000Z</time>
      </trkpt>
      <trkpt lat="43.72415" lon="6.94532">
        <ele>1135.4000244141</ele>
        <time>2011-07-03T08:43:06.000Z</time>
      </trkpt>
      <trkpt lat="43.72428" lon="6.94549">
        <ele>1131.1999511719</ele>
        <time>2011-07-03T08:43:09.000Z</time>
      </trkpt>
      <trkpt lat="43.72446" lon="6.94567">
        <ele>1127.4000244141</ele>
        <time>2011-07-03T08:43:13.000Z</time>
      </trkpt>
      <trkpt lat="43.72451" lon="6.94572">
        <ele>1126.4000244141</ele>
        <time>2011-07-03T08:43:16.000Z</time>
      </trkpt>
      <trkpt lat="43.72452" lon="6.94586">
        <ele>1123</ele>
        <time>2011-07-03T08:43:21.000Z</time>
      </trkpt>
      <trkpt lat="43.72453" lon="6.9459">
        <ele>1121.8000488281</ele>
        <time>2011-07-03T08:43:27.000Z</time>
      </trkpt>
      <trkpt lat="43.72454" lon="6.9459">
        <ele>1122</ele>
        <time>2011-07-03T08:43:36.000Z</time>
      </trkpt>
      <trkpt lat="43.72454" lon="6.94589">
        <ele>1122.1999511719</ele>
        <time>2011-07-03T08:43:51.000Z</time>
      </trkpt>
      <trkpt lat="43.72453" lon="6.94587">
        <ele>1122.5999755859</ele>
        <time>2011-07-03T08:43:58.000Z</time>
      </trkpt>
      <trkpt lat="43.72452" lon="6.9458">
        <ele>1124.5999755859</ele>
        <time>2011-07-03T08:44:04.000Z</time>
      </trkpt>
      <trkpt lat="43.72453" lon="6.94584">
        <ele>1123.8000488281</ele>
        <time>2011-07-03T08:44:12.000Z</time>
      </trkpt>
      <trkpt lat="43.72459" lon="6.94599">
        <ele>1119.4000244141</ele>
        <time>2011-07-03T08:44:17.000Z</time>
      </trkpt>
      <trkpt lat="43.72468" lon="6.94609">
        <ele>1117.4000244141</ele>
        <time>2011-07-03T08:44:22.000Z</time>
      </trkpt>
      <trkpt lat="43.72475" lon="6.94619">
        <ele>1115.4000244141</ele>
        <time>2011-07-03T08:44:26.000Z</time>
      </trkpt>
      <trkpt lat="43.72491" lon="6.94633">
        <ele>1114</ele>
        <time>2011-07-03T08:44:31.000Z</time>
      </trkpt>
      <trkpt lat="43.72501" lon="6.94644">
        <ele>1112.4000244141</ele>
        <time>2011-07-03T08:44:35.000Z</time>
      </trkpt>
      <trkpt lat="43.72514" lon="6.94652">
        <ele>1110.8000488281</ele>
        <time>2011-07-03T08:44:39.000Z</time>
      </trkpt>
      <trkpt lat="43.72524" lon="6.94655">
        <ele>1110.1999511719</ele>
        <time>2011-07-03T08:44:42.000Z</time>
      </trkpt>
      <trkpt lat="43.72538" lon="6.94681">
        <ele>1104.8000488281</ele>
        <time>2011-07-03T08:44:48.000Z</time>
      </trkpt>
      <trkpt lat="43.7255" lon="6.94694">
        <ele>1102.4000244141</ele>
        <time>2011-07-03T08:44:52.000Z</time>
      </trkpt>
      <trkpt lat="43.72554" lon="6.94703">
        <ele>1100.8000488281</ele>
        <time>2011-07-03T08:44:54.000Z</time>
      </trkpt>
      <trkpt lat="43.72554" lon="6.94711">
        <ele>1099</ele>
        <time>2011-07-03T08:44:58.000Z</time>
      </trkpt>
      <trkpt lat="43.72554" lon="6.94711">
        <ele>1099</ele>
        <time>2011-07-03T08:45:09.000Z</time>
      </trkpt>
      <trkpt lat="43.72553" lon="6.94711">
        <ele>1098.8000488281</ele>
        <time>2011-07-03T08:45:32.000Z</time>
      </trkpt>
      <trkpt lat="43.72552" lon="6.94714">
        <ele>1098</ele>
        <time>2011-07-03T08:45:45.000Z</time>
      </trkpt>
      <trkpt lat="43.72554" lon="6.94727">
        <ele>1095.1999511719</ele>
        <time>2011-07-03T08:45:50.000Z</time>
      </trkpt>
      <trkpt lat="43.72562" lon="6.94741">
        <ele>1093.8000488281</ele>
        <time>2011-07-03T08:45:56.000Z</time>
      </trkpt>
      <trkpt lat="43.72572" lon="6.94756">
        <ele>1093</ele>
        <time>2011-07-03T08:46:02.000Z</time>
      </trkpt>
      <trkpt lat="43.72579" lon="6.94772">
        <ele>1093</ele>
        <time>2011-07-03T08:46:07.000Z</time>
      </trkpt>
      <trkpt lat="43.72584" lon="6.94786">
        <ele>1092.4000244141</ele>
        <time>2011-07-03T08:46:12.000Z</time>
      </trkpt>
      <trkpt lat="43.72576" lon="6.94806">
        <ele>1088.8000488281</ele>
        <time>2011-07-03T08:46:18.000Z</time>
      </trkpt>
      <trkpt lat="43.72572" lon="6.94818">
        <ele>1086.4000244141</ele>
        <time>2011-07-03T08:46:24.000Z</time>
      </trkpt>
      <trkpt lat="43.72571" lon="6.94819">
        <ele>1086</ele>
        <time>2011-07-03T08:46:28.000Z</time>
      </trkpt>
      <trkpt lat="43.72571" lon="6.94818">
        <ele>1086</ele>
        <time>2011-07-03T08:46:43.000Z</time>
      </trkpt>
      <trkpt lat="43.72572" lon="6.94819">
        <ele>1086.1999511719</ele>
        <time>2011-07-03T08:46:51.000Z</time>
      </trkpt>
      <trkpt lat="43.72575" lon="6.94818">
        <ele>1087.1999511719</ele>
        <time>2011-07-03T08:46:59.000Z</time>
      </trkpt>
      <trkpt lat="43.72578" lon="6.94815">
        <ele>1088</ele>
        <time>2011-07-03T08:47:01.000Z</time>
      </trkpt>
      <trkpt lat="43.72578" lon="6.94799">
        <ele>1089.8000488281</ele>
        <time>2011-07-03T08:47:06.000Z</time>
      </trkpt>
      <trkpt lat="43.72568" lon="6.94794">
        <ele>1088</ele>
        <time>2011-07-03T08:47:11.000Z</time>
      </trkpt>
      <trkpt lat="43.72565" lon="6.94801">
        <ele>1086.4000244141</ele>
        <time>2011-07-03T08:47:14.000Z</time>
      </trkpt>
      <trkpt lat="43.72558" lon="6.94815">
        <ele>1083</ele>
        <time>2011-07-03T08:47:20.000Z</time>
      </trkpt>
      <trkpt lat="43.72553" lon="6.94823">
        <ele>1080.4000244141</ele>
        <time>2011-07-03T08:47:25.000Z</time>
      </trkpt>
      <trkpt lat="43.72546" lon="6.94831">
        <ele>1077.5999755859</ele>
        <time>2011-07-03T08:47:29.000Z</time>
      </trkpt>
      <trkpt lat="43.72539" lon="6.94831">
        <ele>1075.4000244141</ele>
        <time>2011-07-03T08:47:32.000Z</time>
      </trkpt>
      <trkpt lat="43.72533" lon="6.94825">
        <ele>1074.8000488281</ele>
        <time>2011-07-03T08:47:36.000Z</time>
      </trkpt>
      <trkpt lat="43.72534" lon="6.94824">
        <ele>1075.1999511719</ele>
        <time>2011-07-03T08:47:47.000Z</time>
      </trkpt>
      <trkpt lat="43.72534" lon="6.94823">
        <ele>1075.4000244141</ele>
        <time>2011-07-03T08:48:04.000Z</time>
      </trkpt>
      <trkpt lat="43.72529" lon="6.9481">
        <ele>1075.8000488281</ele>
        <time>2011-07-03T08:48:09.000Z</time>
      </trkpt>
      <trkpt lat="43.72528" lon="6.94807">
        <ele>1076.1999511719</ele>
        <time>2011-07-03T08:48:10.000Z</time>
      </trkpt>
      <trkpt lat="43.72517" lon="6.94783">
        <ele>1077.5999755859</ele>
        <time>2011-07-03T08:48:15.000Z</time>
      </trkpt>
      <trkpt lat="43.7251" lon="6.9477">
        <ele>1078.1999511719</ele>
        <time>2011-07-03T08:48:17.000Z</time>
      </trkpt>
      <trkpt lat="43.72492" lon="6.94758">
        <ele>1076.4000244141</ele>
        <time>2011-07-03T08:48:21.000Z</time>
      </trkpt>
      <trkpt lat="43.72487" lon="6.94755">
        <ele>1075.5999755859</ele>
        <time>2011-07-03T08:48:22.000Z</time>
      </trkpt>
      <trkpt lat="43.72462" lon="6.94747">
        <ele>1071.5999755859</ele>
        <time>2011-07-03T08:48:26.000Z</time>
      </trkpt>
      <trkpt lat="43.72427" lon="6.94746">
        <ele>1063.8000488281</ele>
        <time>2011-07-03T08:48:30.000Z</time>
      </trkpt>
      <trkpt lat="43.72388" lon="6.94756">
        <ele>1053.5999755859</ele>
        <time>2011-07-03T08:48:35.000Z</time>
      </trkpt>
      <trkpt lat="43.72367" lon="6.94763">
        <ele>1048.1999511719</ele>
        <time>2011-07-03T08:48:39.000Z</time>
      </trkpt>
      <trkpt lat="43.72363" lon="6.94765">
        <ele>1046.8000488281</ele>
        <time>2011-07-03T08:48:41.000Z</time>
      </trkpt>
      <trkpt lat="43.72363" lon="6.94764">
        <ele>1047</ele>
        <time>2011-07-03T08:48:47.000Z</time>
      </trkpt>
      <trkpt lat="43.72361" lon="6.94764">
        <ele>1046.8000488281</ele>
        <time>2011-07-03T08:48:51.000Z</time>
      </trkpt>
      <trkpt lat="43.72346" lon="6.94764">
        <ele>1044.4000244141</ele>
        <time>2011-07-03T08:48:55.000Z</time>
      </trkpt>
      <trkpt lat="43.72325" lon="6.94768">
        <ele>1039.1999511719</ele>
        <time>2011-07-03T08:48:58.000Z</time>
      </trkpt>
      <trkpt lat="43.72297" lon="6.94761">
        <ele>1035.5999755859</ele>
        <time>2011-07-03T08:49:02.000Z</time>
      </trkpt>
      <trkpt lat="43.72284" lon="6.94747">
        <ele>1037.1999511719</ele>
        <time>2011-07-03T08:49:04.000Z</time>
      </trkpt>
      <trkpt lat="43.72244" lon="6.94705">
        <ele>1040.5999755859</ele>
        <time>2011-07-03T08:49:11.000Z</time>
      </trkpt>
      <trkpt lat="43.72214" lon="6.94676">
        <ele>1039</ele>
        <time>2011-07-03T08:49:18.000Z</time>
      </trkpt>
      <trkpt lat="43.72206" lon="6.94669">
        <ele>1038</ele>
        <time>2011-07-03T08:49:20.000Z</time>
      </trkpt>
      <trkpt lat="43.72199" lon="6.94662">
        <ele>1037.5999755859</ele>
        <time>2011-07-03T08:49:22.000Z</time>
      </trkpt>
      <trkpt lat="43.72195" lon="6.94657">
        <ele>1037.1999511719</ele>
        <time>2011-07-03T08:49:24.000Z</time>
      </trkpt>
      <trkpt lat="43.7219" lon="6.94653">
        <ele>1036.5999755859</ele>
        <time>2011-07-03T08:49:31.000Z</time>
      </trkpt>
      <trkpt lat="43.72189" lon="6.94652">
        <ele>1036.4000244141</ele>
        <time>2011-07-03T08:49:33.000Z</time>
      </trkpt>
      <trkpt lat="43.72178" lon="6.9464">
        <ele>1035.1999511719</ele>
        <time>2011-07-03T08:49:40.000Z</time>
      </trkpt>
      <trkpt lat="43.72163" lon="6.9462">
        <ele>1035</ele>
        <time>2011-07-03T08:49:46.000Z</time>
      </trkpt>
      <trkpt lat="43.72153" lon="6.94607">
        <ele>1036</ele>
        <time>2011-07-03T08:49:50.000Z</time>
      </trkpt>
      <trkpt lat="43.72141" lon="6.94603">
        <ele>1034.5999755859</ele>
        <time>2011-07-03T08:49:55.000Z</time>
      </trkpt>
      <trkpt lat="43.72121" lon="6.946">
        <ele>1031.4000244141</ele>
        <time>2011-07-03T08:50:01.000Z</time>
      </trkpt>
      <trkpt lat="43.72106" lon="6.94594">
        <ele>1029.5999755859</ele>
        <time>2011-07-03T08:50:05.000Z</time>
      </trkpt>
      <trkpt lat="43.72093" lon="6.94585">
        <ele>1028.5999755859</ele>
        <time>2011-07-03T08:50:09.000Z</time>
      </trkpt>
      <trkpt lat="43.72082" lon="6.94583">
        <ele>1027</ele>
        <time>2011-07-03T08:50:12.000Z</time>
      </trkpt>
      <trkpt lat="43.72066" lon="6.9458">
        <ele>1026.8000488281</ele>
        <time>2011-07-03T08:50:16.000Z</time>
      </trkpt>
      <trkpt lat="43.72056" lon="6.94575">
        <ele>1027.1999511719</ele>
        <time>2011-07-03T08:50:19.000Z</time>
      </trkpt>
      <trkpt lat="43.72038" lon="6.94572">
        <ele>1027</ele>
        <time>2011-07-03T08:50:24.000Z</time>
      </trkpt>
      <trkpt lat="43.7203" lon="6.94571">
        <ele>1026.5999755859</ele>
        <time>2011-07-03T08:50:28.000Z</time>
      </trkpt>
      <trkpt lat="43.72021" lon="6.94574">
        <ele>1025.8000488281</ele>
        <time>2011-07-03T08:50:32.000Z</time>
      </trkpt>
      <trkpt lat="43.72004" lon="6.94579">
        <ele>1024.4000244141</ele>
        <time>2011-07-03T08:50:39.000Z</time>
      </trkpt>
      <trkpt lat="43.72002" lon="6.94581">
        <ele>1024.1999511719</ele>
        <time>2011-07-03T08:50:40.000Z</time>
      </trkpt>
      <trkpt lat="43.71993" lon="6.94593">
        <ele>1020.799987793</ele>
        <time>2011-07-03T08:50:45.000Z</time>
      </trkpt>
      <trkpt lat="43.71989" lon="6.94597">
        <ele>1019.4000244141</ele>
        <time>2011-07-03T08:50:47.000Z</time>
      </trkpt>
      <trkpt lat="43.7198" lon="6.94593">
        <ele>1018.5999755859</ele>
        <time>2011-07-03T08:50:52.000Z</time>
      </trkpt>
      <trkpt lat="43.71975" lon="6.94587">
        <ele>1018.799987793</ele>
        <time>2011-07-03T08:50:56.000Z</time>
      </trkpt>
      <trkpt lat="43.71973" lon="6.94582">
        <ele>1019.200012207</ele>
        <time>2011-07-03T08:51:01.000Z</time>
      </trkpt>
      <trkpt lat="43.71967" lon="6.94576">
        <ele>1018.799987793</ele>
        <time>2011-07-03T08:51:05.000Z</time>
      </trkpt>
      <trkpt lat="43.71952" lon="6.94562">
        <ele>1017.4000244141</ele>
        <time>2011-07-03T08:51:11.000Z</time>
      </trkpt>
      <trkpt lat="43.7194" lon="6.94556">
        <ele>1015.799987793</ele>
        <time>2011-07-03T08:51:15.000Z</time>
      </trkpt>
      <trkpt lat="43.71927" lon="6.94549">
        <ele>1014</ele>
        <time>2011-07-03T08:51:19.000Z</time>
      </trkpt>
      <trkpt lat="43.71919" lon="6.94545">
        <ele>1013</ele>
        <time>2011-07-03T08:51:22.000Z</time>
      </trkpt>
      <trkpt lat="43.71917" lon="6.94546">
        <ele>1012.4000244141</ele>
        <time>2011-07-03T08:51:27.000Z</time>
      </trkpt>
      <trkpt lat="43.71917" lon="6.94547">
        <ele>1012.4000244141</ele>
        <time>2011-07-03T08:51:34.000Z</time>
      </trkpt>
      <trkpt lat="43.71919" lon="6.9455">
        <ele>1012.4000244141</ele>
        <time>2011-07-03T08:51:56.000Z</time>
      </trkpt>
      <trkpt lat="43.71918" lon="6.94551">
        <ele>1012.200012207</ele>
        <time>2011-07-03T08:52:07.000Z</time>
      </trkpt>
      <trkpt lat="43.71912" lon="6.94559">
        <ele>1010.799987793</ele>
        <time>2011-07-03T08:52:11.000Z</time>
      </trkpt>
      <trkpt lat="43.71897" lon="6.94577">
        <ele>1008</ele>
        <time>2011-07-03T08:52:17.000Z</time>
      </trkpt>
      <trkpt lat="43.71884" lon="6.94597">
        <ele>1005</ele>
        <time>2011-07-03T08:52:23.000Z</time>
      </trkpt>
      <trkpt lat="43.71879" lon="6.94616">
        <ele>1003</ele>
        <time>2011-07-03T08:52:28.000Z</time>
      </trkpt>
      <trkpt lat="43.71875" lon="6.94622">
        <ele>1002.4000244141</ele>
        <time>2011-07-03T08:52:33.000Z</time>
      </trkpt>
      <trkpt lat="43.71881" lon="6.94624">
        <ele>1002.5999755859</ele>
        <time>2011-07-03T08:52:39.000Z</time>
      </trkpt>
      <trkpt lat="43.71889" lon="6.94634">
        <ele>1002.200012207</ele>
        <time>2011-07-03T08:52:45.000Z</time>
      </trkpt>
      <trkpt lat="43.71884" lon="6.94646">
        <ele>1001</ele>
        <time>2011-07-03T08:52:50.000Z</time>
      </trkpt>
      <trkpt lat="43.71881" lon="6.94655">
        <ele>1000.200012207</ele>
        <time>2011-07-03T08:52:53.000Z</time>
      </trkpt>
      <trkpt lat="43.71874" lon="6.94662">
        <ele>999.20001220703</ele>
        <time>2011-07-03T08:52:57.000Z</time>
      </trkpt>
      <trkpt lat="43.71873" lon="6.94662">
        <ele>999.20001220703</ele>
        <time>2011-07-03T08:53:02.000Z</time>
      </trkpt>
      <trkpt lat="43.71867" lon="6.9465">
        <ele>999.79998779297</ele>
        <time>2011-07-03T08:53:07.000Z</time>
      </trkpt>
      <trkpt lat="43.71852" lon="6.94635">
        <ele>1000</ele>
        <time>2011-07-03T08:53:13.000Z</time>
      </trkpt>
      <trkpt lat="43.71847" lon="6.94623">
        <ele>1000.4000244141</ele>
        <time>2011-07-03T08:53:17.000Z</time>
      </trkpt>
      <trkpt lat="43.71845" lon="6.9462">
        <ele>1000.5999755859</ele>
        <time>2011-07-03T08:53:19.000Z</time>
      </trkpt>
      <trkpt lat="43.71835" lon="6.94625">
        <ele>999.59997558594</ele>
        <time>2011-07-03T08:53:24.000Z</time>
      </trkpt>
      <trkpt lat="43.71836" lon="6.94639">
        <ele>998.79998779297</ele>
        <time>2011-07-03T08:53:29.000Z</time>
      </trkpt>
      <trkpt lat="43.71838" lon="6.94649">
        <ele>998.20001220703</ele>
        <time>2011-07-03T08:53:33.000Z</time>
      </trkpt>
      <trkpt lat="43.71838" lon="6.9465">
        <ele>998.20001220703</ele>
        <time>2011-07-03T08:53:43.000Z</time>
      </trkpt>
      <trkpt lat="43.71838" lon="6.94649">
        <ele>998.20001220703</ele>
        <time>2011-07-03T08:53:53.000Z</time>
      </trkpt>
      <trkpt lat="43.71836" lon="6.9465">
        <ele>998</ele>
        <time>2011-07-03T08:53:59.000Z</time>
      </trkpt>
      <trkpt lat="43.71821" lon="6.94657">
        <ele>996.79998779297</ele>
        <time>2011-07-03T08:54:05.000Z</time>
      </trkpt>
      <trkpt lat="43.71817" lon="6.94661">
        <ele>996.40002441406</ele>
        <time>2011-07-03T08:54:06.000Z</time>
      </trkpt>
      <trkpt lat="43.71807" lon="6.94669">
        <ele>995.40002441406</ele>
        <time>2011-07-03T08:54:10.000Z</time>
      </trkpt>
      <trkpt lat="43.71797" lon="6.94671">
        <ele>994.59997558594</ele>
        <time>2011-07-03T08:54:15.000Z</time>
      </trkpt>
      <trkpt lat="43.71792" lon="6.94673">
        <ele>994.20001220703</ele>
        <time>2011-07-03T08:54:18.000Z</time>
      </trkpt>
      <trkpt lat="43.71791" lon="6.94674">
        <ele>994</ele>
        <time>2011-07-03T08:54:29.000Z</time>
      </trkpt>
      <trkpt lat="43.71791" lon="6.94675">
        <ele>993.79998779297</ele>
        <time>2011-07-03T08:54:46.000Z</time>
      </trkpt>
      <trkpt lat="43.71793" lon="6.94675">
        <ele>994</ele>
        <time>2011-07-03T08:54:58.000Z</time>
      </trkpt>
      <trkpt lat="43.71793" lon="6.94675">
        <ele>994</ele>
        <time>2011-07-03T08:55:07.000Z</time>
      </trkpt>
      <trkpt lat="43.71792" lon="6.94675">
        <ele>993.79998779297</ele>
        <time>2011-07-03T08:55:09.000Z</time>
      </trkpt>
      <trkpt lat="43.71786" lon="6.94678">
        <ele>993.40002441406</ele>
        <time>2011-07-03T08:55:14.000Z</time>
      </trkpt>
      <trkpt lat="43.71788" lon="6.94686">
        <ele>992.40002441406</ele>
        <time>2011-07-03T08:55:18.000Z</time>
      </trkpt>
      <trkpt lat="43.71785" lon="6.94704">
        <ele>990.20001220703</ele>
        <time>2011-07-03T08:55:24.000Z</time>
      </trkpt>
      <trkpt lat="43.71775" lon="6.94714">
        <ele>988.59997558594</ele>
        <time>2011-07-03T08:55:29.000Z</time>
      </trkpt>
      <trkpt lat="43.71771" lon="6.94717">
        <ele>988.20001220703</ele>
        <time>2011-07-03T08:55:31.000Z</time>
      </trkpt>
      <trkpt lat="43.71751" lon="6.94715">
        <ele>987.79998779297</ele>
        <time>2011-07-03T08:55:38.000Z</time>
      </trkpt>
      <trkpt lat="43.71738" lon="6.94719">
        <ele>988.20001220703</ele>
        <time>2011-07-03T08:55:43.000Z</time>
      </trkpt>
      <trkpt lat="43.71729" lon="6.9473">
        <ele>988</ele>
        <time>2011-07-03T08:55:48.000Z</time>
      </trkpt>
      <trkpt lat="43.71725" lon="6.94745">
        <ele>987.20001220703</ele>
        <time>2011-07-03T08:55:54.000Z</time>
      </trkpt>
      <trkpt lat="43.71723" lon="6.94764">
        <ele>985.59997558594</ele>
        <time>2011-07-03T08:56:00.000Z</time>
      </trkpt>
      <trkpt lat="43.71726" lon="6.9478">
        <ele>984</ele>
        <time>2011-07-03T08:56:05.000Z</time>
      </trkpt>
      <trkpt lat="43.71727" lon="6.94796">
        <ele>982.59997558594</ele>
        <time>2011-07-03T08:56:10.000Z</time>
      </trkpt>
      <trkpt lat="43.71727" lon="6.948">
        <ele>982.20001220703</ele>
        <time>2011-07-03T08:56:11.000Z</time>
      </trkpt>
      <trkpt lat="43.71721" lon="6.94816">
        <ele>981.40002441406</ele>
        <time>2011-07-03T08:56:17.000Z</time>
      </trkpt>
      <trkpt lat="43.71717" lon="6.94834">
        <ele>980.40002441406</ele>
        <time>2011-07-03T08:56:22.000Z</time>
      </trkpt>
      <trkpt lat="43.71714" lon="6.94847">
        <ele>980</ele>
        <time>2011-07-03T08:56:26.000Z</time>
      </trkpt>
      <trkpt lat="43.71714" lon="6.94848">
        <ele>979.79998779297</ele>
        <time>2011-07-03T08:56:36.000Z</time>
      </trkpt>
      <trkpt lat="43.71714" lon="6.94848">
        <ele>979.79998779297</ele>
        <time>2011-07-03T08:56:43.000Z</time>
      </trkpt>
      <trkpt lat="43.71714" lon="6.9485">
        <ele>979.59997558594</ele>
        <time>2011-07-03T08:56:53.000Z</time>
      </trkpt>
      <trkpt lat="43.71717" lon="6.94858">
        <ele>978.79998779297</ele>
        <time>2011-07-03T08:56:59.000Z</time>
      </trkpt>
      <trkpt lat="43.71721" lon="6.94864">
        <ele>978</ele>
        <time>2011-07-03T08:57:01.000Z</time>
      </trkpt>
      <trkpt lat="43.71729" lon="6.94882">
        <ele>976</ele>
        <time>2011-07-03T08:57:06.000Z</time>
      </trkpt>
      <trkpt lat="43.71739" lon="6.94899">
        <ele>974</ele>
        <time>2011-07-03T08:57:10.000Z</time>
      </trkpt>
      <trkpt lat="43.71749" lon="6.94914">
        <ele>972.20001220703</ele>
        <time>2011-07-03T08:57:14.000Z</time>
      </trkpt>
      <trkpt lat="43.7176" lon="6.94934">
        <ele>969.59997558594</ele>
        <time>2011-07-03T08:57:18.000Z</time>
      </trkpt>
      <trkpt lat="43.71769" lon="6.94949">
        <ele>967.59997558594</ele>
        <time>2011-07-03T08:57:21.000Z</time>
      </trkpt>
      <trkpt lat="43.7179" lon="6.94968">
        <ele>964.40002441406</ele>
        <time>2011-07-03T08:57:27.000Z</time>
      </trkpt>
      <trkpt lat="43.71795" lon="6.94971">
        <ele>963.79998779297</ele>
        <time>2011-07-03T08:57:29.000Z</time>
      </trkpt>
      <trkpt lat="43.71807" lon="6.94978">
        <ele>962.40002441406</ele>
        <time>2011-07-03T08:57:34.000Z</time>
      </trkpt>
      <trkpt lat="43.7181" lon="6.94982">
        <ele>962</ele>
        <time>2011-07-03T08:57:36.000Z</time>
      </trkpt>
      <trkpt lat="43.71818" lon="6.94987">
        <ele>961</ele>
        <time>2011-07-03T08:57:41.000Z</time>
      </trkpt>
      <trkpt lat="43.71816" lon="6.94984">
        <ele>961.40002441406</ele>
        <time>2011-07-03T08:57:46.000Z</time>
      </trkpt>
      <trkpt lat="43.71809" lon="6.94985">
        <ele>961.59997558594</ele>
        <time>2011-07-03T08:57:51.000Z</time>
      </trkpt>
      <trkpt lat="43.71808" lon="6.94985">
        <ele>961.79998779297</ele>
        <time>2011-07-03T08:57:57.000Z</time>
      </trkpt>
      <trkpt lat="43.71808" lon="6.94985">
        <ele>961.79998779297</ele>
        <time>2011-07-03T08:58:08.000Z</time>
      </trkpt>
      <trkpt lat="43.71809" lon="6.94988">
        <ele>961.40002441406</ele>
        <time>2011-07-03T08:58:12.000Z</time>
      </trkpt>
      <trkpt lat="43.71815" lon="6.95002">
        <ele>959.59997558594</ele>
        <time>2011-07-03T08:58:18.000Z</time>
      </trkpt>
      <trkpt lat="43.71817" lon="6.95003">
        <ele>959.40002441406</ele>
        <time>2011-07-03T08:58:19.000Z</time>
      </trkpt>
      <trkpt lat="43.71818" lon="6.95005">
        <ele>959</ele>
        <time>2011-07-03T08:58:29.000Z</time>
      </trkpt>
      <trkpt lat="43.71818" lon="6.95006">
        <ele>958.79998779297</ele>
        <time>2011-07-03T08:58:34.000Z</time>
      </trkpt>
      <trkpt lat="43.71823" lon="6.95015">
        <ele>957.59997558594</ele>
        <time>2011-07-03T08:58:39.000Z</time>
      </trkpt>
      <trkpt lat="43.71826" lon="6.95018">
        <ele>957</ele>
        <time>2011-07-03T08:58:45.000Z</time>
      </trkpt>
      <trkpt lat="43.71829" lon="6.95023">
        <ele>956.20001220703</ele>
        <time>2011-07-03T08:58:52.000Z</time>
      </trkpt>
      <trkpt lat="43.71833" lon="6.95025">
        <ele>955.59997558594</ele>
        <time>2011-07-03T08:58:57.000Z</time>
      </trkpt>
      <trkpt lat="43.71837" lon="6.95026">
        <ele>955.40002441406</ele>
        <time>2011-07-03T08:59:04.000Z</time>
      </trkpt>
      <trkpt lat="43.71837" lon="6.95026">
        <ele>955.40002441406</ele>
        <time>2011-07-03T08:59:15.000Z</time>
      </trkpt>
      <trkpt lat="43.71843" lon="6.95035">
        <ele>954</ele>
        <time>2011-07-03T08:59:19.000Z</time>
      </trkpt>
      <trkpt lat="43.71847" lon="6.9504">
        <ele>953.40002441406</ele>
        <time>2011-07-03T08:59:22.000Z</time>
      </trkpt>
      <trkpt lat="43.71848" lon="6.9504">
        <ele>953.40002441406</ele>
        <time>2011-07-03T08:59:29.000Z</time>
      </trkpt>
      <trkpt lat="43.71848" lon="6.95057">
        <ele>950.79998779297</ele>
        <time>2011-07-03T08:59:34.000Z</time>
      </trkpt>
      <trkpt lat="43.71849" lon="6.95062">
        <ele>950</ele>
        <time>2011-07-03T08:59:35.000Z</time>
      </trkpt>
      <trkpt lat="43.71851" lon="6.95075">
        <ele>948</ele>
        <time>2011-07-03T08:59:39.000Z</time>
      </trkpt>
      <trkpt lat="43.7185" lon="6.95076">
        <ele>948</ele>
        <time>2011-07-03T08:59:49.000Z</time>
      </trkpt>
      <trkpt lat="43.71852" lon="6.95077">
        <ele>947.59997558594</ele>
        <time>2011-07-03T08:59:55.000Z</time>
      </trkpt>
      <trkpt lat="43.71862" lon="6.95084">
        <ele>946.20001220703</ele>
        <time>2011-07-03T09:00:00.000Z</time>
      </trkpt>
      <trkpt lat="43.71862" lon="6.95084">
        <ele>946.20001220703</ele>
        <time>2011-07-03T09:00:04.000Z</time>
      </trkpt>
      <trkpt lat="43.7186" lon="6.95082">
        <ele>946.40002441406</ele>
        <time>2011-07-03T09:00:08.000Z</time>
      </trkpt>
      <trkpt lat="43.71861" lon="6.95082">
        <ele>946.40002441406</ele>
        <time>2011-07-03T09:00:12.000Z</time>
      </trkpt>
      <trkpt lat="43.71866" lon="6.95084">
        <ele>945.79998779297</ele>
        <time>2011-07-03T09:00:16.000Z</time>
      </trkpt>
      <trkpt lat="43.71868" lon="6.95089">
        <ele>945.40002441406</ele>
        <time>2011-07-03T09:00:18.000Z</time>
      </trkpt>
      <trkpt lat="43.71875" lon="6.95098">
        <ele>944.20001220703</ele>
        <time>2011-07-03T09:00:24.000Z</time>
      </trkpt>
      <trkpt lat="43.71874" lon="6.95103">
        <ele>943.79998779297</ele>
        <time>2011-07-03T09:00:30.000Z</time>
      </trkpt>
      <trkpt lat="43.71876" lon="6.95106">
        <ele>943.40002441406</ele>
        <time>2011-07-03T09:00:37.000Z</time>
      </trkpt>
      <trkpt lat="43.71877" lon="6.95108">
        <ele>943.20001220703</ele>
        <time>2011-07-03T09:00:41.000Z</time>
      </trkpt>
      <trkpt lat="43.71883" lon="6.95128">
        <ele>940.79998779297</ele>
        <time>2011-07-03T09:00:46.000Z</time>
      </trkpt>
      <trkpt lat="43.7189" lon="6.95148">
        <ele>938.20001220703</ele>
        <time>2011-07-03T09:00:50.000Z</time>
      </trkpt>
      <trkpt lat="43.71903" lon="6.95165">
        <ele>934.79998779297</ele>
        <time>2011-07-03T09:00:54.000Z</time>
      </trkpt>
      <trkpt lat="43.71914" lon="6.9518">
        <ele>932.79998779297</ele>
        <time>2011-07-03T09:00:58.000Z</time>
      </trkpt>
      <trkpt lat="43.71918" lon="6.95182">
        <ele>932.40002441406</ele>
        <time>2011-07-03T09:00:59.000Z</time>
      </trkpt>
      <trkpt lat="43.71925" lon="6.95185">
        <ele>931.59997558594</ele>
        <time>2011-07-03T09:01:01.000Z</time>
      </trkpt>
      <trkpt lat="43.71944" lon="6.95198">
        <ele>929.40002441406</ele>
        <time>2011-07-03T09:01:05.000Z</time>
      </trkpt>
      <trkpt lat="43.71979" lon="6.95219">
        <ele>925.20001220703</ele>
        <time>2011-07-03T09:01:11.000Z</time>
      </trkpt>
      <trkpt lat="43.71987" lon="6.95221">
        <ele>924.20001220703</ele>
        <time>2011-07-03T09:01:14.000Z</time>
      </trkpt>
      <trkpt lat="43.72004" lon="6.95216">
        <ele>923</ele>
        <time>2011-07-03T09:01:20.000Z</time>
      </trkpt>
      <trkpt lat="43.72018" lon="6.95211">
        <ele>922.59997558594</ele>
        <time>2011-07-03T09:01:24.000Z</time>
      </trkpt>
      <trkpt lat="43.72021" lon="6.9521">
        <ele>922.59997558594</ele>
        <time>2011-07-03T09:01:25.000Z</time>
      </trkpt>
      <trkpt lat="43.72035" lon="6.9522">
        <ele>921.20001220703</ele>
        <time>2011-07-03T09:01:30.000Z</time>
      </trkpt>
      <trkpt lat="43.72046" lon="6.95232">
        <ele>919.59997558594</ele>
        <time>2011-07-03T09:01:35.000Z</time>
      </trkpt>
      <trkpt lat="43.72054" lon="6.95249">
        <ele>917.40002441406</ele>
        <time>2011-07-03T09:01:40.000Z</time>
      </trkpt>
      <trkpt lat="43.72066" lon="6.95256">
        <ele>915.79998779297</ele>
        <time>2011-07-03T09:01:44.000Z</time>
      </trkpt>
      <trkpt lat="43.72077" lon="6.95265">
        <ele>914.20001220703</ele>
        <time>2011-07-03T09:01:48.000Z</time>
      </trkpt>
      <trkpt lat="43.72086" lon="6.95256">
        <ele>914.20001220703</ele>
        <time>2011-07-03T09:01:53.000Z</time>
      </trkpt>
      <trkpt lat="43.72097" lon="6.95251">
        <ele>914.79998779297</ele>
        <time>2011-07-03T09:01:57.000Z</time>
      </trkpt>
      <trkpt lat="43.72101" lon="6.9525">
        <ele>914.79998779297</ele>
        <time>2011-07-03T09:02:00.000Z</time>
      </trkpt>
      <trkpt lat="43.72106" lon="6.9525">
        <ele>914.79998779297</ele>
        <time>2011-07-03T09:02:06.000Z</time>
      </trkpt>
      <trkpt lat="43.72107" lon="6.9525">
        <ele>915</ele>
        <time>2011-07-03T09:02:11.000Z</time>
      </trkpt>
      <trkpt lat="43.72108" lon="6.95249">
        <ele>915</ele>
        <time>2011-07-03T09:02:18.000Z</time>
      </trkpt>
      <trkpt lat="43.72107" lon="6.9525">
        <ele>914.79998779297</ele>
        <time>2011-07-03T09:02:32.000Z</time>
      </trkpt>
      <trkpt lat="43.72108" lon="6.9525">
        <ele>914.79998779297</ele>
        <time>2011-07-03T09:02:33.000Z</time>
      </trkpt>
      <trkpt lat="43.72115" lon="6.95255">
        <ele>914.40002441406</ele>
        <time>2011-07-03T09:02:37.000Z</time>
      </trkpt>
      <trkpt lat="43.72129" lon="6.95267">
        <ele>912.40002441406</ele>
        <time>2011-07-03T09:02:44.000Z</time>
      </trkpt>
      <trkpt lat="43.72142" lon="6.95279">
        <ele>910.40002441406</ele>
        <time>2011-07-03T09:02:50.000Z</time>
      </trkpt>
      <trkpt lat="43.72152" lon="6.95289">
        <ele>908.59997558594</ele>
        <time>2011-07-03T09:02:55.000Z</time>
      </trkpt>
      <trkpt lat="43.72159" lon="6.95302">
        <ele>906</ele>
        <time>2011-07-03T09:02:59.000Z</time>
      </trkpt>
      <trkpt lat="43.7217" lon="6.95315">
        <ele>902.79998779297</ele>
        <time>2011-07-03T09:03:04.000Z</time>
      </trkpt>
      <trkpt lat="43.72174" lon="6.95324">
        <ele>900.59997558594</ele>
        <time>2011-07-03T09:03:08.000Z</time>
      </trkpt>
      <trkpt lat="43.72175" lon="6.95325">
        <ele>900.40002441406</ele>
        <time>2011-07-03T09:03:14.000Z</time>
      </trkpt>
      <trkpt lat="43.72177" lon="6.95324">
        <ele>900.20001220703</ele>
        <time>2011-07-03T09:03:21.000Z</time>
      </trkpt>
      <trkpt lat="43.72179" lon="6.95326">
        <ele>899.59997558594</ele>
        <time>2011-07-03T09:03:28.000Z</time>
      </trkpt>
      <trkpt lat="43.7218" lon="6.95327">
        <ele>899.20001220703</ele>
        <time>2011-07-03T09:03:29.000Z</time>
      </trkpt>
      <trkpt lat="43.72187" lon="6.95348">
        <ele>896.20001220703</ele>
        <time>2011-07-03T09:03:34.000Z</time>
      </trkpt>
      <trkpt lat="43.72187" lon="6.95354">
        <ele>895.79998779297</ele>
        <time>2011-07-03T09:03:35.000Z</time>
      </trkpt>
      <trkpt lat="43.72193" lon="6.9537">
        <ele>894</ele>
        <time>2011-07-03T09:03:40.000Z</time>
      </trkpt>
      <trkpt lat="43.72194" lon="6.95382">
        <ele>893</ele>
        <time>2011-07-03T09:03:44.000Z</time>
      </trkpt>
      <trkpt lat="43.722" lon="6.95407">
        <ele>890.40002441406</ele>
        <time>2011-07-03T09:03:49.000Z</time>
      </trkpt>
      <trkpt lat="43.72199" lon="6.95417">
        <ele>889.79998779297</ele>
        <time>2011-07-03T09:03:51.000Z</time>
      </trkpt>
      <trkpt lat="43.72206" lon="6.95429">
        <ele>888</ele>
        <time>2011-07-03T09:03:56.000Z</time>
      </trkpt>
      <trkpt lat="43.72208" lon="6.95437">
        <ele>887</ele>
        <time>2011-07-03T09:03:59.000Z</time>
      </trkpt>
      <trkpt lat="43.72213" lon="6.95454">
        <ele>885</ele>
        <time>2011-07-03T09:04:05.000Z</time>
      </trkpt>
      <trkpt lat="43.72219" lon="6.95461">
        <ele>883.79998779297</ele>
        <time>2011-07-03T09:04:08.000Z</time>
      </trkpt>
      <trkpt lat="43.72229" lon="6.95476">
        <ele>881.20001220703</ele>
        <time>2011-07-03T09:04:12.000Z</time>
      </trkpt>
      <trkpt lat="43.72233" lon="6.95487">
        <ele>880</ele>
        <time>2011-07-03T09:04:16.000Z</time>
      </trkpt>
      <trkpt lat="43.72242" lon="6.95489">
        <ele>878.59997558594</ele>
        <time>2011-07-03T09:04:21.000Z</time>
      </trkpt>
      <trkpt lat="43.72247" lon="6.95492">
        <ele>877.79998779297</ele>
        <time>2011-07-03T09:04:23.000Z</time>
      </trkpt>
      <trkpt lat="43.72251" lon="6.95508">
        <ele>875.59997558594</ele>
        <time>2011-07-03T09:04:27.000Z</time>
      </trkpt>
      <trkpt lat="43.72252" lon="6.95524">
        <ele>873.20001220703</ele>
        <time>2011-07-03T09:04:30.000Z</time>
      </trkpt>
      <trkpt lat="43.72257" lon="6.95538">
        <ele>870.20001220703</ele>
        <time>2011-07-03T09:04:35.000Z</time>
      </trkpt>
      <trkpt lat="43.72258" lon="6.95544">
        <ele>869</ele>
        <time>2011-07-03T09:04:37.000Z</time>
      </trkpt>
      <trkpt lat="43.72261" lon="6.95558">
        <ele>866.79998779297</ele>
        <time>2011-07-03T09:04:40.000Z</time>
      </trkpt>
      <trkpt lat="43.72254" lon="6.95573">
        <ele>866.40002441406</ele>
        <time>2011-07-03T09:04:45.000Z</time>
      </trkpt>
      <trkpt lat="43.72258" lon="6.95577">
        <ele>865.20001220703</ele>
        <time>2011-07-03T09:04:48.000Z</time>
      </trkpt>
      <trkpt lat="43.72264" lon="6.95587">
        <ele>862.79998779297</ele>
        <time>2011-07-03T09:04:52.000Z</time>
      </trkpt>
      <trkpt lat="43.72268" lon="6.95589">
        <ele>861.59997558594</ele>
        <time>2011-07-03T09:04:54.000Z</time>
      </trkpt>
      <trkpt lat="43.72281" lon="6.95599">
        <ele>858</ele>
        <time>2011-07-03T09:05:00.000Z</time>
      </trkpt>
      <trkpt lat="43.72291" lon="6.95613">
        <ele>855</ele>
        <time>2011-07-03T09:05:05.000Z</time>
      </trkpt>
      <trkpt lat="43.72293" lon="6.95624">
        <ele>853.79998779297</ele>
        <time>2011-07-03T09:05:09.000Z</time>
      </trkpt>
      <trkpt lat="43.72297" lon="6.95637">
        <ele>852.20001220703</ele>
        <time>2011-07-03T09:05:14.000Z</time>
      </trkpt>
      <trkpt lat="43.72307" lon="6.95643">
        <ele>850.79998779297</ele>
        <time>2011-07-03T09:05:18.000Z</time>
      </trkpt>
      <trkpt lat="43.72314" lon="6.95652">
        <ele>849.79998779297</ele>
        <time>2011-07-03T09:05:22.000Z</time>
      </trkpt>
      <trkpt lat="43.72322" lon="6.95669">
        <ele>848.20001220703</ele>
        <time>2011-07-03T09:05:27.000Z</time>
      </trkpt>
      <trkpt lat="43.7233" lon="6.95683">
        <ele>846</ele>
        <time>2011-07-03T09:05:31.000Z</time>
      </trkpt>
      <trkpt lat="43.72328" lon="6.95694">
        <ele>844.59997558594</ele>
        <time>2011-07-03T09:05:34.000Z</time>
      </trkpt>
      <trkpt lat="43.72326" lon="6.95708">
        <ele>842.79998779297</ele>
        <time>2011-07-03T09:05:39.000Z</time>
      </trkpt>
      <trkpt lat="43.72331" lon="6.95718">
        <ele>841.20001220703</ele>
        <time>2011-07-03T09:05:42.000Z</time>
      </trkpt>
      <trkpt lat="43.72335" lon="6.95728">
        <ele>839.59997558594</ele>
        <time>2011-07-03T09:05:45.000Z</time>
      </trkpt>
      <trkpt lat="43.72341" lon="6.95739">
        <ele>837.20001220703</ele>
        <time>2011-07-03T09:05:50.000Z</time>
      </trkpt>
      <trkpt lat="43.72344" lon="6.95747">
        <ele>835.59997558594</ele>
        <time>2011-07-03T09:05:52.000Z</time>
      </trkpt>
      <trkpt lat="43.72346" lon="6.95764">
        <ele>832.59997558594</ele>
        <time>2011-07-03T09:05:57.000Z</time>
      </trkpt>
      <trkpt lat="43.72347" lon="6.95769">
        <ele>831.79998779297</ele>
        <time>2011-07-03T09:06:05.000Z</time>
      </trkpt>
      <trkpt lat="43.72348" lon="6.95769">
        <ele>831.59997558594</ele>
        <time>2011-07-03T09:06:19.000Z</time>
      </trkpt>
      <trkpt lat="43.72348" lon="6.95772">
        <ele>831.20001220703</ele>
        <time>2011-07-03T09:06:33.000Z</time>
      </trkpt>
      <trkpt lat="43.72349" lon="6.95771">
        <ele>831.20001220703</ele>
        <time>2011-07-03T09:06:40.000Z</time>
      </trkpt>
      <trkpt lat="43.72351" lon="6.9577">
        <ele>831</ele>
        <time>2011-07-03T09:06:46.000Z</time>
      </trkpt>
      <trkpt lat="43.7235" lon="6.95769">
        <ele>831.40002441406</ele>
        <time>2011-07-03T09:06:59.000Z</time>
      </trkpt>
      <trkpt lat="43.7235" lon="6.9577">
        <ele>831.20001220703</ele>
        <time>2011-07-03T09:07:24.000Z</time>
      </trkpt>
      <trkpt lat="43.7235" lon="6.95771">
        <ele>831</ele>
        <time>2011-07-03T09:07:35.000Z</time>
      </trkpt>
      <trkpt lat="43.72348" lon="6.95772">
        <ele>831.20001220703</ele>
        <time>2011-07-03T09:08:13.000Z</time>
      </trkpt>
      <trkpt lat="43.72348" lon="6.9577">
        <ele>831.40002441406</ele>
        <time>2011-07-03T09:08:23.000Z</time>
      </trkpt>
      <trkpt lat="43.72346" lon="6.95771">
        <ele>831.59997558594</ele>
        <time>2011-07-03T09:08:44.000Z</time>
      </trkpt>
      <trkpt lat="43.72345" lon="6.9577">
        <ele>831.79998779297</ele>
        <time>2011-07-03T09:08:49.000Z</time>
      </trkpt>
      <trkpt lat="43.72345" lon="6.95771">
        <ele>831.79998779297</ele>
        <time>2011-07-03T09:08:59.000Z</time>
      </trkpt>
      <trkpt lat="43.72345" lon="6.95772">
        <ele>831.59997558594</ele>
        <time>2011-07-03T09:09:09.000Z</time>
      </trkpt>
      <trkpt lat="43.72347" lon="6.95773">
        <ele>831</ele>
        <time>2011-07-03T09:09:24.000Z</time>
      </trkpt>
      <trkpt lat="43.72347" lon="6.95774">
        <ele>831</ele>
        <time>2011-07-03T09:09:31.000Z</time>
      </trkpt>
      <trkpt lat="43.72347" lon="6.95786">
        <ele>829</ele>
        <time>2011-07-03T09:09:36.000Z</time>
      </trkpt>
      <trkpt lat="43.72348" lon="6.95791">
        <ele>828</ele>
        <time>2011-07-03T09:09:40.000Z</time>
      </trkpt>
      <trkpt lat="43.72339" lon="6.95806">
        <ele>826.40002441406</ele>
        <time>2011-07-03T09:09:48.000Z</time>
      </trkpt>
      <trkpt lat="43.72333" lon="6.95817">
        <ele>824.79998779297</ele>
        <time>2011-07-03T09:09:53.000Z</time>
      </trkpt>
      <trkpt lat="43.72322" lon="6.95827">
        <ele>823.20001220703</ele>
        <time>2011-07-03T09:09:58.000Z</time>
      </trkpt>
      <trkpt lat="43.72308" lon="6.95845">
        <ele>820.20001220703</ele>
        <time>2011-07-03T09:10:04.000Z</time>
      </trkpt>
      <trkpt lat="43.72301" lon="6.95858">
        <ele>817.79998779297</ele>
        <time>2011-07-03T09:10:08.000Z</time>
      </trkpt>
      <trkpt lat="43.72299" lon="6.9586">
        <ele>817.40002441406</ele>
        <time>2011-07-03T09:10:09.000Z</time>
      </trkpt>
      <trkpt lat="43.72294" lon="6.95877">
        <ele>814</ele>
        <time>2011-07-03T09:10:14.000Z</time>
      </trkpt>
      <trkpt lat="43.72292" lon="6.95884">
        <ele>812.59997558594</ele>
        <time>2011-07-03T09:10:16.000Z</time>
      </trkpt>
      <trkpt lat="43.72291" lon="6.95896">
        <ele>810.20001220703</ele>
        <time>2011-07-03T09:10:20.000Z</time>
      </trkpt>
      <trkpt lat="43.72289" lon="6.959">
        <ele>809.20001220703</ele>
        <time>2011-07-03T09:10:22.000Z</time>
      </trkpt>
      <trkpt lat="43.72287" lon="6.95914">
        <ele>806.40002441406</ele>
        <time>2011-07-03T09:10:27.000Z</time>
      </trkpt>
      <trkpt lat="43.72284" lon="6.95923">
        <ele>804.79998779297</ele>
        <time>2011-07-03T09:10:32.000Z</time>
      </trkpt>
      <trkpt lat="43.72288" lon="6.95941">
        <ele>801.59997558594</ele>
        <time>2011-07-03T09:10:37.000Z</time>
      </trkpt>
      <trkpt lat="43.72279" lon="6.95957">
        <ele>798.79998779297</ele>
        <time>2011-07-03T09:10:42.000Z</time>
      </trkpt>
      <trkpt lat="43.72263" lon="6.95976">
        <ele>795.59997558594</ele>
        <time>2011-07-03T09:10:48.000Z</time>
      </trkpt>
      <trkpt lat="43.72257" lon="6.95981">
        <ele>794.79998779297</ele>
        <time>2011-07-03T09:10:50.000Z</time>
      </trkpt>
      <trkpt lat="43.72244" lon="6.96001">
        <ele>791.59997558594</ele>
        <time>2011-07-03T09:10:55.000Z</time>
      </trkpt>
      <trkpt lat="43.72239" lon="6.9602">
        <ele>788.59997558594</ele>
        <time>2011-07-03T09:10:59.000Z</time>
      </trkpt>
      <trkpt lat="43.72239" lon="6.96025">
        <ele>788</ele>
        <time>2011-07-03T09:11:00.000Z</time>
      </trkpt>
      <trkpt lat="43.72243" lon="6.96065">
        <ele>781.59997558594</ele>
        <time>2011-07-03T09:11:06.000Z</time>
      </trkpt>
      <trkpt lat="43.72244" lon="6.96081">
        <ele>779.20001220703</ele>
        <time>2011-07-03T09:11:08.000Z</time>
      </trkpt>
      <trkpt lat="43.72242" lon="6.96094">
        <ele>777.79998779297</ele>
        <time>2011-07-03T09:11:10.000Z</time>
      </trkpt>
      <trkpt lat="43.7224" lon="6.96114">
        <ele>776</ele>
        <time>2011-07-03T09:11:15.000Z</time>
      </trkpt>
      <trkpt lat="43.72242" lon="6.96119">
        <ele>775.59997558594</ele>
        <time>2011-07-03T09:11:17.000Z</time>
      </trkpt>
      <trkpt lat="43.7224" lon="6.9613">
        <ele>774.40002441406</ele>
        <time>2011-07-03T09:11:22.000Z</time>
      </trkpt>
      <trkpt lat="43.72238" lon="6.96131">
        <ele>774.40002441406</ele>
        <time>2011-07-03T09:11:23.000Z</time>
      </trkpt>
      <trkpt lat="43.72229" lon="6.96132">
        <ele>774.40002441406</ele>
        <time>2011-07-03T09:11:30.000Z</time>
      </trkpt>
      <trkpt lat="43.72229" lon="6.96132">
        <ele>774.40002441406</ele>
        <time>2011-07-03T09:11:43.000Z</time>
      </trkpt>
      <trkpt lat="43.72228" lon="6.96133">
        <ele>774.40002441406</ele>
        <time>2011-07-03T09:11:55.000Z</time>
      </trkpt>
      <trkpt lat="43.72228" lon="6.96131">
        <ele>774.40002441406</ele>
        <time>2011-07-03T09:12:07.000Z</time>
      </trkpt>
      <trkpt lat="43.72228" lon="6.96132">
        <ele>774.40002441406</ele>
        <time>2011-07-03T09:12:11.000Z</time>
      </trkpt>
      <trkpt lat="43.72228" lon="6.96131">
        <ele>774.40002441406</ele>
        <time>2011-07-03T09:12:20.000Z</time>
      </trkpt>
      <trkpt lat="43.72228" lon="6.96132">
        <ele>774.40002441406</ele>
        <time>2011-07-03T09:12:34.000Z</time>
      </trkpt>
      <trkpt lat="43.72228" lon="6.96132">
        <ele>774.40002441406</ele>
        <time>2011-07-03T09:12:46.000Z</time>
      </trkpt>
      <trkpt lat="43.72226" lon="6.96131">
        <ele>774.40002441406</ele>
        <time>2011-07-03T09:12:48.000Z</time>
      </trkpt>
      <trkpt lat="43.72213" lon="6.96121">
        <ele>775.40002441406</ele>
        <time>2011-07-03T09:12:54.000Z</time>
      </trkpt>
      <trkpt lat="43.72199" lon="6.96101">
        <ele>777.40002441406</ele>
        <time>2011-07-03T09:13:02.000Z</time>
      </trkpt>
      <trkpt lat="43.72195" lon="6.96084">
        <ele>778.79998779297</ele>
        <time>2011-07-03T09:13:07.000Z</time>
      </trkpt>
      <trkpt lat="43.72197" lon="6.96075">
        <ele>780.20001220703</ele>
        <time>2011-07-03T09:13:12.000Z</time>
      </trkpt>
      <trkpt lat="43.72193" lon="6.96077">
        <ele>779.79998779297</ele>
        <time>2011-07-03T09:13:16.000Z</time>
      </trkpt>
      <trkpt lat="43.72196" lon="6.96087">
        <ele>778.59997558594</ele>
        <time>2011-07-03T09:13:20.000Z</time>
      </trkpt>
      <trkpt lat="43.72197" lon="6.96091">
        <ele>778.20001220703</ele>
        <time>2011-07-03T09:13:25.000Z</time>
      </trkpt>
      <trkpt lat="43.72199" lon="6.96097">
        <ele>777.79998779297</ele>
        <time>2011-07-03T09:13:29.000Z</time>
      </trkpt>
      <trkpt lat="43.72209" lon="6.96113">
        <ele>776.20001220703</ele>
        <time>2011-07-03T09:13:34.000Z</time>
      </trkpt>
      <trkpt lat="43.72229" lon="6.96128">
        <ele>774.79998779297</ele>
        <time>2011-07-03T09:13:41.000Z</time>
      </trkpt>
      <trkpt lat="43.72247" lon="6.96132">
        <ele>774.20001220703</ele>
        <time>2011-07-03T09:13:47.000Z</time>
      </trkpt>
      <trkpt lat="43.72255" lon="6.96147">
        <ele>773.40002441406</ele>
        <time>2011-07-03T09:13:50.000Z</time>
      </trkpt>
      <trkpt lat="43.72254" lon="6.96172">
        <ele>771.59997558594</ele>
        <time>2011-07-03T09:13:54.000Z</time>
      </trkpt>
      <trkpt lat="43.72247" lon="6.96195">
        <ele>770.79998779297</ele>
        <time>2011-07-03T09:13:57.000Z</time>
      </trkpt>
      <trkpt lat="43.72247" lon="6.9622">
        <ele>770.79998779297</ele>
        <time>2011-07-03T09:14:01.000Z</time>
      </trkpt>
      <trkpt lat="43.72248" lon="6.96241">
        <ele>770.79998779297</ele>
        <time>2011-07-03T09:14:04.000Z</time>
      </trkpt>
      <trkpt lat="43.72245" lon="6.96262">
        <ele>770.40002441406</ele>
        <time>2011-07-03T09:14:08.000Z</time>
      </trkpt>
      <trkpt lat="43.7224" lon="6.96277">
        <ele>769.59997558594</ele>
        <time>2011-07-03T09:14:11.000Z</time>
      </trkpt>
      <trkpt lat="43.72236" lon="6.96288">
        <ele>769.20001220703</ele>
        <time>2011-07-03T09:14:13.000Z</time>
      </trkpt>
      <trkpt lat="43.72231" lon="6.9631">
        <ele>768.20001220703</ele>
        <time>2011-07-03T09:14:17.000Z</time>
      </trkpt>
      <trkpt lat="43.72211" lon="6.96352">
        <ele>766</ele>
        <time>2011-07-03T09:14:25.000Z</time>
      </trkpt>
      <trkpt lat="43.72205" lon="6.96362">
        <ele>765.59997558594</ele>
        <time>2011-07-03T09:14:27.000Z</time>
      </trkpt>
      <trkpt lat="43.72198" lon="6.96391">
        <ele>764.79998779297</ele>
        <time>2011-07-03T09:14:32.000Z</time>
      </trkpt>
      <trkpt lat="43.72198" lon="6.96404">
        <ele>764.59997558594</ele>
        <time>2011-07-03T09:14:34.000Z</time>
      </trkpt>
      <trkpt lat="43.72203" lon="6.9646">
        <ele>762.79998779297</ele>
        <time>2011-07-03T09:14:40.000Z</time>
      </trkpt>
      <trkpt lat="43.72205" lon="6.96477">
        <ele>762.20001220703</ele>
        <time>2011-07-03T09:14:42.000Z</time>
      </trkpt>
      <trkpt lat="43.72203" lon="6.96496">
        <ele>761.40002441406</ele>
        <time>2011-07-03T09:14:46.000Z</time>
      </trkpt>
      <trkpt lat="43.72198" lon="6.96497">
        <ele>761.20001220703</ele>
        <time>2011-07-03T09:14:48.000Z</time>
      </trkpt>
      <trkpt lat="43.72182" lon="6.96494">
        <ele>760.79998779297</ele>
        <time>2011-07-03T09:14:56.000Z</time>
      </trkpt>
      <trkpt lat="43.7217" lon="6.96502">
        <ele>760</ele>
        <time>2011-07-03T09:15:02.000Z</time>
      </trkpt>
      <trkpt lat="43.72159" lon="6.96514">
        <ele>759</ele>
        <time>2011-07-03T09:15:08.000Z</time>
      </trkpt>
      <trkpt lat="43.72147" lon="6.96523">
        <ele>758.20001220703</ele>
        <time>2011-07-03T09:15:13.000Z</time>
      </trkpt>
      <trkpt lat="43.72133" lon="6.96534">
        <ele>757.20001220703</ele>
        <time>2011-07-03T09:15:19.000Z</time>
      </trkpt>
      <trkpt lat="43.72116" lon="6.96545">
        <ele>756.59997558594</ele>
        <time>2011-07-03T09:15:25.000Z</time>
      </trkpt>
      <trkpt lat="43.72092" lon="6.96551">
        <ele>756</ele>
        <time>2011-07-03T09:15:32.000Z</time>
      </trkpt>
      <trkpt lat="43.7207" lon="6.96552">
        <ele>752</ele>
        <time>2011-07-03T09:15:38.000Z</time>
      </trkpt>
      <trkpt lat="43.72061" lon="6.96538">
        <ele>749.40002441406</ele>
        <time>2011-07-03T09:15:41.000Z</time>
      </trkpt>
      <trkpt lat="43.72056" lon="6.96515">
        <ele>748.59997558594</ele>
        <time>2011-07-03T09:15:44.000Z</time>
      </trkpt>
      <trkpt lat="43.72053" lon="6.96456">
        <ele>749.59997558594</ele>
        <time>2011-07-03T09:15:51.000Z</time>
      </trkpt>
      <trkpt lat="43.72051" lon="6.96426">
        <ele>750.20001220703</ele>
        <time>2011-07-03T09:15:55.000Z</time>
      </trkpt>
      <trkpt lat="43.7204" lon="6.96381">
        <ele>750.79998779297</ele>
        <time>2011-07-03T09:16:02.000Z</time>
      </trkpt>
      <trkpt lat="43.72033" lon="6.96365">
        <ele>750.79998779297</ele>
        <time>2011-07-03T09:16:05.000Z</time>
      </trkpt>
      <trkpt lat="43.72026" lon="6.96338">
        <ele>752.20001220703</ele>
        <time>2011-07-03T09:16:10.000Z</time>
      </trkpt>
      <trkpt lat="43.72026" lon="6.96321">
        <ele>754</ele>
        <time>2011-07-03T09:16:13.000Z</time>
      </trkpt>
      <trkpt lat="43.72019" lon="6.96283">
        <ele>758</ele>
        <time>2011-07-03T09:16:21.000Z</time>
      </trkpt>
      <trkpt lat="43.7201" lon="6.9626">
        <ele>759.79998779297</ele>
        <time>2011-07-03T09:16:27.000Z</time>
      </trkpt>
      <trkpt lat="43.72006" lon="6.9624">
        <ele>762.59997558594</ele>
        <time>2011-07-03T09:16:32.000Z</time>
      </trkpt>
      <trkpt lat="43.72004" lon="6.96216">
        <ele>766.79998779297</ele>
        <time>2011-07-03T09:16:39.000Z</time>
      </trkpt>
      <trkpt lat="43.72001" lon="6.96202">
        <ele>769.40002441406</ele>
        <time>2011-07-03T09:16:45.000Z</time>
      </trkpt>
      <trkpt lat="43.71997" lon="6.96199">
        <ele>769.59997558594</ele>
        <time>2011-07-03T09:16:50.000Z</time>
      </trkpt>
      <trkpt lat="43.71992" lon="6.96194">
        <ele>770</ele>
        <time>2011-07-03T09:16:56.000Z</time>
      </trkpt>
      <trkpt lat="43.71987" lon="6.96192">
        <ele>770</ele>
        <time>2011-07-03T09:17:02.000Z</time>
      </trkpt>
      <trkpt lat="43.71978" lon="6.96191">
        <ele>769.59997558594</ele>
        <time>2011-07-03T09:17:08.000Z</time>
      </trkpt>
      <trkpt lat="43.71963" lon="6.96179">
        <ele>771.40002441406</ele>
        <time>2011-07-03T09:17:13.000Z</time>
      </trkpt>
      <trkpt lat="43.71939" lon="6.96172">
        <ele>771.40002441406</ele>
        <time>2011-07-03T09:17:18.000Z</time>
      </trkpt>
      <trkpt lat="43.71926" lon="6.96175">
        <ele>770</ele>
        <time>2011-07-03T09:17:21.000Z</time>
      </trkpt>
      <trkpt lat="43.71902" lon="6.96182">
        <ele>769.40002441406</ele>
        <time>2011-07-03T09:17:27.000Z</time>
      </trkpt>
      <trkpt lat="43.7189" lon="6.96185">
        <ele>770</ele>
        <time>2011-07-03T09:17:30.000Z</time>
      </trkpt>
      <trkpt lat="43.71864" lon="6.96191">
        <ele>771.59997558594</ele>
        <time>2011-07-03T09:17:37.000Z</time>
      </trkpt>
      <trkpt lat="43.71848" lon="6.962">
        <ele>771.59997558594</ele>
        <time>2011-07-03T09:17:42.000Z</time>
      </trkpt>
      <trkpt lat="43.71838" lon="6.96217">
        <ele>769.20001220703</ele>
        <time>2011-07-03T09:17:46.000Z</time>
      </trkpt>
      <trkpt lat="43.7182" lon="6.9624">
        <ele>766.79998779297</ele>
        <time>2011-07-03T09:17:53.000Z</time>
      </trkpt>
      <trkpt lat="43.71808" lon="6.96259">
        <ele>766.20001220703</ele>
        <time>2011-07-03T09:17:58.000Z</time>
      </trkpt>
      <trkpt lat="43.71798" lon="6.96292">
        <ele>766.59997558594</ele>
        <time>2011-07-03T09:18:05.000Z</time>
      </trkpt>
      <trkpt lat="43.71796" lon="6.96314">
        <ele>766</ele>
        <time>2011-07-03T09:18:10.000Z</time>
      </trkpt>
      <trkpt lat="43.71789" lon="6.96351">
        <ele>766.59997558594</ele>
        <time>2011-07-03T09:18:20.000Z</time>
      </trkpt>
      <trkpt lat="43.71781" lon="6.96381">
        <ele>767.59997558594</ele>
        <time>2011-07-03T09:18:28.000Z</time>
      </trkpt>
      <trkpt lat="43.71773" lon="6.96402">
        <ele>769</ele>
        <time>2011-07-03T09:18:34.000Z</time>
      </trkpt>
      <trkpt lat="43.71758" lon="6.96426">
        <ele>772</ele>
        <time>2011-07-03T09:18:42.000Z</time>
      </trkpt>
      <trkpt lat="43.71738" lon="6.96446">
        <ele>775.79998779297</ele>
        <time>2011-07-03T09:18:50.000Z</time>
      </trkpt>
      <trkpt lat="43.71718" lon="6.96463">
        <ele>778</ele>
        <time>2011-07-03T09:18:58.000Z</time>
      </trkpt>
      <trkpt lat="43.71708" lon="6.96481">
        <ele>778.59997558594</ele>
        <time>2011-07-03T09:19:04.000Z</time>
      </trkpt>
      <trkpt lat="43.71701" lon="6.96499">
        <ele>778</ele>
        <time>2011-07-03T09:19:09.000Z</time>
      </trkpt>
      <trkpt lat="43.71688" lon="6.96523">
        <ele>777.59997558594</ele>
        <time>2011-07-03T09:19:17.000Z</time>
      </trkpt>
      <trkpt lat="43.71674" lon="6.96536">
        <ele>777.79998779297</ele>
        <time>2011-07-03T09:19:23.000Z</time>
      </trkpt>
      <trkpt lat="43.71653" lon="6.96551">
        <ele>779.20001220703</ele>
        <time>2011-07-03T09:19:28.000Z</time>
      </trkpt>
      <trkpt lat="43.71649" lon="6.96555">
        <ele>779.40002441406</ele>
        <time>2011-07-03T09:19:29.000Z</time>
      </trkpt>
      <trkpt lat="43.71635" lon="6.96574">
        <ele>780</ele>
        <time>2011-07-03T09:19:33.000Z</time>
      </trkpt>
      <trkpt lat="43.71614" lon="6.96616">
        <ele>780.40002441406</ele>
        <time>2011-07-03T09:19:41.000Z</time>
      </trkpt>
      <trkpt lat="43.7161" lon="6.96626">
        <ele>780.20001220703</ele>
        <time>2011-07-03T09:19:43.000Z</time>
      </trkpt>
      <trkpt lat="43.71597" lon="6.96651">
        <ele>779.40002441406</ele>
        <time>2011-07-03T09:19:49.000Z</time>
      </trkpt>
      <trkpt lat="43.71584" lon="6.96678">
        <ele>778.79998779297</ele>
        <time>2011-07-03T09:19:56.000Z</time>
      </trkpt>
      <trkpt lat="43.71575" lon="6.96697">
        <ele>779.40002441406</ele>
        <time>2011-07-03T09:20:01.000Z</time>
      </trkpt>
      <trkpt lat="43.71569" lon="6.96717">
        <ele>779.79998779297</ele>
        <time>2011-07-03T09:20:06.000Z</time>
      </trkpt>
      <trkpt lat="43.71551" lon="6.96742">
        <ele>781.20001220703</ele>
        <time>2011-07-03T09:20:14.000Z</time>
      </trkpt>
      <trkpt lat="43.71534" lon="6.96752">
        <ele>782.59997558594</ele>
        <time>2011-07-03T09:20:20.000Z</time>
      </trkpt>
      <trkpt lat="43.71515" lon="6.96756">
        <ele>784.40002441406</ele>
        <time>2011-07-03T09:20:27.000Z</time>
      </trkpt>
      <trkpt lat="43.71498" lon="6.96753">
        <ele>785.59997558594</ele>
        <time>2011-07-03T09:20:34.000Z</time>
      </trkpt>
      <trkpt lat="43.71491" lon="6.9675">
        <ele>785.40002441406</ele>
        <time>2011-07-03T09:20:39.000Z</time>
      </trkpt>
      <trkpt lat="43.71493" lon="6.9675">
        <ele>785.40002441406</ele>
        <time>2011-07-03T09:20:56.000Z</time>
      </trkpt>
      <trkpt lat="43.7149" lon="6.96748">
        <ele>785.40002441406</ele>
        <time>2011-07-03T09:21:12.000Z</time>
      </trkpt>
      <trkpt lat="43.71481" lon="6.96745">
        <ele>785</ele>
        <time>2011-07-03T09:21:19.000Z</time>
      </trkpt>
      <trkpt lat="43.7147" lon="6.96736">
        <ele>784.59997558594</ele>
        <time>2011-07-03T09:21:24.000Z</time>
      </trkpt>
      <trkpt lat="43.71459" lon="6.96719">
        <ele>784.59997558594</ele>
        <time>2011-07-03T09:21:29.000Z</time>
      </trkpt>
      <trkpt lat="43.71441" lon="6.967">
        <ele>784.20001220703</ele>
        <time>2011-07-03T09:21:35.000Z</time>
      </trkpt>
      <trkpt lat="43.71425" lon="6.96697">
        <ele>783.40002441406</ele>
        <time>2011-07-03T09:21:39.000Z</time>
      </trkpt>
      <trkpt lat="43.71406" lon="6.96706">
        <ele>781.40002441406</ele>
        <time>2011-07-03T09:21:44.000Z</time>
      </trkpt>
      <trkpt lat="43.71378" lon="6.96718">
        <ele>778.40002441406</ele>
        <time>2011-07-03T09:21:50.000Z</time>
      </trkpt>
      <trkpt lat="43.7136" lon="6.96726">
        <ele>776.40002441406</ele>
        <time>2011-07-03T09:21:55.000Z</time>
      </trkpt>
      <trkpt lat="43.71349" lon="6.9672">
        <ele>775.40002441406</ele>
        <time>2011-07-03T09:21:58.000Z</time>
      </trkpt>
      <trkpt lat="43.71338" lon="6.96727">
        <ele>774.20001220703</ele>
        <time>2011-07-03T09:22:01.000Z</time>
      </trkpt>
      <trkpt lat="43.71316" lon="6.96751">
        <ele>771.20001220703</ele>
        <time>2011-07-03T09:22:06.000Z</time>
      </trkpt>
      <trkpt lat="43.71302" lon="6.9677">
        <ele>768.59997558594</ele>
        <time>2011-07-03T09:22:09.000Z</time>
      </trkpt>
      <trkpt lat="43.71292" lon="6.96782">
        <ele>766.79998779297</ele>
        <time>2011-07-03T09:22:11.000Z</time>
      </trkpt>
      <trkpt lat="43.71276" lon="6.96805">
        <ele>763.59997558594</ele>
        <time>2011-07-03T09:22:15.000Z</time>
      </trkpt>
      <trkpt lat="43.71269" lon="6.96813">
        <ele>762.40002441406</ele>
        <time>2011-07-03T09:22:20.000Z</time>
      </trkpt>
      <trkpt lat="43.7127" lon="6.96815">
        <ele>762.20001220703</ele>
        <time>2011-07-03T09:22:25.000Z</time>
      </trkpt>
      <trkpt lat="43.71269" lon="6.96817">
        <ele>762.20001220703</ele>
        <time>2011-07-03T09:22:28.000Z</time>
      </trkpt>
      <trkpt lat="43.71257" lon="6.96832">
        <ele>759.79998779297</ele>
        <time>2011-07-03T09:22:34.000Z</time>
      </trkpt>
      <trkpt lat="43.71239" lon="6.9684">
        <ele>756.79998779297</ele>
        <time>2011-07-03T09:22:38.000Z</time>
      </trkpt>
      <trkpt lat="43.71215" lon="6.96841">
        <ele>754</ele>
        <time>2011-07-03T09:22:42.000Z</time>
      </trkpt>
      <trkpt lat="43.71185" lon="6.96841">
        <ele>750.20001220703</ele>
        <time>2011-07-03T09:22:47.000Z</time>
      </trkpt>
      <trkpt lat="43.71164" lon="6.96837">
        <ele>748</ele>
        <time>2011-07-03T09:22:51.000Z</time>
      </trkpt>
      <trkpt lat="43.71142" lon="6.96828">
        <ele>745.20001220703</ele>
        <time>2011-07-03T09:22:56.000Z</time>
      </trkpt>
      <trkpt lat="43.71134" lon="6.96824">
        <ele>744.40002441406</ele>
        <time>2011-07-03T09:23:00.000Z</time>
      </trkpt>
      <trkpt lat="43.71132" lon="6.96824">
        <ele>744</ele>
        <time>2011-07-03T09:23:18.000Z</time>
      </trkpt>
      <trkpt lat="43.71124" lon="6.96823">
        <ele>743</ele>
        <time>2011-07-03T09:23:22.000Z</time>
      </trkpt>
      <trkpt lat="43.71123" lon="6.96824">
        <ele>742.59997558594</ele>
        <time>2011-07-03T09:23:29.000Z</time>
      </trkpt>
      <trkpt lat="43.71122" lon="6.96824">
        <ele>742.40002441406</ele>
        <time>2011-07-03T09:23:34.000Z</time>
      </trkpt>
      <trkpt lat="43.71107" lon="6.96819">
        <ele>740.40002441406</ele>
        <time>2011-07-03T09:23:39.000Z</time>
      </trkpt>
      <trkpt lat="43.7108" lon="6.96811">
        <ele>737.20001220703</ele>
        <time>2011-07-03T09:23:44.000Z</time>
      </trkpt>
      <trkpt lat="43.71068" lon="6.96807">
        <ele>735.79998779297</ele>
        <time>2011-07-03T09:23:46.000Z</time>
      </trkpt>
      <trkpt lat="43.71058" lon="6.96801">
        <ele>735</ele>
        <time>2011-07-03T09:23:48.000Z</time>
      </trkpt>
      <trkpt lat="43.71029" lon="6.96778">
        <ele>732.79998779297</ele>
        <time>2011-07-03T09:23:53.000Z</time>
      </trkpt>
      <trkpt lat="43.71013" lon="6.96773">
        <ele>730.79998779297</ele>
        <time>2011-07-03T09:23:56.000Z</time>
      </trkpt>
      <trkpt lat="43.7101" lon="6.96775">
        <ele>730.20001220703</ele>
        <time>2011-07-03T09:23:57.000Z</time>
      </trkpt>
      <trkpt lat="43.70983" lon="6.96782">
        <ele>728.40002441406</ele>
        <time>2011-07-03T09:24:03.000Z</time>
      </trkpt>
      <trkpt lat="43.70971" lon="6.96785">
        <ele>728.40002441406</ele>
        <time>2011-07-03T09:24:05.000Z</time>
      </trkpt>
      <trkpt lat="43.70951" lon="6.96784">
        <ele>729</ele>
        <time>2011-07-03T09:24:09.000Z</time>
      </trkpt>
      <trkpt lat="43.70939" lon="6.96788">
        <ele>729</ele>
        <time>2011-07-03T09:24:14.000Z</time>
      </trkpt>
      <trkpt lat="43.70938" lon="6.96795">
        <ele>728.59997558594</ele>
        <time>2011-07-03T09:24:16.000Z</time>
      </trkpt>
      <trkpt lat="43.70939" lon="6.96819">
        <ele>726.40002441406</ele>
        <time>2011-07-03T09:24:22.000Z</time>
      </trkpt>
      <trkpt lat="43.7094" lon="6.96844">
        <ele>723.79998779297</ele>
        <time>2011-07-03T09:24:27.000Z</time>
      </trkpt>
      <trkpt lat="43.70937" lon="6.96869">
        <ele>720.79998779297</ele>
        <time>2011-07-03T09:24:32.000Z</time>
      </trkpt>
      <trkpt lat="43.70933" lon="6.9689">
        <ele>718.40002441406</ele>
        <time>2011-07-03T09:24:37.000Z</time>
      </trkpt>
      <trkpt lat="43.7093" lon="6.96912">
        <ele>716</ele>
        <time>2011-07-03T09:24:41.000Z</time>
      </trkpt>
      <trkpt lat="43.70929" lon="6.96924">
        <ele>714.59997558594</ele>
        <time>2011-07-03T09:24:44.000Z</time>
      </trkpt>
      <trkpt lat="43.70929" lon="6.96939">
        <ele>712.79998779297</ele>
        <time>2011-07-03T09:24:49.000Z</time>
      </trkpt>
      <trkpt lat="43.70926" lon="6.96958">
        <ele>710.59997558594</ele>
        <time>2011-07-03T09:24:54.000Z</time>
      </trkpt>
      <trkpt lat="43.70924" lon="6.96983">
        <ele>707.79998779297</ele>
        <time>2011-07-03T09:25:00.000Z</time>
      </trkpt>
      <trkpt lat="43.70922" lon="6.96993">
        <ele>706.59997558594</ele>
        <time>2011-07-03T09:25:03.000Z</time>
      </trkpt>
      <trkpt lat="43.7092" lon="6.96995">
        <ele>706.40002441406</ele>
        <time>2011-07-03T09:25:05.000Z</time>
      </trkpt>
      <trkpt lat="43.70916" lon="6.9701">
        <ele>705</ele>
        <time>2011-07-03T09:25:12.000Z</time>
      </trkpt>
      <trkpt lat="43.70914" lon="6.97015">
        <ele>704.59997558594</ele>
        <time>2011-07-03T09:25:16.000Z</time>
      </trkpt>
      <trkpt lat="43.70915" lon="6.97016">
        <ele>704.40002441406</ele>
        <time>2011-07-03T09:25:33.000Z</time>
      </trkpt>
      <trkpt lat="43.70914" lon="6.97017">
        <ele>704.40002441406</ele>
        <time>2011-07-03T09:25:57.000Z</time>
      </trkpt>
      <trkpt lat="43.70914" lon="6.97015">
        <ele>704.59997558594</ele>
        <time>2011-07-03T09:26:10.000Z</time>
      </trkpt>
      <trkpt lat="43.70915" lon="6.97016">
        <ele>704.40002441406</ele>
        <time>2011-07-03T09:26:15.000Z</time>
      </trkpt>
      <trkpt lat="43.70909" lon="6.97027">
        <ele>703.59997558594</ele>
        <time>2011-07-03T09:26:20.000Z</time>
      </trkpt>
      <trkpt lat="43.709" lon="6.97046">
        <ele>702</ele>
        <time>2011-07-03T09:26:26.000Z</time>
      </trkpt>
      <trkpt lat="43.7089" lon="6.97063">
        <ele>700</ele>
        <time>2011-07-03T09:26:32.000Z</time>
      </trkpt>
      <trkpt lat="43.70885" lon="6.97072">
        <ele>699</ele>
        <time>2011-07-03T09:26:37.000Z</time>
      </trkpt>
      <trkpt lat="43.70882" lon="6.97075">
        <ele>698.59997558594</ele>
        <time>2011-07-03T09:26:55.000Z</time>
      </trkpt>
      <trkpt lat="43.70884" lon="6.97072">
        <ele>699</ele>
        <time>2011-07-03T09:27:17.000Z</time>
      </trkpt>
      <trkpt lat="43.70884" lon="6.97071">
        <ele>699</ele>
        <time>2011-07-03T09:27:28.000Z</time>
      </trkpt>
      <trkpt lat="43.70883" lon="6.97072">
        <ele>699</ele>
        <time>2011-07-03T09:27:32.000Z</time>
      </trkpt>
      <trkpt lat="43.70867" lon="6.97076">
        <ele>698.40002441406</ele>
        <time>2011-07-03T09:27:38.000Z</time>
      </trkpt>
      <trkpt lat="43.70847" lon="6.97075">
        <ele>698.40002441406</ele>
        <time>2011-07-03T09:27:42.000Z</time>
      </trkpt>
      <trkpt lat="43.70838" lon="6.97077">
        <ele>698</ele>
        <time>2011-07-03T09:27:44.000Z</time>
      </trkpt>
      <trkpt lat="43.70816" lon="6.97078">
        <ele>696.59997558594</ele>
        <time>2011-07-03T09:27:49.000Z</time>
      </trkpt>
      <trkpt lat="43.70797" lon="6.97077">
        <ele>695</ele>
        <time>2011-07-03T09:27:53.000Z</time>
      </trkpt>
      <trkpt lat="43.70787" lon="6.97078">
        <ele>694.20001220703</ele>
        <time>2011-07-03T09:27:55.000Z</time>
      </trkpt>
      <trkpt lat="43.70759" lon="6.9707">
        <ele>693.59997558594</ele>
        <time>2011-07-03T09:28:01.000Z</time>
      </trkpt>
      <trkpt lat="43.7075" lon="6.97068">
        <ele>693.40002441406</ele>
        <time>2011-07-03T09:28:03.000Z</time>
      </trkpt>
      <trkpt lat="43.70728" lon="6.97066">
        <ele>692.59997558594</ele>
        <time>2011-07-03T09:28:08.000Z</time>
      </trkpt>
      <trkpt lat="43.70724" lon="6.97067">
        <ele>692.20001220703</ele>
        <time>2011-07-03T09:28:09.000Z</time>
      </trkpt>
      <trkpt lat="43.70715" lon="6.97068">
        <ele>691.59997558594</ele>
        <time>2011-07-03T09:28:11.000Z</time>
      </trkpt>
      <trkpt lat="43.70705" lon="6.97069">
        <ele>690.59997558594</ele>
        <time>2011-07-03T09:28:13.000Z</time>
      </trkpt>
      <trkpt lat="43.70686" lon="6.97069">
        <ele>689.79998779297</ele>
        <time>2011-07-03T09:28:17.000Z</time>
      </trkpt>
      <trkpt lat="43.70656" lon="6.97069">
        <ele>687.59997558594</ele>
        <time>2011-07-03T09:28:23.000Z</time>
      </trkpt>
      <trkpt lat="43.70642" lon="6.97069">
        <ele>686.40002441406</ele>
        <time>2011-07-03T09:28:26.000Z</time>
      </trkpt>
      <trkpt lat="43.70627" lon="6.9707">
        <ele>684.59997558594</ele>
        <time>2011-07-03T09:28:29.000Z</time>
      </trkpt>
      <trkpt lat="43.70597" lon="6.97067">
        <ele>682.40002441406</ele>
        <time>2011-07-03T09:28:35.000Z</time>
      </trkpt>
      <trkpt lat="43.70579" lon="6.97064">
        <ele>681</ele>
        <time>2011-07-03T09:28:39.000Z</time>
      </trkpt>
      <trkpt lat="43.70548" lon="6.97062">
        <ele>677.59997558594</ele>
        <time>2011-07-03T09:28:46.000Z</time>
      </trkpt>
      <trkpt lat="43.70543" lon="6.97062">
        <ele>677</ele>
        <time>2011-07-03T09:28:47.000Z</time>
      </trkpt>
      <trkpt lat="43.70534" lon="6.97061">
        <ele>676</ele>
        <time>2011-07-03T09:28:49.000Z</time>
      </trkpt>
      <trkpt lat="43.70504" lon="6.97056">
        <ele>673.40002441406</ele>
        <time>2011-07-03T09:28:56.000Z</time>
      </trkpt>
      <trkpt lat="43.70492" lon="6.97049">
        <ele>672</ele>
        <time>2011-07-03T09:28:59.000Z</time>
      </trkpt>
      <trkpt lat="43.70476" lon="6.97035">
        <ele>670.20001220703</ele>
        <time>2011-07-03T09:29:04.000Z</time>
      </trkpt>
      <trkpt lat="43.70458" lon="6.97012">
        <ele>668.79998779297</ele>
        <time>2011-07-03T09:29:11.000Z</time>
      </trkpt>
      <trkpt lat="43.7044" lon="6.96989">
        <ele>667</ele>
        <time>2011-07-03T09:29:18.000Z</time>
      </trkpt>
      <trkpt lat="43.70422" lon="6.96962">
        <ele>664.20001220703</ele>
        <time>2011-07-03T09:29:24.000Z</time>
      </trkpt>
      <trkpt lat="43.70413" lon="6.96948">
        <ele>662.20001220703</ele>
        <time>2011-07-03T09:29:27.000Z</time>
      </trkpt>
      <trkpt lat="43.70399" lon="6.96922">
        <ele>658.40002441406</ele>
        <time>2011-07-03T09:29:33.000Z</time>
      </trkpt>
      <trkpt lat="43.70397" lon="6.96917">
        <ele>658</ele>
        <time>2011-07-03T09:29:34.000Z</time>
      </trkpt>
      <trkpt lat="43.70384" lon="6.96877">
        <ele>655.79998779297</ele>
        <time>2011-07-03T09:29:42.000Z</time>
      </trkpt>
      <trkpt lat="43.7038" lon="6.96867">
        <ele>654.59997558594</ele>
        <time>2011-07-03T09:29:44.000Z</time>
      </trkpt>
      <trkpt lat="43.70376" lon="6.96849">
        <ele>654.20001220703</ele>
        <time>2011-07-03T09:29:47.000Z</time>
      </trkpt>
      <trkpt lat="43.70368" lon="6.96828">
        <ele>651.59997558594</ele>
        <time>2011-07-03T09:29:52.000Z</time>
      </trkpt>
      <trkpt lat="43.70367" lon="6.96825">
        <ele>651.59997558594</ele>
        <time>2011-07-03T09:29:53.000Z</time>
      </trkpt>
      <trkpt lat="43.70366" lon="6.96799">
        <ele>652.40002441406</ele>
        <time>2011-07-03T09:29:59.000Z</time>
      </trkpt>
      <trkpt lat="43.70365" lon="6.96778">
        <ele>653.59997558594</ele>
        <time>2011-07-03T09:30:04.000Z</time>
      </trkpt>
      <trkpt lat="43.70364" lon="6.9675">
        <ele>655</ele>
        <time>2011-07-03T09:30:10.000Z</time>
      </trkpt>
      <trkpt lat="43.70358" lon="6.96716">
        <ele>654</ele>
        <time>2011-07-03T09:30:17.000Z</time>
      </trkpt>
      <trkpt lat="43.70354" lon="6.96693">
        <ele>653.20001220703</ele>
        <time>2011-07-03T09:30:22.000Z</time>
      </trkpt>
      <trkpt lat="43.70353" lon="6.96692">
        <ele>653</ele>
        <time>2011-07-03T09:30:27.000Z</time>
      </trkpt>
      <trkpt lat="43.70353" lon="6.96694">
        <ele>652.59997558594</ele>
        <time>2011-07-03T09:30:32.000Z</time>
      </trkpt>
      <trkpt lat="43.70352" lon="6.9669">
        <ele>652.40002441406</ele>
        <time>2011-07-03T09:30:37.000Z</time>
      </trkpt>
      <trkpt lat="43.70348" lon="6.9667">
        <ele>651.59997558594</ele>
        <time>2011-07-03T09:30:42.000Z</time>
      </trkpt>
      <trkpt lat="43.70339" lon="6.96639">
        <ele>649.20001220703</ele>
        <time>2011-07-03T09:30:48.000Z</time>
      </trkpt>
      <trkpt lat="43.70337" lon="6.96617">
        <ele>649.59997558594</ele>
        <time>2011-07-03T09:30:54.000Z</time>
      </trkpt>
      <trkpt lat="43.70335" lon="6.96597">
        <ele>649.79998779297</ele>
        <time>2011-07-03T09:30:59.000Z</time>
      </trkpt>
      <trkpt lat="43.70335" lon="6.96571">
        <ele>652.40002441406</ele>
        <time>2011-07-03T09:31:05.000Z</time>
      </trkpt>
      <trkpt lat="43.70336" lon="6.96569">
        <ele>653.20001220703</ele>
        <time>2011-07-03T09:31:07.000Z</time>
      </trkpt>
      <trkpt lat="43.70337" lon="6.9656">
        <ele>655.20001220703</ele>
        <time>2011-07-03T09:31:12.000Z</time>
      </trkpt>
      <trkpt lat="43.70337" lon="6.96554">
        <ele>656.20001220703</ele>
        <time>2011-07-03T09:31:17.000Z</time>
      </trkpt>
      <trkpt lat="43.7034" lon="6.96554">
        <ele>658</ele>
        <time>2011-07-03T09:31:30.000Z</time>
      </trkpt>
      <trkpt lat="43.70338" lon="6.96552">
        <ele>657.20001220703</ele>
        <time>2011-07-03T09:31:43.000Z</time>
      </trkpt>
      <trkpt lat="43.70338" lon="6.96551">
        <ele>657.20001220703</ele>
        <time>2011-07-03T09:31:54.000Z</time>
      </trkpt>
      <trkpt lat="43.70339" lon="6.96552">
        <ele>657.20001220703</ele>
        <time>2011-07-03T09:32:09.000Z</time>
      </trkpt>
      <trkpt lat="43.70337" lon="6.96554">
        <ele>655.79998779297</ele>
        <time>2011-07-03T09:32:32.000Z</time>
      </trkpt>
      <trkpt lat="43.70336" lon="6.96548">
        <ele>656</ele>
        <time>2011-07-03T09:32:38.000Z</time>
      </trkpt>
      <trkpt lat="43.70334" lon="6.96536">
        <ele>656.79998779297</ele>
        <time>2011-07-03T09:32:43.000Z</time>
      </trkpt>
      <trkpt lat="43.70333" lon="6.96514">
        <ele>659</ele>
        <time>2011-07-03T09:32:50.000Z</time>
      </trkpt>
      <trkpt lat="43.70333" lon="6.96512">
        <ele>659.40002441406</ele>
        <time>2011-07-03T09:32:52.000Z</time>
      </trkpt>
      <trkpt lat="43.70334" lon="6.96504">
        <ele>661</ele>
        <time>2011-07-03T09:32:58.000Z</time>
      </trkpt>
      <trkpt lat="43.70334" lon="6.96502">
        <ele>661</ele>
        <time>2011-07-03T09:33:05.000Z</time>
      </trkpt>
      <trkpt lat="43.70331" lon="6.96495">
        <ele>660</ele>
        <time>2011-07-03T09:33:29.000Z</time>
      </trkpt>
      <trkpt lat="43.7033" lon="6.96488">
        <ele>660.20001220703</ele>
        <time>2011-07-03T09:33:37.000Z</time>
      </trkpt>
      <trkpt lat="43.70329" lon="6.96486">
        <ele>660</ele>
        <time>2011-07-03T09:33:43.000Z</time>
      </trkpt>
      <trkpt lat="43.70329" lon="6.96483">
        <ele>659.79998779297</ele>
        <time>2011-07-03T09:33:48.000Z</time>
      </trkpt>
      <trkpt lat="43.70328" lon="6.96466">
        <ele>661</ele>
        <time>2011-07-03T09:33:54.000Z</time>
      </trkpt>
      <trkpt lat="43.70328" lon="6.9646">
        <ele>662.20001220703</ele>
        <time>2011-07-03T09:33:56.000Z</time>
      </trkpt>
      <trkpt lat="43.70328" lon="6.96444">
        <ele>663.59997558594</ele>
        <time>2011-07-03T09:34:02.000Z</time>
      </trkpt>
      <trkpt lat="43.70328" lon="6.96436">
        <ele>664.59997558594</ele>
        <time>2011-07-03T09:34:05.000Z</time>
      </trkpt>
      <trkpt lat="43.70326" lon="6.96419">
        <ele>665.59997558594</ele>
        <time>2011-07-03T09:34:11.000Z</time>
      </trkpt>
      <trkpt lat="43.7032" lon="6.96402">
        <ele>664.59997558594</ele>
        <time>2011-07-03T09:34:16.000Z</time>
      </trkpt>
      <trkpt lat="43.70315" lon="6.96386">
        <ele>664.20001220703</ele>
        <time>2011-07-03T09:34:21.000Z</time>
      </trkpt>
      <trkpt lat="43.70314" lon="6.96381">
        <ele>664.40002441406</ele>
        <time>2011-07-03T09:34:23.000Z</time>
      </trkpt>
      <trkpt lat="43.70307" lon="6.9637">
        <ele>662.20001220703</ele>
        <time>2011-07-03T09:34:28.000Z</time>
      </trkpt>
      <trkpt lat="43.703" lon="6.96362">
        <ele>659.79998779297</ele>
        <time>2011-07-03T09:34:32.000Z</time>
      </trkpt>
      <trkpt lat="43.70289" lon="6.96347">
        <ele>656.20001220703</ele>
        <time>2011-07-03T09:34:38.000Z</time>
      </trkpt>
      <trkpt lat="43.70281" lon="6.96339">
        <ele>652.40002441406</ele>
        <time>2011-07-03T09:34:42.000Z</time>
      </trkpt>
      <trkpt lat="43.70279" lon="6.96338">
        <ele>652</ele>
        <time>2011-07-03T09:34:45.000Z</time>
      </trkpt>
      <trkpt lat="43.70276" lon="6.96336">
        <ele>650.59997558594</ele>
        <time>2011-07-03T09:34:51.000Z</time>
      </trkpt>
      <trkpt lat="43.70277" lon="6.96336">
        <ele>650.79998779297</ele>
        <time>2011-07-03T09:34:58.000Z</time>
      </trkpt>
      <trkpt lat="43.70275" lon="6.96336">
        <ele>650</ele>
        <time>2011-07-03T09:35:06.000Z</time>
      </trkpt>
      <trkpt lat="43.70275" lon="6.96335">
        <ele>649.79998779297</ele>
        <time>2011-07-03T09:35:17.000Z</time>
      </trkpt>
      <trkpt lat="43.70269" lon="6.96328">
        <ele>648.20001220703</ele>
        <time>2011-07-03T09:35:20.000Z</time>
      </trkpt>
      <trkpt lat="43.70262" lon="6.96315">
        <ele>646.59997558594</ele>
        <time>2011-07-03T09:35:25.000Z</time>
      </trkpt>
      <trkpt lat="43.70252" lon="6.96301">
        <ele>643.79998779297</ele>
        <time>2011-07-03T09:35:30.000Z</time>
      </trkpt>
      <trkpt lat="43.70247" lon="6.96286">
        <ele>644.79998779297</ele>
        <time>2011-07-03T09:35:34.000Z</time>
      </trkpt>
      <trkpt lat="43.70245" lon="6.96273">
        <ele>646.40002441406</ele>
        <time>2011-07-03T09:35:38.000Z</time>
      </trkpt>
      <trkpt lat="43.70241" lon="6.96263">
        <ele>647</ele>
        <time>2011-07-03T09:35:42.000Z</time>
      </trkpt>
      <trkpt lat="43.70232" lon="6.96252">
        <ele>645.79998779297</ele>
        <time>2011-07-03T09:35:47.000Z</time>
      </trkpt>
      <trkpt lat="43.70225" lon="6.96247">
        <ele>644.40002441406</ele>
        <time>2011-07-03T09:35:51.000Z</time>
      </trkpt>
      <trkpt lat="43.70217" lon="6.96247">
        <ele>641.59997558594</ele>
        <time>2011-07-03T09:35:56.000Z</time>
      </trkpt>
      <trkpt lat="43.70213" lon="6.96243">
        <ele>641.20001220703</ele>
        <time>2011-07-03T09:35:58.000Z</time>
      </trkpt>
      <trkpt lat="43.70201" lon="6.96231">
        <ele>639.79998779297</ele>
        <time>2011-07-03T09:36:03.000Z</time>
      </trkpt>
      <trkpt lat="43.70198" lon="6.96233">
        <ele>637.79998779297</ele>
        <time>2011-07-03T09:36:07.000Z</time>
      </trkpt>
      <trkpt lat="43.70197" lon="6.96235">
        <ele>637.20001220703</ele>
        <time>2011-07-03T09:36:12.000Z</time>
      </trkpt>
      <trkpt lat="43.70197" lon="6.96235">
        <ele>637</ele>
        <time>2011-07-03T09:36:18.000Z</time>
      </trkpt>
      <trkpt lat="43.70199" lon="6.96235">
        <ele>637.79998779297</ele>
        <time>2011-07-03T09:36:28.000Z</time>
      </trkpt>
      <trkpt lat="43.70201" lon="6.96236">
        <ele>638.40002441406</ele>
        <time>2011-07-03T09:36:40.000Z</time>
      </trkpt>
      <trkpt lat="43.70201" lon="6.96235">
        <ele>638.59997558594</ele>
        <time>2011-07-03T09:36:48.000Z</time>
      </trkpt>
      <trkpt lat="43.702" lon="6.96235">
        <ele>638</ele>
        <time>2011-07-03T09:37:28.000Z</time>
      </trkpt>
      <trkpt lat="43.70198" lon="6.96234">
        <ele>637.79998779297</ele>
        <time>2011-07-03T09:37:52.000Z</time>
      </trkpt>
      <trkpt lat="43.70201" lon="6.96237">
        <ele>637.79998779297</ele>
        <time>2011-07-03T09:38:04.000Z</time>
      </trkpt>
      <trkpt lat="43.70201" lon="6.96241">
        <ele>637.20001220703</ele>
        <time>2011-07-03T09:38:06.000Z</time>
      </trkpt>
      <trkpt lat="43.70203" lon="6.96242">
        <ele>637.59997558594</ele>
        <time>2011-07-03T09:38:13.000Z</time>
      </trkpt>
      <trkpt lat="43.70208" lon="6.96245">
        <ele>638.59997558594</ele>
        <time>2011-07-03T09:38:26.000Z</time>
      </trkpt>
      <trkpt lat="43.70217" lon="6.96261">
        <ele>638.59997558594</ele>
        <time>2011-07-03T09:38:32.000Z</time>
      </trkpt>
      <trkpt lat="43.70231" lon="6.9629">
        <ele>638.20001220703</ele>
        <time>2011-07-03T09:38:40.000Z</time>
      </trkpt>
      <trkpt lat="43.70248" lon="6.96328">
        <ele>636.40002441406</ele>
        <time>2011-07-03T09:38:49.000Z</time>
      </trkpt>
      <trkpt lat="43.7027" lon="6.96374">
        <ele>640.20001220703</ele>
        <time>2011-07-03T09:38:59.000Z</time>
      </trkpt>
      <trkpt lat="43.70286" lon="6.96421">
        <ele>641.40002441406</ele>
        <time>2011-07-03T09:39:08.000Z</time>
      </trkpt>
      <trkpt lat="43.70298" lon="6.96488">
        <ele>640.40002441406</ele>
        <time>2011-07-03T09:39:19.000Z</time>
      </trkpt>
      <trkpt lat="43.70309" lon="6.96549">
        <ele>638.79998779297</ele>
        <time>2011-07-03T09:39:29.000Z</time>
      </trkpt>
      <trkpt lat="43.70319" lon="6.9661">
        <ele>638</ele>
        <time>2011-07-03T09:39:39.000Z</time>
      </trkpt>
      <trkpt lat="43.70329" lon="6.96665">
        <ele>640.79998779297</ele>
        <time>2011-07-03T09:39:48.000Z</time>
      </trkpt>
      <trkpt lat="43.70339" lon="6.96714">
        <ele>643.40002441406</ele>
        <time>2011-07-03T09:39:56.000Z</time>
      </trkpt>
      <trkpt lat="43.70346" lon="6.96779">
        <ele>643.20001220703</ele>
        <time>2011-07-03T09:40:06.000Z</time>
      </trkpt>
      <trkpt lat="43.7035" lon="6.96843">
        <ele>641</ele>
        <time>2011-07-03T09:40:16.000Z</time>
      </trkpt>
      <trkpt lat="43.70358" lon="6.969">
        <ele>641.59997558594</ele>
        <time>2011-07-03T09:40:25.000Z</time>
      </trkpt>
      <trkpt lat="43.70366" lon="6.96957">
        <ele>641.20001220703</ele>
        <time>2011-07-03T09:40:34.000Z</time>
      </trkpt>
      <trkpt lat="43.70379" lon="6.97023">
        <ele>641</ele>
        <time>2011-07-03T09:40:45.000Z</time>
      </trkpt>
      <trkpt lat="43.70396" lon="6.97053">
        <ele>644.59997558594</ele>
        <time>2011-07-03T09:40:51.000Z</time>
      </trkpt>
      <trkpt lat="43.70403" lon="6.97061">
        <ele>646.40002441406</ele>
        <time>2011-07-03T09:40:53.000Z</time>
      </trkpt>
      <trkpt lat="43.70444" lon="6.97103">
        <ele>652.40002441406</ele>
        <time>2011-07-03T09:41:03.000Z</time>
      </trkpt>
      <trkpt lat="43.70473" lon="6.97134">
        <ele>654</ele>
        <time>2011-07-03T09:41:11.000Z</time>
      </trkpt>
      <trkpt lat="43.70503" lon="6.97153">
        <ele>656.59997558594</ele>
        <time>2011-07-03T09:41:18.000Z</time>
      </trkpt>
      <trkpt lat="43.70546" lon="6.97167">
        <ele>657.79998779297</ele>
        <time>2011-07-03T09:41:27.000Z</time>
      </trkpt>
      <trkpt lat="43.70591" lon="6.97168">
        <ele>661</ele>
        <time>2011-07-03T09:41:36.000Z</time>
      </trkpt>
      <trkpt lat="43.70625" lon="6.9717">
        <ele>662.40002441406</ele>
        <time>2011-07-03T09:41:43.000Z</time>
      </trkpt>
      <trkpt lat="43.70666" lon="6.97182">
        <ele>662.40002441406</ele>
        <time>2011-07-03T09:41:52.000Z</time>
      </trkpt>
      <trkpt lat="43.70701" lon="6.972">
        <ele>664.79998779297</ele>
        <time>2011-07-03T09:42:00.000Z</time>
      </trkpt>
      <trkpt lat="43.70731" lon="6.97233">
        <ele>665.40002441406</ele>
        <time>2011-07-03T09:42:08.000Z</time>
      </trkpt>
      <trkpt lat="43.7075" lon="6.97272">
        <ele>665.40002441406</ele>
        <time>2011-07-03T09:42:15.000Z</time>
      </trkpt>
      <trkpt lat="43.70762" lon="6.97323">
        <ele>664</ele>
        <time>2011-07-03T09:42:23.000Z</time>
      </trkpt>
      <trkpt lat="43.70763" lon="6.97336">
        <ele>663.40002441406</ele>
        <time>2011-07-03T09:42:25.000Z</time>
      </trkpt>
      <trkpt lat="43.70765" lon="6.97395">
        <ele>663.59997558594</ele>
        <time>2011-07-03T09:42:34.000Z</time>
      </trkpt>
      <trkpt lat="43.70767" lon="6.97432">
        <ele>664</ele>
        <time>2011-07-03T09:42:41.000Z</time>
      </trkpt>
      <trkpt lat="43.70766" lon="6.97439">
        <ele>664</ele>
        <time>2011-07-03T09:42:45.000Z</time>
      </trkpt>
      <trkpt lat="43.70765" lon="6.97439">
        <ele>663.79998779297</ele>
        <time>2011-07-03T09:42:56.000Z</time>
      </trkpt>
      <trkpt lat="43.7076" lon="6.97449">
        <ele>663.20001220703</ele>
        <time>2011-07-03T09:43:01.000Z</time>
      </trkpt>
      <trkpt lat="43.7076" lon="6.97448">
        <ele>663.20001220703</ele>
        <time>2011-07-03T09:43:09.000Z</time>
      </trkpt>
      <trkpt lat="43.7076" lon="6.97448">
        <ele>663.20001220703</ele>
        <time>2011-07-03T09:43:11.000Z</time>
      </trkpt>
      <trkpt lat="43.70753" lon="6.97458">
        <ele>662.40002441406</ele>
        <time>2011-07-03T09:43:16.000Z</time>
      </trkpt>
      <trkpt lat="43.70738" lon="6.97481">
        <ele>660.40002441406</ele>
        <time>2011-07-03T09:43:21.000Z</time>
      </trkpt>
      <trkpt lat="43.70729" lon="6.97494">
        <ele>659.59997558594</ele>
        <time>2011-07-03T09:43:23.000Z</time>
      </trkpt>
      <trkpt lat="43.70704" lon="6.97513">
        <ele>656.40002441406</ele>
        <time>2011-07-03T09:43:27.000Z</time>
      </trkpt>
      <trkpt lat="43.70685" lon="6.97526">
        <ele>654.40002441406</ele>
        <time>2011-07-03T09:43:30.000Z</time>
      </trkpt>
      <trkpt lat="43.70678" lon="6.97528">
        <ele>653.59997558594</ele>
        <time>2011-07-03T09:43:33.000Z</time>
      </trkpt>
      <trkpt lat="43.70659" lon="6.97536">
        <ele>652.20001220703</ele>
        <time>2011-07-03T09:43:40.000Z</time>
      </trkpt>
      <trkpt lat="43.70643" lon="6.97546">
        <ele>651.20001220703</ele>
        <time>2011-07-03T09:43:45.000Z</time>
      </trkpt>
      <trkpt lat="43.70629" lon="6.97559">
        <ele>651</ele>
        <time>2011-07-03T09:43:51.000Z</time>
      </trkpt>
      <trkpt lat="43.70609" lon="6.97562">
        <ele>649.59997558594</ele>
        <time>2011-07-03T09:43:57.000Z</time>
      </trkpt>
      <trkpt lat="43.70606" lon="6.97564">
        <ele>649.59997558594</ele>
        <time>2011-07-03T09:43:58.000Z</time>
      </trkpt>
      <trkpt lat="43.70598" lon="6.97559">
        <ele>648.20001220703</ele>
        <time>2011-07-03T09:44:02.000Z</time>
      </trkpt>
      <trkpt lat="43.70588" lon="6.97544">
        <ele>645.79998779297</ele>
        <time>2011-07-03T09:44:07.000Z</time>
      </trkpt>
      <trkpt lat="43.7059" lon="6.97529">
        <ele>644.20001220703</ele>
        <time>2011-07-03T09:44:12.000Z</time>
      </trkpt>
      <trkpt lat="43.70592" lon="6.97519">
        <ele>643.20001220703</ele>
        <time>2011-07-03T09:44:15.000Z</time>
      </trkpt>
      <trkpt lat="43.70587" lon="6.97513">
        <ele>641.79998779297</ele>
        <time>2011-07-03T09:44:19.000Z</time>
      </trkpt>
      <trkpt lat="43.70584" lon="6.97509">
        <ele>641</ele>
        <time>2011-07-03T09:44:24.000Z</time>
      </trkpt>
      <trkpt lat="43.70582" lon="6.97507">
        <ele>640.59997558594</ele>
        <time>2011-07-03T09:44:28.000Z</time>
      </trkpt>
      <trkpt lat="43.70576" lon="6.97489">
        <ele>637.59997558594</ele>
        <time>2011-07-03T09:44:34.000Z</time>
      </trkpt>
      <trkpt lat="43.70571" lon="6.97473">
        <ele>634.79998779297</ele>
        <time>2011-07-03T09:44:38.000Z</time>
      </trkpt>
      <trkpt lat="43.70562" lon="6.9747">
        <ele>633</ele>
        <time>2011-07-03T09:44:42.000Z</time>
      </trkpt>
      <trkpt lat="43.70546" lon="6.97471">
        <ele>631</ele>
        <time>2011-07-03T09:44:47.000Z</time>
      </trkpt>
      <trkpt lat="43.70536" lon="6.9747">
        <ele>629.59997558594</ele>
        <time>2011-07-03T09:44:51.000Z</time>
      </trkpt>
      <trkpt lat="43.70531" lon="6.97469">
        <ele>629</ele>
        <time>2011-07-03T09:44:53.000Z</time>
      </trkpt>
      <trkpt lat="43.70523" lon="6.97462">
        <ele>627</ele>
        <time>2011-07-03T09:44:58.000Z</time>
      </trkpt>
      <trkpt lat="43.70505" lon="6.97464">
        <ele>624.79998779297</ele>
        <time>2011-07-03T09:45:03.000Z</time>
      </trkpt>
      <trkpt lat="43.70494" lon="6.97466">
        <ele>623.59997558594</ele>
        <time>2011-07-03T09:45:06.000Z</time>
      </trkpt>
      <trkpt lat="43.70485" lon="6.9746">
        <ele>621.79998779297</ele>
        <time>2011-07-03T09:45:11.000Z</time>
      </trkpt>
      <trkpt lat="43.70474" lon="6.9746">
        <ele>620.59997558594</ele>
        <time>2011-07-03T09:45:15.000Z</time>
      </trkpt>
      <trkpt lat="43.70468" lon="6.97465">
        <ele>620.40002441406</ele>
        <time>2011-07-03T09:45:17.000Z</time>
      </trkpt>
      <trkpt lat="43.70462" lon="6.97467">
        <ele>619.79998779297</ele>
        <time>2011-07-03T09:45:19.000Z</time>
      </trkpt>
      <trkpt lat="43.70452" lon="6.97455">
        <ele>617.20001220703</ele>
        <time>2011-07-03T09:45:24.000Z</time>
      </trkpt>
      <trkpt lat="43.70447" lon="6.97451">
        <ele>616.20001220703</ele>
        <time>2011-07-03T09:45:30.000Z</time>
      </trkpt>
      <trkpt lat="43.70446" lon="6.97447">
        <ele>615.79998779297</ele>
        <time>2011-07-03T09:45:43.000Z</time>
      </trkpt>
      <trkpt lat="43.70446" lon="6.97447">
        <ele>615.79998779297</ele>
        <time>2011-07-03T09:46:02.000Z</time>
      </trkpt>
      <trkpt lat="43.70445" lon="6.97449">
        <ele>615.79998779297</ele>
        <time>2011-07-03T09:46:13.000Z</time>
      </trkpt>
      <trkpt lat="43.70445" lon="6.97447">
        <ele>615.59997558594</ele>
        <time>2011-07-03T09:46:36.000Z</time>
      </trkpt>
      <trkpt lat="43.70447" lon="6.97442">
        <ele>615.40002441406</ele>
        <time>2011-07-03T09:46:47.000Z</time>
      </trkpt>
      <trkpt lat="43.70449" lon="6.97441">
        <ele>615.59997558594</ele>
        <time>2011-07-03T09:46:51.000Z</time>
      </trkpt>
      <trkpt lat="43.70455" lon="6.97436">
        <ele>615.59997558594</ele>
        <time>2011-07-03T09:46:55.000Z</time>
      </trkpt>
      <trkpt lat="43.70455" lon="6.97429">
        <ele>614.79998779297</ele>
        <time>2011-07-03T09:46:59.000Z</time>
      </trkpt>
      <trkpt lat="43.7045" lon="6.97427">
        <ele>614.20001220703</ele>
        <time>2011-07-03T09:47:01.000Z</time>
      </trkpt>
      <trkpt lat="43.70444" lon="6.97425">
        <ele>613.40002441406</ele>
        <time>2011-07-03T09:47:03.000Z</time>
      </trkpt>
      <trkpt lat="43.70446" lon="6.97414">
        <ele>613</ele>
        <time>2011-07-03T09:47:07.000Z</time>
      </trkpt>
      <trkpt lat="43.70445" lon="6.9741">
        <ele>613</ele>
        <time>2011-07-03T09:47:09.000Z</time>
      </trkpt>
      <trkpt lat="43.70441" lon="6.97406">
        <ele>613</ele>
        <time>2011-07-03T09:47:14.000Z</time>
      </trkpt>
      <trkpt lat="43.70439" lon="6.97409">
        <ele>612.59997558594</ele>
        <time>2011-07-03T09:47:24.000Z</time>
      </trkpt>
      <trkpt lat="43.70432" lon="6.9741">
        <ele>611.79998779297</ele>
        <time>2011-07-03T09:47:30.000Z</time>
      </trkpt>
      <trkpt lat="43.70428" lon="6.9741">
        <ele>611.40002441406</ele>
        <time>2011-07-03T09:47:36.000Z</time>
      </trkpt>
      <trkpt lat="43.70424" lon="6.9741">
        <ele>611.20001220703</ele>
        <time>2011-07-03T09:47:42.000Z</time>
      </trkpt>
      <trkpt lat="43.70418" lon="6.97411">
        <ele>610.40002441406</ele>
        <time>2011-07-03T09:47:49.000Z</time>
      </trkpt>
      <trkpt lat="43.70414" lon="6.9741">
        <ele>609.79998779297</ele>
        <time>2011-07-03T09:47:56.000Z</time>
      </trkpt>
      <trkpt lat="43.70414" lon="6.97408">
        <ele>610.20001220703</ele>
        <time>2011-07-03T09:48:01.000Z</time>
      </trkpt>
      <trkpt lat="43.70412" lon="6.97406">
        <ele>609.79998779297</ele>
        <time>2011-07-03T09:48:06.000Z</time>
      </trkpt>
      <trkpt lat="43.7041" lon="6.97405">
        <ele>609.59997558594</ele>
        <time>2011-07-03T09:48:11.000Z</time>
      </trkpt>
      <trkpt lat="43.70407" lon="6.97402">
        <ele>609.40002441406</ele>
        <time>2011-07-03T09:48:29.000Z</time>
      </trkpt>
      <trkpt lat="43.70404" lon="6.97401">
        <ele>608.79998779297</ele>
        <time>2011-07-03T09:48:36.000Z</time>
      </trkpt>
      <trkpt lat="43.70403" lon="6.97399">
        <ele>608.59997558594</ele>
        <time>2011-07-03T09:49:08.000Z</time>
      </trkpt>
      <trkpt lat="43.70391" lon="6.97396">
        <ele>606.59997558594</ele>
        <time>2011-07-03T09:49:14.000Z</time>
      </trkpt>
      <trkpt lat="43.70389" lon="6.97395">
        <ele>606.40002441406</ele>
        <time>2011-07-03T09:49:15.000Z</time>
      </trkpt>
      <trkpt lat="43.70379" lon="6.97395">
        <ele>604.40002441406</ele>
        <time>2011-07-03T09:49:19.000Z</time>
      </trkpt>
      <trkpt lat="43.70374" lon="6.97393">
        <ele>603.79998779297</ele>
        <time>2011-07-03T09:49:26.000Z</time>
      </trkpt>
      <trkpt lat="43.70373" lon="6.97398">
        <ele>603.20001220703</ele>
        <time>2011-07-03T09:49:31.000Z</time>
      </trkpt>
      <trkpt lat="43.7037" lon="6.97401">
        <ele>602.40002441406</ele>
        <time>2011-07-03T09:49:38.000Z</time>
      </trkpt>
      <trkpt lat="43.70365" lon="6.97405">
        <ele>601</ele>
        <time>2011-07-03T09:49:42.000Z</time>
      </trkpt>
      <trkpt lat="43.70359" lon="6.97408">
        <ele>599.40002441406</ele>
        <time>2011-07-03T09:49:45.000Z</time>
      </trkpt>
      <trkpt lat="43.70356" lon="6.97412">
        <ele>598.59997558594</ele>
        <time>2011-07-03T09:49:50.000Z</time>
      </trkpt>
      <trkpt lat="43.70352" lon="6.97416">
        <ele>597.40002441406</ele>
        <time>2011-07-03T09:49:56.000Z</time>
      </trkpt>
      <trkpt lat="43.70349" lon="6.9742">
        <ele>597.20001220703</ele>
        <time>2011-07-03T09:50:02.000Z</time>
      </trkpt>
      <trkpt lat="43.70347" lon="6.97424">
        <ele>596.79998779297</ele>
        <time>2011-07-03T09:50:08.000Z</time>
      </trkpt>
      <trkpt lat="43.70344" lon="6.97428">
        <ele>596.59997558594</ele>
        <time>2011-07-03T09:50:14.000Z</time>
      </trkpt>
      <trkpt lat="43.7034" lon="6.97432">
        <ele>596</ele>
        <time>2011-07-03T09:50:18.000Z</time>
      </trkpt>
      <trkpt lat="43.70336" lon="6.97432">
        <ele>595.20001220703</ele>
        <time>2011-07-03T09:50:24.000Z</time>
      </trkpt>
      <trkpt lat="43.70332" lon="6.97432">
        <ele>594.20001220703</ele>
        <time>2011-07-03T09:50:30.000Z</time>
      </trkpt>
      <trkpt lat="43.70328" lon="6.97431">
        <ele>592.40002441406</ele>
        <time>2011-07-03T09:50:37.000Z</time>
      </trkpt>
      <trkpt lat="43.70327" lon="6.9743">
        <ele>592</ele>
        <time>2011-07-03T09:50:46.000Z</time>
      </trkpt>
      <trkpt lat="43.70327" lon="6.9743">
        <ele>592</ele>
        <time>2011-07-03T09:50:52.000Z</time>
      </trkpt>
      <trkpt lat="43.70315" lon="6.9742">
        <ele>586.79998779297</ele>
        <time>2011-07-03T09:50:59.000Z</time>
      </trkpt>
      <trkpt lat="43.70301" lon="6.97413">
        <ele>581.59997558594</ele>
        <time>2011-07-03T09:51:04.000Z</time>
      </trkpt>
      <trkpt lat="43.70279" lon="6.97406">
        <ele>573.20001220703</ele>
        <time>2011-07-03T09:51:09.000Z</time>
      </trkpt>
      <trkpt lat="43.70274" lon="6.97402">
        <ele>571.20001220703</ele>
        <time>2011-07-03T09:51:10.000Z</time>
      </trkpt>
      <trkpt lat="43.70265" lon="6.97363">
        <ele>567.40002441406</ele>
        <time>2011-07-03T09:51:14.000Z</time>
      </trkpt>
      <trkpt lat="43.70265" lon="6.97351">
        <ele>567.40002441406</ele>
        <time>2011-07-03T09:51:15.000Z</time>
      </trkpt>
      <trkpt lat="43.70267" lon="6.97325">
        <ele>568.20001220703</ele>
        <time>2011-07-03T09:51:17.000Z</time>
      </trkpt>
      <trkpt lat="43.7027" lon="6.97277">
        <ele>568.20001220703</ele>
        <time>2011-07-03T09:51:22.000Z</time>
      </trkpt>
      <trkpt lat="43.70271" lon="6.97266">
        <ele>568.40002441406</ele>
        <time>2011-07-03T09:51:24.000Z</time>
      </trkpt>
      <trkpt lat="43.70267" lon="6.97256">
        <ele>565.59997558594</ele>
        <time>2011-07-03T09:51:29.000Z</time>
      </trkpt>
      <trkpt lat="43.70266" lon="6.97256">
        <ele>564.79998779297</ele>
        <time>2011-07-03T09:51:39.000Z</time>
      </trkpt>
      <trkpt lat="43.70264" lon="6.97235">
        <ele>563.79998779297</ele>
        <time>2011-07-03T09:51:44.000Z</time>
      </trkpt>
      <trkpt lat="43.70262" lon="6.97205">
        <ele>562.79998779297</ele>
        <time>2011-07-03T09:51:49.000Z</time>
      </trkpt>
      <trkpt lat="43.70255" lon="6.97172">
        <ele>558</ele>
        <time>2011-07-03T09:51:54.000Z</time>
      </trkpt>
      <trkpt lat="43.70254" lon="6.97166">
        <ele>557.59997558594</ele>
        <time>2011-07-03T09:51:55.000Z</time>
      </trkpt>
      <trkpt lat="43.70252" lon="6.97155">
        <ele>557</ele>
        <time>2011-07-03T09:51:59.000Z</time>
      </trkpt>
      <trkpt lat="43.70251" lon="6.97163">
        <ele>555.59997558594</ele>
        <time>2011-07-03T09:52:03.000Z</time>
      </trkpt>
      <trkpt lat="43.7025" lon="6.97173">
        <ele>555</ele>
        <time>2011-07-03T09:52:05.000Z</time>
      </trkpt>
      <trkpt lat="43.70246" lon="6.97204">
        <ele>552.59997558594</ele>
        <time>2011-07-03T09:52:10.000Z</time>
      </trkpt>
      <trkpt lat="43.70244" lon="6.97212">
        <ele>551.79998779297</ele>
        <time>2011-07-03T09:52:11.000Z</time>
      </trkpt>
      <trkpt lat="43.70236" lon="6.97273">
        <ele>548.59997558594</ele>
        <time>2011-07-03T09:52:17.000Z</time>
      </trkpt>
      <trkpt lat="43.70235" lon="6.97287">
        <ele>548.59997558594</ele>
        <time>2011-07-03T09:52:19.000Z</time>
      </trkpt>
      <trkpt lat="43.7023" lon="6.97293">
        <ele>546.20001220703</ele>
        <time>2011-07-03T09:52:23.000Z</time>
      </trkpt>
      <trkpt lat="43.7023" lon="6.97271">
        <ele>545.20001220703</ele>
        <time>2011-07-03T09:52:29.000Z</time>
      </trkpt>
      <trkpt lat="43.7023" lon="6.97232">
        <ele>544.20001220703</ele>
        <time>2011-07-03T09:52:34.000Z</time>
      </trkpt>
      <trkpt lat="43.7023" lon="6.97224">
        <ele>544.40002441406</ele>
        <time>2011-07-03T09:52:35.000Z</time>
      </trkpt>
      <trkpt lat="43.70223" lon="6.97193">
        <ele>540.59997558594</ele>
        <time>2011-07-03T09:52:39.000Z</time>
      </trkpt>
      <trkpt lat="43.70218" lon="6.9717">
        <ele>538</ele>
        <time>2011-07-03T09:52:43.000Z</time>
      </trkpt>
      <trkpt lat="43.70213" lon="6.97173">
        <ele>535.20001220703</ele>
        <time>2011-07-03T09:52:46.000Z</time>
      </trkpt>
      <trkpt lat="43.70213" lon="6.97182">
        <ele>535.59997558594</ele>
        <time>2011-07-03T09:52:49.000Z</time>
      </trkpt>
      <trkpt lat="43.70216" lon="6.97208">
        <ele>537</ele>
        <time>2011-07-03T09:52:56.000Z</time>
      </trkpt>
      <trkpt lat="43.70215" lon="6.97237">
        <ele>536.79998779297</ele>
        <time>2011-07-03T09:53:01.000Z</time>
      </trkpt>
      <trkpt lat="43.70207" lon="6.97266">
        <ele>533.20001220703</ele>
        <time>2011-07-03T09:53:05.000Z</time>
      </trkpt>
      <trkpt lat="43.70202" lon="6.97282">
        <ele>530.40002441406</ele>
        <time>2011-07-03T09:53:07.000Z</time>
      </trkpt>
      <trkpt lat="43.70188" lon="6.9731">
        <ele>522.79998779297</ele>
        <time>2011-07-03T09:53:11.000Z</time>
      </trkpt>
      <trkpt lat="43.7018" lon="6.97324">
        <ele>518</ele>
        <time>2011-07-03T09:53:13.000Z</time>
      </trkpt>
      <trkpt lat="43.70172" lon="6.97334">
        <ele>513.20001220703</ele>
        <time>2011-07-03T09:53:15.000Z</time>
      </trkpt>
      <trkpt lat="43.7016" lon="6.97355">
        <ele>508</ele>
        <time>2011-07-03T09:53:19.000Z</time>
      </trkpt>
      <trkpt lat="43.70157" lon="6.97366">
        <ele>506.79998779297</ele>
        <time>2011-07-03T09:53:21.000Z</time>
      </trkpt>
      <trkpt lat="43.70153" lon="6.97387">
        <ele>505.39999389648</ele>
        <time>2011-07-03T09:53:27.000Z</time>
      </trkpt>
      <trkpt lat="43.70155" lon="6.97394">
        <ele>505.79998779297</ele>
        <time>2011-07-03T09:53:32.000Z</time>
      </trkpt>
      <trkpt lat="43.70134" lon="6.97411">
        <ele>497.39999389648</ele>
        <time>2011-07-03T09:54:10.000Z</time>
      </trkpt>
      <trkpt lat="43.70137" lon="6.97411">
        <ele>498.39999389648</ele>
        <time>2011-07-03T09:54:12.000Z</time>
      </trkpt>
      <trkpt lat="43.70145" lon="6.97422">
        <ele>501.79998779297</ele>
        <time>2011-07-03T09:54:18.000Z</time>
      </trkpt>
      <trkpt lat="43.70151" lon="6.97438">
        <ele>504.79998779297</ele>
        <time>2011-07-03T09:54:24.000Z</time>
      </trkpt>
      <trkpt lat="43.70151" lon="6.9744">
        <ele>505</ele>
        <time>2011-07-03T09:54:25.000Z</time>
      </trkpt>
      <trkpt lat="43.70148" lon="6.97448">
        <ele>503.79998779297</ele>
        <time>2011-07-03T09:54:30.000Z</time>
      </trkpt>
      <trkpt lat="43.70145" lon="6.97456">
        <ele>502.60000610352</ele>
        <time>2011-07-03T09:54:34.000Z</time>
      </trkpt>
      <trkpt lat="43.70143" lon="6.97475">
        <ele>502.20001220703</ele>
        <time>2011-07-03T09:54:39.000Z</time>
      </trkpt>
      <trkpt lat="43.70138" lon="6.97503">
        <ele>500.20001220703</ele>
        <time>2011-07-03T09:54:45.000Z</time>
      </trkpt>
      <trkpt lat="43.70137" lon="6.97524">
        <ele>499.20001220703</ele>
        <time>2011-07-03T09:54:52.000Z</time>
      </trkpt>
      <trkpt lat="43.70138" lon="6.97532">
        <ele>499.20001220703</ele>
        <time>2011-07-03T09:54:56.000Z</time>
      </trkpt>
      <trkpt lat="43.70138" lon="6.97536">
        <ele>499.39999389648</ele>
        <time>2011-07-03T09:55:01.000Z</time>
      </trkpt>
      <trkpt lat="43.70138" lon="6.97546">
        <ele>499.20001220703</ele>
        <time>2011-07-03T09:55:05.000Z</time>
      </trkpt>
      <trkpt lat="43.70142" lon="6.97572">
        <ele>500.79998779297</ele>
        <time>2011-07-03T09:55:11.000Z</time>
      </trkpt>
      <trkpt lat="43.7015" lon="6.97609">
        <ele>501.39999389648</ele>
        <time>2011-07-03T09:55:19.000Z</time>
      </trkpt>
      <trkpt lat="43.70163" lon="6.97638">
        <ele>504.20001220703</ele>
        <time>2011-07-03T09:55:26.000Z</time>
      </trkpt>
      <trkpt lat="43.70169" lon="6.97646">
        <ele>506.39999389648</ele>
        <time>2011-07-03T09:55:29.000Z</time>
      </trkpt>
      <trkpt lat="43.70175" lon="6.97669">
        <ele>506.20001220703</ele>
        <time>2011-07-03T09:55:35.000Z</time>
      </trkpt>
      <trkpt lat="43.70176" lon="6.97679">
        <ele>505.39999389648</ele>
        <time>2011-07-03T09:55:37.000Z</time>
      </trkpt>
      <trkpt lat="43.70177" lon="6.97685">
        <ele>505</ele>
        <time>2011-07-03T09:55:42.000Z</time>
      </trkpt>
      <trkpt lat="43.70177" lon="6.97686">
        <ele>504.79998779297</ele>
        <time>2011-07-03T09:55:47.000Z</time>
      </trkpt>
      <trkpt lat="43.70179" lon="6.97689">
        <ele>505.39999389648</ele>
        <time>2011-07-03T09:55:56.000Z</time>
      </trkpt>
      <trkpt lat="43.70179" lon="6.97697">
        <ele>504.20001220703</ele>
        <time>2011-07-03T09:56:01.000Z</time>
      </trkpt>
      <trkpt lat="43.70181" lon="6.97717">
        <ele>502.39999389648</ele>
        <time>2011-07-03T09:56:11.000Z</time>
      </trkpt>
      <trkpt lat="43.70182" lon="6.97718">
        <ele>502.39999389648</ele>
        <time>2011-07-03T09:56:12.000Z</time>
      </trkpt>
      <trkpt lat="43.70184" lon="6.97723">
        <ele>502.79998779297</ele>
        <time>2011-07-03T09:56:18.000Z</time>
      </trkpt>
      <trkpt lat="43.70184" lon="6.97728">
        <ele>502.39999389648</ele>
        <time>2011-07-03T09:56:25.000Z</time>
      </trkpt>
      <trkpt lat="43.70188" lon="6.9774">
        <ele>503.20001220703</ele>
        <time>2011-07-03T09:56:30.000Z</time>
      </trkpt>
      <trkpt lat="43.70198" lon="6.97759">
        <ele>507.20001220703</ele>
        <time>2011-07-03T09:56:37.000Z</time>
      </trkpt>
      <trkpt lat="43.70201" lon="6.97783">
        <ele>507</ele>
        <time>2011-07-03T09:56:43.000Z</time>
      </trkpt>
      <trkpt lat="43.702" lon="6.97802">
        <ele>504.79998779297</ele>
        <time>2011-07-03T09:56:48.000Z</time>
      </trkpt>
      <trkpt lat="43.70204" lon="6.97826">
        <ele>505.79998779297</ele>
        <time>2011-07-03T09:56:54.000Z</time>
      </trkpt>
      <trkpt lat="43.70203" lon="6.97855">
        <ele>503.79998779297</ele>
        <time>2011-07-03T09:57:02.000Z</time>
      </trkpt>
      <trkpt lat="43.70201" lon="6.9786">
        <ele>502.20001220703</ele>
        <time>2011-07-03T09:57:09.000Z</time>
      </trkpt>
      <trkpt lat="43.70201" lon="6.97868">
        <ele>501.79998779297</ele>
        <time>2011-07-03T09:57:15.000Z</time>
      </trkpt>
      <trkpt lat="43.702" lon="6.97873">
        <ele>501</ele>
        <time>2011-07-03T09:57:25.000Z</time>
      </trkpt>
      <trkpt lat="43.702" lon="6.97889">
        <ele>500.20001220703</ele>
        <time>2011-07-03T09:57:31.000Z</time>
      </trkpt>
      <trkpt lat="43.70201" lon="6.97922">
        <ele>499.79998779297</ele>
        <time>2011-07-03T09:57:39.000Z</time>
      </trkpt>
      <trkpt lat="43.70203" lon="6.97954">
        <ele>499.20001220703</ele>
        <time>2011-07-03T09:57:44.000Z</time>
      </trkpt>
      <trkpt lat="43.70203" lon="6.97964">
        <ele>498.79998779297</ele>
        <time>2011-07-03T09:57:46.000Z</time>
      </trkpt>
      <trkpt lat="43.70205" lon="6.97983">
        <ele>499</ele>
        <time>2011-07-03T09:57:50.000Z</time>
      </trkpt>
      <trkpt lat="43.70217" lon="6.98003">
        <ele>506.20001220703</ele>
        <time>2011-07-03T09:57:57.000Z</time>
      </trkpt>
      <trkpt lat="43.70219" lon="6.98008">
        <ele>507.20001220703</ele>
        <time>2011-07-03T09:58:01.000Z</time>
      </trkpt>
      <trkpt lat="43.70221" lon="6.98013">
        <ele>508.39999389648</ele>
        <time>2011-07-03T09:58:06.000Z</time>
      </trkpt>
      <trkpt lat="43.7022" lon="6.98017">
        <ele>507.20001220703</ele>
        <time>2011-07-03T09:58:12.000Z</time>
      </trkpt>
      <trkpt lat="43.70219" lon="6.98025">
        <ele>506.60000610352</ele>
        <time>2011-07-03T09:58:20.000Z</time>
      </trkpt>
      <trkpt lat="43.7022" lon="6.98028">
        <ele>507</ele>
        <time>2011-07-03T09:58:22.000Z</time>
      </trkpt>
      <trkpt lat="43.70225" lon="6.98046">
        <ele>509</ele>
        <time>2011-07-03T09:58:29.000Z</time>
      </trkpt>
      <trkpt lat="43.7023" lon="6.98064">
        <ele>511.20001220703</ele>
        <time>2011-07-03T09:58:35.000Z</time>
      </trkpt>
      <trkpt lat="43.70236" lon="6.98086">
        <ele>513.40002441406</ele>
        <time>2011-07-03T09:58:41.000Z</time>
      </trkpt>
      <trkpt lat="43.70246" lon="6.98107">
        <ele>518.20001220703</ele>
        <time>2011-07-03T09:58:47.000Z</time>
      </trkpt>
      <trkpt lat="43.70252" lon="6.98135">
        <ele>520.20001220703</ele>
        <time>2011-07-03T09:58:53.000Z</time>
      </trkpt>
      <trkpt lat="43.70251" lon="6.98173">
        <ele>516.79998779297</ele>
        <time>2011-07-03T09:59:00.000Z</time>
      </trkpt>
      <trkpt lat="43.7025" lon="6.98225">
        <ele>509.20001220703</ele>
        <time>2011-07-03T09:59:09.000Z</time>
      </trkpt>
      <trkpt lat="43.7025" lon="6.98235">
        <ele>508</ele>
        <time>2011-07-03T09:59:11.000Z</time>
      </trkpt>
      <trkpt lat="43.70256" lon="6.98266">
        <ele>507.20001220703</ele>
        <time>2011-07-03T09:59:17.000Z</time>
      </trkpt>
      <trkpt lat="43.70259" lon="6.98277">
        <ele>507.60000610352</ele>
        <time>2011-07-03T09:59:21.000Z</time>
      </trkpt>
      <trkpt lat="43.7026" lon="6.98278">
        <ele>507.60000610352</ele>
        <time>2011-07-03T09:59:22.000Z</time>
      </trkpt>
      <trkpt lat="43.70257" lon="6.98281">
        <ele>506</ele>
        <time>2011-07-03T09:59:27.000Z</time>
      </trkpt>
      <trkpt lat="43.70253" lon="6.98286">
        <ele>503.39999389648</ele>
        <time>2011-07-03T09:59:35.000Z</time>
      </trkpt>
      <trkpt lat="43.70251" lon="6.98289">
        <ele>502.60000610352</ele>
        <time>2011-07-03T09:59:42.000Z</time>
      </trkpt>
      <trkpt lat="43.7025" lon="6.98289">
        <ele>502.20001220703</ele>
        <time>2011-07-03T09:59:49.000Z</time>
      </trkpt>
      <trkpt lat="43.70247" lon="6.98291">
        <ele>500.60000610352</ele>
        <time>2011-07-03T09:59:55.000Z</time>
      </trkpt>
      <trkpt lat="43.70246" lon="6.98295">
        <ele>499.79998779297</ele>
        <time>2011-07-03T10:00:01.000Z</time>
      </trkpt>
      <trkpt lat="43.70246" lon="6.983">
        <ele>499.20001220703</ele>
        <time>2011-07-03T10:00:08.000Z</time>
      </trkpt>
      <trkpt lat="43.70246" lon="6.98302">
        <ele>499</ele>
        <time>2011-07-03T10:00:09.000Z</time>
      </trkpt>
      <trkpt lat="43.70244" lon="6.98323">
        <ele>495.79998779297</ele>
        <time>2011-07-03T10:00:19.000Z</time>
      </trkpt>
      <trkpt lat="43.70244" lon="6.98339">
        <ele>493.60000610352</ele>
        <time>2011-07-03T10:00:28.000Z</time>
      </trkpt>
      <trkpt lat="43.70245" lon="6.98344">
        <ele>492.79998779297</ele>
        <time>2011-07-03T10:00:34.000Z</time>
      </trkpt>
      <trkpt lat="43.70244" lon="6.98349">
        <ele>491.20001220703</ele>
        <time>2011-07-03T10:00:39.000Z</time>
      </trkpt>
      <trkpt lat="43.70243" lon="6.98352">
        <ele>490.39999389648</ele>
        <time>2011-07-03T10:00:50.000Z</time>
      </trkpt>
      <trkpt lat="43.70244" lon="6.98352">
        <ele>490.79998779297</ele>
        <time>2011-07-03T10:01:00.000Z</time>
      </trkpt>
      <trkpt lat="43.70244" lon="6.98359">
        <ele>489</ele>
        <time>2011-07-03T10:01:04.000Z</time>
      </trkpt>
      <trkpt lat="43.70245" lon="6.9837">
        <ele>487.20001220703</ele>
        <time>2011-07-03T10:01:10.000Z</time>
      </trkpt>
      <trkpt lat="43.7025" lon="6.98378">
        <ele>487.79998779297</ele>
        <time>2011-07-03T10:01:16.000Z</time>
      </trkpt>
      <trkpt lat="43.70252" lon="6.98379">
        <ele>487.79998779297</ele>
        <time>2011-07-03T10:01:23.000Z</time>
      </trkpt>
      <trkpt lat="43.7026" lon="6.98388">
        <ele>487.20001220703</ele>
        <time>2011-07-03T10:01:28.000Z</time>
      </trkpt>
      <trkpt lat="43.70269" lon="6.98401">
        <ele>485.39999389648</ele>
        <time>2011-07-03T10:01:33.000Z</time>
      </trkpt>
      <trkpt lat="43.70275" lon="6.98408">
        <ele>484.39999389648</ele>
        <time>2011-07-03T10:01:36.000Z</time>
      </trkpt>
      <trkpt lat="43.70288" lon="6.98406">
        <ele>486.79998779297</ele>
        <time>2011-07-03T10:01:41.000Z</time>
      </trkpt>
      <trkpt lat="43.70291" lon="6.98403">
        <ele>488</ele>
        <time>2011-07-03T10:01:42.000Z</time>
      </trkpt>
      <trkpt lat="43.70315" lon="6.98387">
        <ele>497.79998779297</ele>
        <time>2011-07-03T10:01:50.000Z</time>
      </trkpt>
      <trkpt lat="43.70342" lon="6.98369">
        <ele>507.39999389648</ele>
        <time>2011-07-03T10:01:57.000Z</time>
      </trkpt>
      <trkpt lat="43.7036" lon="6.98363">
        <ele>508.39999389648</ele>
        <time>2011-07-03T10:02:03.000Z</time>
      </trkpt>
      <trkpt lat="43.70363" lon="6.98363">
        <ele>508</ele>
        <time>2011-07-03T10:02:07.000Z</time>
      </trkpt>
      <trkpt lat="43.70363" lon="6.98365">
        <ele>507</ele>
        <time>2011-07-03T10:02:15.000Z</time>
      </trkpt>
      <trkpt lat="43.70366" lon="6.98368">
        <ele>505.60000610352</ele>
        <time>2011-07-03T10:02:24.000Z</time>
      </trkpt>
      <trkpt lat="43.70367" lon="6.98365">
        <ele>506.79998779297</ele>
        <time>2011-07-03T10:02:36.000Z</time>
      </trkpt>
      <trkpt lat="43.70368" lon="6.98364">
        <ele>507</ele>
        <time>2011-07-03T10:02:55.000Z</time>
      </trkpt>
      <trkpt lat="43.70364" lon="6.98363">
        <ele>507.79998779297</ele>
        <time>2011-07-03T10:03:02.000Z</time>
      </trkpt>
      <trkpt lat="43.70361" lon="6.98364">
        <ele>508</ele>
        <time>2011-07-03T10:03:05.000Z</time>
      </trkpt>
      <trkpt lat="43.70364" lon="6.98362">
        <ele>508.20001220703</ele>
        <time>2011-07-03T10:03:10.000Z</time>
      </trkpt>
      <trkpt lat="43.70367" lon="6.98361">
        <ele>508.39999389648</ele>
        <time>2011-07-03T10:03:15.000Z</time>
      </trkpt>
      <trkpt lat="43.70364" lon="6.98362">
        <ele>508.39999389648</ele>
        <time>2011-07-03T10:03:21.000Z</time>
      </trkpt>
      <trkpt lat="43.70358" lon="6.98364">
        <ele>508</ele>
        <time>2011-07-03T10:03:25.000Z</time>
      </trkpt>
      <trkpt lat="43.70354" lon="6.98368">
        <ele>507</ele>
        <time>2011-07-03T10:03:29.000Z</time>
      </trkpt>
      <trkpt lat="43.70351" lon="6.9837">
        <ele>506.20001220703</ele>
        <time>2011-07-03T10:03:48.000Z</time>
      </trkpt>
      <trkpt lat="43.70347" lon="6.98377">
        <ele>503.79998779297</ele>
        <time>2011-07-03T10:03:53.000Z</time>
      </trkpt>
      <trkpt lat="43.70346" lon="6.98382">
        <ele>501.79998779297</ele>
        <time>2011-07-03T10:03:55.000Z</time>
      </trkpt>
      <trkpt lat="43.70341" lon="6.98392">
        <ele>498.20001220703</ele>
        <time>2011-07-03T10:03:59.000Z</time>
      </trkpt>
      <trkpt lat="43.70335" lon="6.9841">
        <ele>491.39999389648</ele>
        <time>2011-07-03T10:04:06.000Z</time>
      </trkpt>
      <trkpt lat="43.70326" lon="6.98432">
        <ele>482.20001220703</ele>
        <time>2011-07-03T10:04:13.000Z</time>
      </trkpt>
      <trkpt lat="43.70321" lon="6.98446">
        <ele>476</ele>
        <time>2011-07-03T10:04:17.000Z</time>
      </trkpt>
      <trkpt lat="43.70315" lon="6.98463">
        <ele>468.79998779297</ele>
        <time>2011-07-03T10:04:22.000Z</time>
      </trkpt>
      <trkpt lat="43.7031" lon="6.98477">
        <ele>463.20001220703</ele>
        <time>2011-07-03T10:04:26.000Z</time>
      </trkpt>
      <trkpt lat="43.70309" lon="6.98478">
        <ele>462.39999389648</ele>
        <time>2011-07-03T10:04:31.000Z</time>
      </trkpt>
      <trkpt lat="43.7031" lon="6.9848">
        <ele>462.20001220703</ele>
        <time>2011-07-03T10:04:41.000Z</time>
      </trkpt>
      <trkpt lat="43.70307" lon="6.98482">
        <ele>461</ele>
        <time>2011-07-03T10:05:34.000Z</time>
      </trkpt>
      <trkpt lat="43.70307" lon="6.98485">
        <ele>459.79998779297</ele>
        <time>2011-07-03T10:05:43.000Z</time>
      </trkpt>
      <trkpt lat="43.7031" lon="6.98493">
        <ele>457</ele>
        <time>2011-07-03T10:05:47.000Z</time>
      </trkpt>
      <trkpt lat="43.70325" lon="6.98495">
        <ele>457.79998779297</ele>
        <time>2011-07-03T10:05:53.000Z</time>
      </trkpt>
      <trkpt lat="43.70332" lon="6.98503">
        <ele>455.79998779297</ele>
        <time>2011-07-03T10:05:57.000Z</time>
      </trkpt>
      <trkpt lat="43.70333" lon="6.98511">
        <ele>453.39999389648</ele>
        <time>2011-07-03T10:06:00.000Z</time>
      </trkpt>
      <trkpt lat="43.70328" lon="6.98531">
        <ele>446.39999389648</ele>
        <time>2011-07-03T10:06:06.000Z</time>
      </trkpt>
      <trkpt lat="43.70335" lon="6.9855">
        <ele>441.20001220703</ele>
        <time>2011-07-03T10:06:11.000Z</time>
      </trkpt>
      <trkpt lat="43.70348" lon="6.98545">
        <ele>441</ele>
        <time>2011-07-03T10:06:15.000Z</time>
      </trkpt>
      <trkpt lat="43.70356" lon="6.98538">
        <ele>442.20001220703</ele>
        <time>2011-07-03T10:06:19.000Z</time>
      </trkpt>
      <trkpt lat="43.7036" lon="6.98538">
        <ele>441.60000610352</ele>
        <time>2011-07-03T10:06:21.000Z</time>
      </trkpt>
      <trkpt lat="43.70379" lon="6.98539">
        <ele>439.20001220703</ele>
        <time>2011-07-03T10:06:26.000Z</time>
      </trkpt>
      <trkpt lat="43.704" lon="6.98538">
        <ele>437</ele>
        <time>2011-07-03T10:06:32.000Z</time>
      </trkpt>
      <trkpt lat="43.70404" lon="6.98541">
        <ele>435.79998779297</ele>
        <time>2011-07-03T10:06:34.000Z</time>
      </trkpt>
      <trkpt lat="43.70408" lon="6.98545">
        <ele>434.20001220703</ele>
        <time>2011-07-03T10:06:40.000Z</time>
      </trkpt>
      <trkpt lat="43.70408" lon="6.98546">
        <ele>433.60000610352</ele>
        <time>2011-07-03T10:07:00.000Z</time>
      </trkpt>
      <trkpt lat="43.70403" lon="6.98548">
        <ele>433.79998779297</ele>
        <time>2011-07-03T10:07:14.000Z</time>
      </trkpt>
      <trkpt lat="43.70405" lon="6.98547">
        <ele>433.79998779297</ele>
        <time>2011-07-03T10:07:23.000Z</time>
      </trkpt>
      <trkpt lat="43.70406" lon="6.98547">
        <ele>433.60000610352</ele>
        <time>2011-07-03T10:07:36.000Z</time>
      </trkpt>
      <trkpt lat="43.70405" lon="6.98554">
        <ele>431.79998779297</ele>
        <time>2011-07-03T10:07:48.000Z</time>
      </trkpt>
      <trkpt lat="43.70418" lon="6.98572">
        <ele>424.79998779297</ele>
        <time>2011-07-03T10:07:55.000Z</time>
      </trkpt>
      <trkpt lat="43.70431" lon="6.98592">
        <ele>417.60000610352</ele>
        <time>2011-07-03T10:08:00.000Z</time>
      </trkpt>
      <trkpt lat="43.7044" lon="6.98606">
        <ele>413</ele>
        <time>2011-07-03T10:08:05.000Z</time>
      </trkpt>
      <trkpt lat="43.70448" lon="6.98615">
        <ele>409.79998779297</ele>
        <time>2011-07-03T10:08:09.000Z</time>
      </trkpt>
      <trkpt lat="43.70459" lon="6.98636">
        <ele>404.20001220703</ele>
        <time>2011-07-03T10:08:14.000Z</time>
      </trkpt>
      <trkpt lat="43.70474" lon="6.98654">
        <ele>399.20001220703</ele>
        <time>2011-07-03T10:08:19.000Z</time>
      </trkpt>
      <trkpt lat="43.70482" lon="6.98664">
        <ele>396.79998779297</ele>
        <time>2011-07-03T10:08:23.000Z</time>
      </trkpt>
      <trkpt lat="43.70497" lon="6.98672">
        <ele>394.20001220703</ele>
        <time>2011-07-03T10:08:29.000Z</time>
      </trkpt>
      <trkpt lat="43.70507" lon="6.98688">
        <ele>387.79998779297</ele>
        <time>2011-07-03T10:08:34.000Z</time>
      </trkpt>
      <trkpt lat="43.70516" lon="6.98705">
        <ele>381</ele>
        <time>2011-07-03T10:08:39.000Z</time>
      </trkpt>
      <trkpt lat="43.70528" lon="6.98717">
        <ele>375.39999389648</ele>
        <time>2011-07-03T10:08:44.000Z</time>
      </trkpt>
      <trkpt lat="43.70532" lon="6.98729">
        <ele>371.39999389648</ele>
        <time>2011-07-03T10:08:48.000Z</time>
      </trkpt>
      <trkpt lat="43.70538" lon="6.98745">
        <ele>366.20001220703</ele>
        <time>2011-07-03T10:08:53.000Z</time>
      </trkpt>
      <trkpt lat="43.70544" lon="6.98754">
        <ele>363</ele>
        <time>2011-07-03T10:08:58.000Z</time>
      </trkpt>
      <trkpt lat="43.70544" lon="6.98754">
        <ele>363</ele>
        <time>2011-07-03T10:09:08.000Z</time>
      </trkpt>
      <trkpt lat="43.70544" lon="6.98755">
        <ele>362.60000610352</ele>
        <time>2011-07-03T10:09:09.000Z</time>
      </trkpt>
      <trkpt lat="43.70548" lon="6.98762">
        <ele>360.20001220703</ele>
        <time>2011-07-03T10:09:14.000Z</time>
      </trkpt>
      <trkpt lat="43.70549" lon="6.98772">
        <ele>357.20001220703</ele>
        <time>2011-07-03T10:09:19.000Z</time>
      </trkpt>
      <trkpt lat="43.70555" lon="6.98802">
        <ele>348.79998779297</ele>
        <time>2011-07-03T10:09:26.000Z</time>
      </trkpt>
      <trkpt lat="43.70559" lon="6.9882">
        <ele>343.79998779297</ele>
        <time>2011-07-03T10:09:31.000Z</time>
      </trkpt>
      <trkpt lat="43.7056" lon="6.98829">
        <ele>341.60000610352</ele>
        <time>2011-07-03T10:09:35.000Z</time>
      </trkpt>
      <trkpt lat="43.70563" lon="6.98831">
        <ele>341</ele>
        <time>2011-07-03T10:09:43.000Z</time>
      </trkpt>
      <trkpt lat="43.70563" lon="6.98833">
        <ele>340.39999389648</ele>
        <time>2011-07-03T10:09:51.000Z</time>
      </trkpt>
      <trkpt lat="43.70562" lon="6.98832">
        <ele>340.60000610352</ele>
        <time>2011-07-03T10:10:12.000Z</time>
      </trkpt>
      <trkpt lat="43.70566" lon="6.98833">
        <ele>340.60000610352</ele>
        <time>2011-07-03T10:10:26.000Z</time>
      </trkpt>
      <trkpt lat="43.70564" lon="6.98831">
        <ele>341</ele>
        <time>2011-07-03T10:10:33.000Z</time>
      </trkpt>
      <trkpt lat="43.70564" lon="6.9883">
        <ele>341.20001220703</ele>
        <time>2011-07-03T10:10:38.000Z</time>
      </trkpt>
      <trkpt lat="43.70565" lon="6.98827">
        <ele>342</ele>
        <time>2011-07-03T10:10:52.000Z</time>
      </trkpt>
      <trkpt lat="43.70565" lon="6.98829">
        <ele>341.39999389648</ele>
        <time>2011-07-03T10:10:59.000Z</time>
      </trkpt>
      <trkpt lat="43.70564" lon="6.98831">
        <ele>341</ele>
        <time>2011-07-03T10:11:11.000Z</time>
      </trkpt>
      <trkpt lat="43.70563" lon="6.98834">
        <ele>340</ele>
        <time>2011-07-03T10:11:21.000Z</time>
      </trkpt>
      <trkpt lat="43.70564" lon="6.98851">
        <ele>335.60000610352</ele>
        <time>2011-07-03T10:11:25.000Z</time>
      </trkpt>
      <trkpt lat="43.70565" lon="6.98863">
        <ele>332.39999389648</ele>
        <time>2011-07-03T10:11:28.000Z</time>
      </trkpt>
      <trkpt lat="43.70571" lon="6.98861">
        <ele>333</ele>
        <time>2011-07-03T10:11:32.000Z</time>
      </trkpt>
      <trkpt lat="43.70579" lon="6.98852">
        <ele>335.20001220703</ele>
        <time>2011-07-03T10:11:37.000Z</time>
      </trkpt>
      <trkpt lat="43.70591" lon="6.98836">
        <ele>337</ele>
        <time>2011-07-03T10:11:42.000Z</time>
      </trkpt>
      <trkpt lat="43.70608" lon="6.98811">
        <ele>338.20001220703</ele>
        <time>2011-07-03T10:11:46.000Z</time>
      </trkpt>
      <trkpt lat="43.70617" lon="6.98799">
        <ele>338.79998779297</ele>
        <time>2011-07-03T10:11:48.000Z</time>
      </trkpt>
      <trkpt lat="43.70655" lon="6.98772">
        <ele>336.39999389648</ele>
        <time>2011-07-03T10:11:54.000Z</time>
      </trkpt>
      <trkpt lat="43.70684" lon="6.98746">
        <ele>334.60000610352</ele>
        <time>2011-07-03T10:11:58.000Z</time>
      </trkpt>
      <trkpt lat="43.70709" lon="6.98719">
        <ele>330</ele>
        <time>2011-07-03T10:12:02.000Z</time>
      </trkpt>
      <trkpt lat="43.70732" lon="6.9869">
        <ele>326.39999389648</ele>
        <time>2011-07-03T10:12:07.000Z</time>
      </trkpt>
      <trkpt lat="43.7074" lon="6.98677">
        <ele>325.20001220703</ele>
        <time>2011-07-03T10:12:09.000Z</time>
      </trkpt>
      <trkpt lat="43.70768" lon="6.98669">
        <ele>319.39999389648</ele>
        <time>2011-07-03T10:12:14.000Z</time>
      </trkpt>
      <trkpt lat="43.70776" lon="6.9867">
        <ele>317.79998779297</ele>
        <time>2011-07-03T10:12:15.000Z</time>
      </trkpt>
      <trkpt lat="43.70796" lon="6.98681">
        <ele>312.60000610352</ele>
        <time>2011-07-03T10:12:19.000Z</time>
      </trkpt>
      <trkpt lat="43.70811" lon="6.98683">
        <ele>309.60000610352</ele>
        <time>2011-07-03T10:12:23.000Z</time>
      </trkpt>
      <trkpt lat="43.70815" lon="6.98684">
        <ele>309</ele>
        <time>2011-07-03T10:12:29.000Z</time>
      </trkpt>
      <trkpt lat="43.70819" lon="6.98682">
        <ele>308.39999389648</ele>
        <time>2011-07-03T10:12:41.000Z</time>
      </trkpt>
      <trkpt lat="43.70832" lon="6.98676">
        <ele>307</ele>
        <time>2011-07-03T10:12:46.000Z</time>
      </trkpt>
      <trkpt lat="43.70854" lon="6.98667">
        <ele>305.60000610352</ele>
        <time>2011-07-03T10:12:51.000Z</time>
      </trkpt>
      <trkpt lat="43.7086" lon="6.98665">
        <ele>305.20001220703</ele>
        <time>2011-07-03T10:12:52.000Z</time>
      </trkpt>
      <trkpt lat="43.70874" lon="6.98648">
        <ele>305.60000610352</ele>
        <time>2011-07-03T10:12:56.000Z</time>
      </trkpt>
      <trkpt lat="43.70899" lon="6.986">
        <ele>306.39999389648</ele>
        <time>2011-07-03T10:13:04.000Z</time>
      </trkpt>
      <trkpt lat="43.7093" lon="6.98544">
        <ele>308.20001220703</ele>
        <time>2011-07-03T10:13:11.000Z</time>
      </trkpt>
      <trkpt lat="43.70945" lon="6.98512">
        <ele>309</ele>
        <time>2011-07-03T10:13:15.000Z</time>
      </trkpt>
      <trkpt lat="43.70956" lon="6.9848">
        <ele>311.79998779297</ele>
        <time>2011-07-03T10:13:20.000Z</time>
      </trkpt>
      <trkpt lat="43.70966" lon="6.98464">
        <ele>312.39999389648</ele>
        <time>2011-07-03T10:13:23.000Z</time>
      </trkpt>
      <trkpt lat="43.70979" lon="6.98438">
        <ele>313.60000610352</ele>
        <time>2011-07-03T10:13:28.000Z</time>
      </trkpt>
      <trkpt lat="43.70987" lon="6.9842">
        <ele>314.60000610352</ele>
        <time>2011-07-03T10:13:32.000Z</time>
      </trkpt>
      <trkpt lat="43.71003" lon="6.98401">
        <ele>316.79998779297</ele>
        <time>2011-07-03T10:13:38.000Z</time>
      </trkpt>
      <trkpt lat="43.7102" lon="6.98404">
        <ele>311.60000610352</ele>
        <time>2011-07-03T10:13:41.000Z</time>
      </trkpt>
      <trkpt lat="43.71035" lon="6.98412">
        <ele>305</ele>
        <time>2011-07-03T10:13:44.000Z</time>
      </trkpt>
      <trkpt lat="43.71062" lon="6.98412">
        <ele>299.20001220703</ele>
        <time>2011-07-03T10:13:48.000Z</time>
      </trkpt>
      <trkpt lat="43.71067" lon="6.9841">
        <ele>298.79998779297</ele>
        <time>2011-07-03T10:13:49.000Z</time>
      </trkpt>
      <trkpt lat="43.7109" lon="6.98406">
        <ele>295.39999389648</ele>
        <time>2011-07-03T10:13:53.000Z</time>
      </trkpt>
      <trkpt lat="43.71105" lon="6.98402">
        <ele>294</ele>
        <time>2011-07-03T10:13:57.000Z</time>
      </trkpt>
      <trkpt lat="43.71142" lon="6.98392">
        <ele>290.20001220703</ele>
        <time>2011-07-03T10:14:05.000Z</time>
      </trkpt>
      <trkpt lat="43.71155" lon="6.98384">
        <ele>289.20001220703</ele>
        <time>2011-07-03T10:14:09.000Z</time>
      </trkpt>
      <trkpt lat="43.71162" lon="6.98376">
        <ele>289.39999389648</ele>
        <time>2011-07-03T10:14:13.000Z</time>
      </trkpt>
      <trkpt lat="43.7117" lon="6.98375">
        <ele>287.39999389648</ele>
        <time>2011-07-03T10:14:17.000Z</time>
      </trkpt>
      <trkpt lat="43.71175" lon="6.98372">
        <ele>286.60000610352</ele>
        <time>2011-07-03T10:14:35.000Z</time>
      </trkpt>
      <trkpt lat="43.71186" lon="6.98375">
        <ele>282.60000610352</ele>
        <time>2011-07-03T10:14:40.000Z</time>
      </trkpt>
      <trkpt lat="43.71188" lon="6.98373">
        <ele>282.39999389648</ele>
        <time>2011-07-03T10:14:44.000Z</time>
      </trkpt>
      <trkpt lat="43.71192" lon="6.98372">
        <ele>281.39999389648</ele>
        <time>2011-07-03T10:14:48.000Z</time>
      </trkpt>
      <trkpt lat="43.71205" lon="6.98356">
        <ele>280</ele>
        <time>2011-07-03T10:14:55.000Z</time>
      </trkpt>
      <trkpt lat="43.71214" lon="6.98343">
        <ele>279</ele>
        <time>2011-07-03T10:14:59.000Z</time>
      </trkpt>
      <trkpt lat="43.71238" lon="6.98322">
        <ele>275.20001220703</ele>
        <time>2011-07-03T10:15:04.000Z</time>
      </trkpt>
      <trkpt lat="43.71242" lon="6.98319">
        <ele>274.39999389648</ele>
        <time>2011-07-03T10:15:05.000Z</time>
      </trkpt>
      <trkpt lat="43.71254" lon="6.9831">
        <ele>273.39999389648</ele>
        <time>2011-07-03T10:15:10.000Z</time>
      </trkpt>
      <trkpt lat="43.71255" lon="6.98309">
        <ele>273.60000610352</ele>
        <time>2011-07-03T10:15:12.000Z</time>
      </trkpt>
      <trkpt lat="43.71256" lon="6.98301">
        <ele>275</ele>
        <time>2011-07-03T10:15:16.000Z</time>
      </trkpt>
      <trkpt lat="43.71257" lon="6.98292">
        <ele>276.60000610352</ele>
        <time>2011-07-03T10:15:21.000Z</time>
      </trkpt>
      <trkpt lat="43.71258" lon="6.98297">
        <ele>275.60000610352</ele>
        <time>2011-07-03T10:15:42.000Z</time>
      </trkpt>
      <trkpt lat="43.7126" lon="6.98298">
        <ele>275.39999389648</ele>
        <time>2011-07-03T10:15:43.000Z</time>
      </trkpt>
      <trkpt lat="43.71262" lon="6.98314">
        <ele>272.39999389648</ele>
        <time>2011-07-03T10:15:48.000Z</time>
      </trkpt>
      <trkpt lat="43.71257" lon="6.98337">
        <ele>268.60000610352</ele>
        <time>2011-07-03T10:15:52.000Z</time>
      </trkpt>
      <trkpt lat="43.71239" lon="6.98367">
        <ele>268.20001220703</ele>
        <time>2011-07-03T10:15:58.000Z</time>
      </trkpt>
      <trkpt lat="43.71225" lon="6.9839">
        <ele>269.20001220703</ele>
        <time>2011-07-03T10:16:01.000Z</time>
      </trkpt>
      <trkpt lat="43.71211" lon="6.98431">
        <ele>267.20001220703</ele>
        <time>2011-07-03T10:16:06.000Z</time>
      </trkpt>
      <trkpt lat="43.71205" lon="6.98453">
        <ele>265.39999389648</ele>
        <time>2011-07-03T10:16:09.000Z</time>
      </trkpt>
      <trkpt lat="43.71204" lon="6.98482">
        <ele>261.39999389648</ele>
        <time>2011-07-03T10:16:14.000Z</time>
      </trkpt>
      <trkpt lat="43.71213" lon="6.98489">
        <ele>257.79998779297</ele>
        <time>2011-07-03T10:16:19.000Z</time>
      </trkpt>
      <trkpt lat="43.71211" lon="6.98487">
        <ele>258.39999389648</ele>
        <time>2011-07-03T10:16:22.000Z</time>
      </trkpt>
      <trkpt lat="43.71209" lon="6.98488">
        <ele>259</ele>
        <time>2011-07-03T10:16:24.000Z</time>
      </trkpt>
      <trkpt lat="43.71211" lon="6.9849">
        <ele>258</ele>
        <time>2011-07-03T10:16:28.000Z</time>
      </trkpt>
      <trkpt lat="43.7123" lon="6.98477">
        <ele>254.39999389648</ele>
        <time>2011-07-03T10:16:34.000Z</time>
      </trkpt>
      <trkpt lat="43.71252" lon="6.98469">
        <ele>250.19999694824</ele>
        <time>2011-07-03T10:16:39.000Z</time>
      </trkpt>
      <trkpt lat="43.71272" lon="6.98468">
        <ele>251.19999694824</ele>
        <time>2011-07-03T10:16:43.000Z</time>
      </trkpt>
      <trkpt lat="43.71315" lon="6.98477">
        <ele>251.60000610352</ele>
        <time>2011-07-03T10:16:51.000Z</time>
      </trkpt>
      <trkpt lat="43.71336" lon="6.98489">
        <ele>251.39999389648</ele>
        <time>2011-07-03T10:16:55.000Z</time>
      </trkpt>
      <trkpt lat="43.71363" lon="6.98517">
        <ele>255.39999389648</ele>
        <time>2011-07-03T10:17:01.000Z</time>
      </trkpt>
      <trkpt lat="43.71367" lon="6.98522">
        <ele>255.80000305176</ele>
        <time>2011-07-03T10:17:02.000Z</time>
      </trkpt>
      <trkpt lat="43.71393" lon="6.9857">
        <ele>254.19999694824</ele>
        <time>2011-07-03T10:17:10.000Z</time>
      </trkpt>
      <trkpt lat="43.71408" lon="6.98623">
        <ele>251.39999389648</ele>
        <time>2011-07-03T10:17:17.000Z</time>
      </trkpt>
      <trkpt lat="43.7143" lon="6.98683">
        <ele>248.39999389648</ele>
        <time>2011-07-03T10:17:25.000Z</time>
      </trkpt>
      <trkpt lat="43.7145" lon="6.98715">
        <ele>245.19999694824</ele>
        <time>2011-07-03T10:17:30.000Z</time>
      </trkpt>
      <trkpt lat="43.7149" lon="6.98749">
        <ele>245.80000305176</ele>
        <time>2011-07-03T10:17:37.000Z</time>
      </trkpt>
      <trkpt lat="43.71536" lon="6.98773">
        <ele>246</ele>
        <time>2011-07-03T10:17:44.000Z</time>
      </trkpt>
      <trkpt lat="43.71585" lon="6.98797">
        <ele>244.39999389648</ele>
        <time>2011-07-03T10:17:51.000Z</time>
      </trkpt>
      <trkpt lat="43.71633" lon="6.98821">
        <ele>242.39999389648</ele>
        <time>2011-07-03T10:17:58.000Z</time>
      </trkpt>
      <trkpt lat="43.71668" lon="6.98839">
        <ele>241.19999694824</ele>
        <time>2011-07-03T10:18:03.000Z</time>
      </trkpt>
      <trkpt lat="43.7172" lon="6.98865">
        <ele>237.60000610352</ele>
        <time>2011-07-03T10:18:10.000Z</time>
      </trkpt>
      <trkpt lat="43.71767" lon="6.98878">
        <ele>237.19999694824</ele>
        <time>2011-07-03T10:18:16.000Z</time>
      </trkpt>
      <trkpt lat="43.71813" lon="6.98883">
        <ele>238</ele>
        <time>2011-07-03T10:18:22.000Z</time>
      </trkpt>
      <trkpt lat="43.71851" lon="6.98888">
        <ele>240.19999694824</ele>
        <time>2011-07-03T10:18:27.000Z</time>
      </trkpt>
      <trkpt lat="43.71911" lon="6.9893">
        <ele>239.80000305176</ele>
        <time>2011-07-03T10:18:36.000Z</time>
      </trkpt>
      <trkpt lat="43.71958" lon="6.98962">
        <ele>236</ele>
        <time>2011-07-03T10:18:43.000Z</time>
      </trkpt>
      <trkpt lat="43.71975" lon="6.9898">
        <ele>233.80000305176</ele>
        <time>2011-07-03T10:18:46.000Z</time>
      </trkpt>
      <trkpt lat="43.71985" lon="6.98992">
        <ele>232.19999694824</ele>
        <time>2011-07-03T10:18:48.000Z</time>
      </trkpt>
      <trkpt lat="43.72008" lon="6.98999">
        <ele>233.39999389648</ele>
        <time>2011-07-03T10:18:52.000Z</time>
      </trkpt>
      <trkpt lat="43.72014" lon="6.99">
        <ele>233.60000610352</ele>
        <time>2011-07-03T10:18:53.000Z</time>
      </trkpt>
      <trkpt lat="43.72027" lon="6.99003">
        <ele>233.39999389648</ele>
        <time>2011-07-03T10:18:57.000Z</time>
      </trkpt>
      <trkpt lat="43.72026" lon="6.99004">
        <ele>233.19999694824</ele>
        <time>2011-07-03T10:19:03.000Z</time>
      </trkpt>
      <trkpt lat="43.72027" lon="6.99003">
        <ele>233.39999389648</ele>
        <time>2011-07-03T10:19:12.000Z</time>
      </trkpt>
      <trkpt lat="43.72035" lon="6.99003">
        <ele>233.60000610352</ele>
        <time>2011-07-03T10:19:16.000Z</time>
      </trkpt>
      <trkpt lat="43.72049" lon="6.99001">
        <ele>235</ele>
        <time>2011-07-03T10:19:22.000Z</time>
      </trkpt>
      <trkpt lat="43.72052" lon="6.99017">
        <ele>230.39999389648</ele>
        <time>2011-07-03T10:19:25.000Z</time>
      </trkpt>
      <trkpt lat="43.7204" lon="6.99039">
        <ele>223.60000610352</ele>
        <time>2011-07-03T10:19:28.000Z</time>
      </trkpt>
      <trkpt lat="43.72043" lon="6.99052">
        <ele>219.80000305176</ele>
        <time>2011-07-03T10:19:31.000Z</time>
      </trkpt>
      <trkpt lat="43.7205" lon="6.99042">
        <ele>223</ele>
        <time>2011-07-03T10:19:33.000Z</time>
      </trkpt>
      <trkpt lat="43.72062" lon="6.9905">
        <ele>221</ele>
        <time>2011-07-03T10:19:36.000Z</time>
      </trkpt>
      <trkpt lat="43.7206" lon="6.99064">
        <ele>216.80000305176</ele>
        <time>2011-07-03T10:19:38.000Z</time>
      </trkpt>
      <trkpt lat="43.72047" lon="6.9907">
        <ele>214.80000305176</ele>
        <time>2011-07-03T10:19:40.000Z</time>
      </trkpt>
      <trkpt lat="43.72031" lon="6.99076">
        <ele>213</ele>
        <time>2011-07-03T10:19:42.000Z</time>
      </trkpt>
      <trkpt lat="43.72032" lon="6.99097">
        <ele>207.60000610352</ele>
        <time>2011-07-03T10:19:47.000Z</time>
      </trkpt>
      <trkpt lat="43.72043" lon="6.99101">
        <ele>206.60000610352</ele>
        <time>2011-07-03T10:19:50.000Z</time>
      </trkpt>
      <trkpt lat="43.72031" lon="6.99109">
        <ele>204.60000610352</ele>
        <time>2011-07-03T10:19:53.000Z</time>
      </trkpt>
      <trkpt lat="43.72006" lon="6.99116">
        <ele>203</ele>
        <time>2011-07-03T10:19:57.000Z</time>
      </trkpt>
      <trkpt lat="43.71999" lon="6.99116">
        <ele>203</ele>
        <time>2011-07-03T10:19:58.000Z</time>
      </trkpt>
      <trkpt lat="43.71965" lon="6.99104">
        <ele>199.80000305176</ele>
        <time>2011-07-03T10:20:03.000Z</time>
      </trkpt>
      <trkpt lat="43.71921" lon="6.99072">
        <ele>199</ele>
        <time>2011-07-03T10:20:10.000Z</time>
      </trkpt>
      <trkpt lat="43.71909" lon="6.99059">
        <ele>200.39999389648</ele>
        <time>2011-07-03T10:20:12.000Z</time>
      </trkpt>
      <trkpt lat="43.719" lon="6.99046">
        <ele>202.39999389648</ele>
        <time>2011-07-03T10:20:14.000Z</time>
      </trkpt>
      <trkpt lat="43.71891" lon="6.9904">
        <ele>202.19999694824</ele>
        <time>2011-07-03T10:20:18.000Z</time>
      </trkpt>
      <trkpt lat="43.71891" lon="6.9905">
        <ele>199.60000610352</ele>
        <time>2011-07-03T10:20:22.000Z</time>
      </trkpt>
      <trkpt lat="43.71903" lon="6.99066">
        <ele>197.39999389648</ele>
        <time>2011-07-03T10:20:26.000Z</time>
      </trkpt>
      <trkpt lat="43.71932" lon="6.991">
        <ele>194.60000610352</ele>
        <time>2011-07-03T10:20:32.000Z</time>
      </trkpt>
      <trkpt lat="43.71974" lon="6.99152">
        <ele>190.80000305176</ele>
        <time>2011-07-03T10:20:40.000Z</time>
      </trkpt>
      <trkpt lat="43.71989" lon="6.992">
        <ele>190</ele>
        <time>2011-07-03T10:20:45.000Z</time>
      </trkpt>
      <trkpt lat="43.71985" lon="6.9924">
        <ele>190.80000305176</ele>
        <time>2011-07-03T10:20:49.000Z</time>
      </trkpt>
      <trkpt lat="43.71969" lon="6.99271">
        <ele>197.39999389648</ele>
        <time>2011-07-03T10:20:53.000Z</time>
      </trkpt>
      <trkpt lat="43.7195" lon="6.99274">
        <ele>198.19999694824</ele>
        <time>2011-07-03T10:20:56.000Z</time>
      </trkpt>
      <trkpt lat="43.71938" lon="6.99271">
        <ele>197.39999389648</ele>
        <time>2011-07-03T10:20:58.000Z</time>
      </trkpt>
      <trkpt lat="43.71927" lon="6.99266">
        <ele>196.19999694824</ele>
        <time>2011-07-03T10:21:00.000Z</time>
      </trkpt>
      <trkpt lat="43.71913" lon="6.99256">
        <ele>193.80000305176</ele>
        <time>2011-07-03T10:21:04.000Z</time>
      </trkpt>
      <trkpt lat="43.71914" lon="6.99254">
        <ele>193.19999694824</ele>
        <time>2011-07-03T10:21:08.000Z</time>
      </trkpt>
    </trkseg>
  </trk>
</gpx>